<?xml version='1.0' encoding='UTF-8'?><gpx version="1.1" creator="JPX - https://github.com/jenetics/jpx" xmlns="http://www.topografix.com/GPX/1/1"><trk><trkseg><trkpt lat="43.78247580498962" lon="10.921834201907773"><ele>66.0</ele><time>2026-04-19T08:04:34.479Z</time></trkpt><trkpt lat="43.78246151781821" lon="10.921736993277435"><ele>66.0</ele><time>2026-04-19T08:04:40.18Z</time></trkpt><trkpt lat="43.7824240662977" lon="10.921831590930895"><ele>66.0</ele><time>2026-04-19T08:04:50Z</time></trkpt><trkpt lat="43.7823779062678" lon="10.921922056299406"><ele>66.0</ele><time>2026-04-19T08:04:55Z</time></trkpt><trkpt lat="43.782338340598095" lon="10.92199365039707"><ele>66.0</ele><time>2026-04-19T08:05:00.001Z</time></trkpt><trkpt lat="43.78234026068474" lon="10.92208863321257"><ele>66.0</ele><time>2026-04-19T08:05:04.001Z</time></trkpt><trkpt lat="43.782337206954715" lon="10.922179273815217"><ele>66.0</ele><time>2026-04-19T08:05:08.001Z</time></trkpt><trkpt lat="43.78233469947137" lon="10.92228874707048"><ele>66.0</ele><time>2026-04-19T08:05:13.001Z</time></trkpt><trkpt lat="43.782321727622055" lon="10.922380407498174"><ele>66.0</ele><time>2026-04-19T08:05:17.001Z</time></trkpt><trkpt lat="43.78230555055751" lon="10.922475474580756"><ele>66.0</ele><time>2026-04-19T08:05:21.001Z</time></trkpt><trkpt lat="43.78230593456907" lon="10.922568472880506"><ele>66.0</ele><time>2026-04-19T08:05:25.001Z</time></trkpt><trkpt lat="43.78230783220851" lon="10.92265890568633"><ele>66.0</ele><time>2026-04-19T08:05:29.001Z</time></trkpt><trkpt lat="43.782287364271845" lon="10.922746395827176"><ele>66.0</ele><time>2026-04-19T08:05:33.001Z</time></trkpt><trkpt lat="43.782286228670706" lon="10.922844722526676"><ele>66.0</ele><time>2026-04-19T08:05:37.001Z</time></trkpt><trkpt lat="43.78227232250287" lon="10.922939563898813"><ele>66.83333333333333</ele><time>2026-04-19T08:05:41.001Z</time></trkpt><trkpt lat="43.78226777751032" lon="10.923038627227315"><ele>67.66666666666667</ele><time>2026-04-19T08:05:45.001Z</time></trkpt><trkpt lat="43.78225546596467" lon="10.923135918855195"><ele>68.5</ele><time>2026-04-19T08:05:49.002Z</time></trkpt><trkpt lat="43.78224548323703" lon="10.9232439181342"><ele>69.33333333333334</ele><time>2026-04-19T08:05:53.002Z</time></trkpt><trkpt lat="43.782270352891665" lon="10.923360014798423"><ele>70.16666666666667</ele><time>2026-04-19T08:05:57.002Z</time></trkpt><trkpt lat="43.78232026611447" lon="10.923436936277229"><ele>71.0</ele><time>2026-04-19T08:06:00.002Z</time></trkpt><trkpt lat="43.782388736828615" lon="10.92345789532348"><ele>71.28571428571428</ele><time>2026-04-19T08:06:03.002Z</time></trkpt><trkpt lat="43.782471037663754" lon="10.923470093658441"><ele>71.57142857142857</ele><time>2026-04-19T08:06:07.002Z</time></trkpt><trkpt lat="43.78255523124982" lon="10.923487601766906"><ele>71.85714285714286</ele><time>2026-04-19T08:06:11.002Z</time></trkpt><trkpt lat="43.782618852986886" lon="10.9234981772555"><ele>72.14285714285714</ele><time>2026-04-19T08:06:14.002Z</time></trkpt><trkpt lat="43.782681605298876" lon="10.923516944584154"><ele>72.42857142857143</ele><time>2026-04-19T08:06:17.002Z</time></trkpt><trkpt lat="43.78276414330651" lon="10.923524562004495"><ele>72.71428571428571</ele><time>2026-04-19T08:06:21.002Z</time></trkpt><trkpt lat="43.78282835871914" lon="10.923521535404628"><ele>73.0</ele><time>2026-04-19T08:06:24.002Z</time></trkpt><trkpt lat="43.78289540432916" lon="10.923534885904655"><ele>73.14285714285714</ele><time>2026-04-19T08:06:27.002Z</time></trkpt><trkpt lat="43.7829398869413" lon="10.923610743318548"><ele>73.28571428571429</ele><time>2026-04-19T08:06:30.002Z</time></trkpt><trkpt lat="43.78294409113401" lon="10.923703566859428"><ele>73.42857142857143</ele><time>2026-04-19T08:06:33.002Z</time></trkpt><trkpt lat="43.78293134192161" lon="10.923796081893357"><ele>73.57142857142857</ele><time>2026-04-19T08:06:37.003Z</time></trkpt><trkpt lat="43.78291212621554" lon="10.923891060419026"><ele>73.71428571428571</ele><time>2026-04-19T08:06:42.002Z</time></trkpt><trkpt lat="43.78294694727922" lon="10.923971017883432"><ele>73.85714285714286</ele><time>2026-04-19T08:06:45.002Z</time></trkpt><trkpt lat="43.78301039676068" lon="10.924011090784262"><ele>74.0</ele><time>2026-04-19T08:06:48.002Z</time></trkpt><trkpt lat="43.78305245908891" lon="10.924076103061537"><ele>74.0</ele><time>2026-04-19T08:06:51.002Z</time></trkpt><trkpt lat="43.783087812969406" lon="10.924152038351933"><ele>74.0</ele><time>2026-04-19T08:06:57.002Z</time></trkpt><trkpt lat="43.783155529573655" lon="10.924194762366694"><ele>74.0</ele><time>2026-04-19T08:07:00.001Z</time></trkpt><trkpt lat="43.783212629843085" lon="10.92425253317177"><ele>74.0</ele><time>2026-04-19T08:07:03.001Z</time></trkpt><trkpt lat="43.783278516787895" lon="10.924284517192696"><ele>74.0</ele><time>2026-04-19T08:07:06.001Z</time></trkpt><trkpt lat="43.783348863645195" lon="10.924303243806051"><ele>74.0</ele><time>2026-04-19T08:07:09.001Z</time></trkpt><trkpt lat="43.7834215012572" lon="10.924308399993173"><ele>74.0</ele><time>2026-04-19T08:07:12.001Z</time></trkpt><trkpt lat="43.783490626989924" lon="10.924355049439573"><ele>73.5</ele><time>2026-04-19T08:07:15.001Z</time></trkpt><trkpt lat="43.78356711659368" lon="10.9243492214939"><ele>73.0</ele><time>2026-04-19T08:07:19.001Z</time></trkpt><trkpt lat="43.78359439091029" lon="10.924458365862995"><ele>72.5</ele><time>2026-04-19T08:07:23.001Z</time></trkpt><trkpt lat="43.78361715434743" lon="10.924541874659948"><ele>72.0</ele><time>2026-04-19T08:07:26.001Z</time></trkpt><trkpt lat="43.78364427178698" lon="10.924644907631572"><ele>71.5</ele><time>2026-04-19T08:07:30.001Z</time></trkpt><trkpt lat="43.78364269832471" lon="10.924741958076789"><ele>71.0</ele><time>2026-04-19T08:07:34.001Z</time></trkpt><trkpt lat="43.783614107735346" lon="10.924846335574196"><ele>71.0</ele><time>2026-04-19T08:07:38.001Z</time></trkpt><trkpt lat="43.783587048271535" lon="10.924942434041114"><ele>71.0</ele><time>2026-04-19T08:07:41.001Z</time></trkpt><trkpt lat="43.78355176893247" lon="10.925024553849157"><ele>71.0</ele><time>2026-04-19T08:07:44.001Z</time></trkpt><trkpt lat="43.783531952523624" lon="10.925115768679502"><ele>71.0</ele><time>2026-04-19T08:07:47.001Z</time></trkpt><trkpt lat="43.78346230737442" lon="10.925150479122886"><ele>71.0</ele><time>2026-04-19T08:07:51.001Z</time></trkpt><trkpt lat="43.78341071073312" lon="10.925211135475138"><ele>71.0</ele><time>2026-04-19T08:07:54.001Z</time></trkpt><trkpt lat="43.78341224289915" lon="10.92532298503249"><ele>71.0</ele><time>2026-04-19T08:07:57.001Z</time></trkpt><trkpt lat="43.78340102921807" lon="10.925429899050071"><ele>70.66666666666667</ele><time>2026-04-19T08:08:00.001Z</time></trkpt><trkpt lat="43.783395837433446" lon="10.925534986220466"><ele>70.33333333333334</ele><time>2026-04-19T08:08:03.001Z</time></trkpt><trkpt lat="43.783407361742114" lon="10.92564419335486"><ele>70.0</ele><time>2026-04-19T08:08:06.001Z</time></trkpt><trkpt lat="43.78346881060265" lon="10.925673194273257"><ele>69.66666666666667</ele><time>2026-04-19T08:08:08.001Z</time></trkpt><trkpt lat="43.78354496107826" lon="10.925702878550874"><ele>69.33333333333333</ele><time>2026-04-19T08:08:11.001Z</time></trkpt><trkpt lat="43.78361418129664" lon="10.925749881195253"><ele>69.0</ele><time>2026-04-19T08:08:14.001Z</time></trkpt><trkpt lat="43.78368911177087" lon="10.92577542545085"><ele>68.85714285714286</ele><time>2026-04-19T08:08:17.001Z</time></trkpt><trkpt lat="43.78370503697069" lon="10.925884683927219"><ele>68.71428571428572</ele><time>2026-04-19T08:08:20.001Z</time></trkpt><trkpt lat="43.78365849524378" lon="10.925945667524394"><ele>68.57142857142857</ele><time>2026-04-19T08:08:22.001Z</time></trkpt><trkpt lat="43.78360187010593" lon="10.926000340253701"><ele>68.42857142857143</ele><time>2026-04-19T08:08:25.001Z</time></trkpt><trkpt lat="43.783544906753434" lon="10.926052462926652"><ele>68.28571428571428</ele><time>2026-04-19T08:08:28.001Z</time></trkpt><trkpt lat="43.783482163611275" lon="10.92608756906288"><ele>68.14285714285714</ele><time>2026-04-19T08:08:31.001Z</time></trkpt><trkpt lat="43.78341997628422" lon="10.926141355852849"><ele>68.0</ele><time>2026-04-19T08:08:34.001Z</time></trkpt><trkpt lat="43.78334983523946" lon="10.926198598165062"><ele>67.0</ele><time>2026-04-19T08:08:37.001Z</time></trkpt><trkpt lat="43.783288918689955" lon="10.92626435880036"><ele>66.0</ele><time>2026-04-19T08:08:40.002Z</time></trkpt><trkpt lat="43.783230724827966" lon="10.926331434957577"><ele>65.0</ele><time>2026-04-19T08:08:43.002Z</time></trkpt><trkpt lat="43.78317678782539" lon="10.926401260730852"><ele>64.0</ele><time>2026-04-19T08:08:46.002Z</time></trkpt><trkpt lat="43.78312835098468" lon="10.926467541790679"><ele>63.00000000000001</ele><time>2026-04-19T08:08:49.002Z</time></trkpt><trkpt lat="43.78306620772317" lon="10.926542798444784"><ele>62.0</ele><time>2026-04-19T08:08:52.002Z</time></trkpt><trkpt lat="43.783014114229495" lon="10.926633062221768"><ele>60.00000000000001</ele><time>2026-04-19T08:08:55.002Z</time></trkpt><trkpt lat="43.78297366961862" lon="10.926731558146242"><ele>58.0</ele><time>2026-04-19T08:08:58.002Z</time></trkpt><trkpt lat="43.7829261325976" lon="10.926808771185291"><ele>56.0</ele><time>2026-04-19T08:09:01.001Z</time></trkpt><trkpt lat="43.782891419794865" lon="10.926913791283285"><ele>54.0</ele><time>2026-04-19T08:09:04.001Z</time></trkpt><trkpt lat="43.782868228867486" lon="10.927027680599203"><ele>52.00000000000001</ele><time>2026-04-19T08:09:07.001Z</time></trkpt><trkpt lat="43.78283720954449" lon="10.927124506263995"><ele>50.0</ele><time>2026-04-19T08:09:10.001Z</time></trkpt><trkpt lat="43.78279331694462" lon="10.927213896730317"><ele>50.00000000000001</ele><time>2026-04-19T08:09:13.001Z</time></trkpt><trkpt lat="43.782754391751254" lon="10.92731039298827"><ele>50.0</ele><time>2026-04-19T08:09:16.001Z</time></trkpt><trkpt lat="43.78271499600282" lon="10.927395126829282"><ele>50.0</ele><time>2026-04-19T08:09:19.001Z</time></trkpt><trkpt lat="43.78267654047468" lon="10.927497776186955"><ele>50.0</ele><time>2026-04-19T08:09:22.001Z</time></trkpt><trkpt lat="43.782623588782386" lon="10.92757908360142"><ele>50.00000000000001</ele><time>2026-04-19T08:09:25.001Z</time></trkpt><trkpt lat="43.78257753536453" lon="10.927674204992078"><ele>50.0</ele><time>2026-04-19T08:09:28.001Z</time></trkpt><trkpt lat="43.78253637787464" lon="10.927764581914026"><ele>49.50000000000001</ele><time>2026-04-19T08:09:31.001Z</time></trkpt><trkpt lat="43.78248401168157" lon="10.927841847600885"><ele>49.0</ele><time>2026-04-19T08:09:34.001Z</time></trkpt><trkpt lat="43.78242789632523" lon="10.92792589788316"><ele>48.5</ele><time>2026-04-19T08:09:37.001Z</time></trkpt><trkpt lat="43.782368191337554" lon="10.927998262733992"><ele>48.0</ele><time>2026-04-19T08:09:40.001Z</time></trkpt><trkpt lat="43.78230685648128" lon="10.928055936576596"><ele>47.5</ele><time>2026-04-19T08:09:43.001Z</time></trkpt><trkpt lat="43.78222110367436" lon="10.928082499177192"><ele>47.0</ele><time>2026-04-19T08:09:46.001Z</time></trkpt><trkpt lat="43.78214071853602" lon="10.928110975690368"><ele>47.0</ele><time>2026-04-19T08:09:49.001Z</time></trkpt><trkpt lat="43.78205954803304" lon="10.92811942287567"><ele>47.0</ele><time>2026-04-19T08:09:52.001Z</time></trkpt><trkpt lat="43.781992168621954" lon="10.928123630438538"><ele>47.0</ele><time>2026-04-19T08:09:54.001Z</time></trkpt><trkpt lat="43.78190494504626" lon="10.928142293638704"><ele>47.0</ele><time>2026-04-19T08:09:57.001Z</time></trkpt><trkpt lat="43.78182743944061" lon="10.928174947886545"><ele>47.0</ele><time>2026-04-19T08:10:00Z</time></trkpt><trkpt lat="43.78175170253967" lon="10.928199170292583"><ele>47.0</ele><time>2026-04-19T08:10:03Z</time></trkpt><trkpt lat="43.78167300179196" lon="10.928228774117875"><ele>47.0</ele><time>2026-04-19T08:10:06Z</time></trkpt><trkpt lat="43.78159613853826" lon="10.928260729971738"><ele>47.0</ele><time>2026-04-19T08:10:09Z</time></trkpt><trkpt lat="43.78152770893122" lon="10.928300923166695"><ele>47.0</ele><time>2026-04-19T08:10:12Z</time></trkpt><trkpt lat="43.78144969774937" lon="10.928338025175908"><ele>47.0</ele><time>2026-04-19T08:10:15Z</time></trkpt><trkpt lat="43.78137361386965" lon="10.928337782847324"><ele>47.0</ele><time>2026-04-19T08:10:18Z</time></trkpt><trkpt lat="43.78130258534773" lon="10.928368166103313"><ele>47.0</ele><time>2026-04-19T08:10:21Z</time></trkpt><trkpt lat="43.78123030906406" lon="10.928391179051655"><ele>46.83333333333333</ele><time>2026-04-19T08:10:24Z</time></trkpt><trkpt lat="43.781150357089274" lon="10.92842592959338"><ele>46.666666666666664</ele><time>2026-04-19T08:10:27Z</time></trkpt><trkpt lat="43.78107525491747" lon="10.928449442848981"><ele>46.5</ele><time>2026-04-19T08:10:30Z</time></trkpt><trkpt lat="43.7809981709284" lon="10.9284822993937"><ele>46.333333333333336</ele><time>2026-04-19T08:10:33Z</time></trkpt><trkpt lat="43.780936049270686" lon="10.928533656073894"><ele>46.16666666666667</ele><time>2026-04-19T08:10:36Z</time></trkpt><trkpt lat="43.78087222302899" lon="10.928583327773183"><ele>46.0</ele><time>2026-04-19T08:10:39Z</time></trkpt><trkpt lat="43.78082039512429" lon="10.92866283523232"><ele>45.85714285714286</ele><time>2026-04-19T08:10:42Z</time></trkpt><trkpt lat="43.78077146236818" lon="10.928734666214872"><ele>45.71428571428571</ele><time>2026-04-19T08:10:45Z</time></trkpt><trkpt lat="43.78072190871522" lon="10.928820824562111"><ele>45.57142857142857</ele><time>2026-04-19T08:10:48.001Z</time></trkpt><trkpt lat="43.780728210037964" lon="10.928907928153391"><ele>45.42857142857143</ele><time>2026-04-19T08:10:50.001Z</time></trkpt><trkpt lat="43.78079370758089" lon="10.92894586502039"><ele>45.28571428571429</ele><time>2026-04-19T08:10:52.001Z</time></trkpt><trkpt lat="43.780866847761864" lon="10.928897749435658"><ele>45.14285714285714</ele><time>2026-04-19T08:10:55.001Z</time></trkpt><trkpt lat="43.78093832193208" lon="10.928905230051273"><ele>45.0</ele><time>2026-04-19T08:10:58.001Z</time></trkpt><trkpt lat="43.78101578675193" lon="10.928930017929206"><ele>45.14285714285714</ele><time>2026-04-19T08:11:01.001Z</time></trkpt><trkpt lat="43.781084386709324" lon="10.928958358685767"><ele>45.28571428571429</ele><time>2026-04-19T08:11:04.001Z</time></trkpt><trkpt lat="43.78115459971936" lon="10.928959516990297"><ele>45.42857142857143</ele><time>2026-04-19T08:11:07.001Z</time></trkpt><trkpt lat="43.78122183849405" lon="10.928993090731343"><ele>45.57142857142857</ele><time>2026-04-19T08:11:10.001Z</time></trkpt><trkpt lat="43.7812862774471" lon="10.92900984603099"><ele>45.71428571428571</ele><time>2026-04-19T08:11:13.001Z</time></trkpt><trkpt lat="43.78135395775748" lon="10.929047438451214"><ele>45.85714285714286</ele><time>2026-04-19T08:11:16.001Z</time></trkpt><trkpt lat="43.78141575182657" lon="10.92910986122156"><ele>46.0</ele><time>2026-04-19T08:11:19.001Z</time></trkpt><trkpt lat="43.78145273900136" lon="10.929204597245551"><ele>46.285714285714285</ele><time>2026-04-19T08:11:22.001Z</time></trkpt><trkpt lat="43.781481935301926" lon="10.929295570185138"><ele>46.57142857142857</ele><time>2026-04-19T08:11:25.001Z</time></trkpt><trkpt lat="43.78151810796806" lon="10.929370230943082"><ele>46.857142857142854</ele><time>2026-04-19T08:11:28.001Z</time></trkpt><trkpt lat="43.78155022653229" lon="10.929459021880511"><ele>47.14285714285714</ele><time>2026-04-19T08:11:31.001Z</time></trkpt><trkpt lat="43.78158338105561" lon="10.929544184174851"><ele>47.42857142857143</ele><time>2026-04-19T08:11:34.001Z</time></trkpt><trkpt lat="43.78162306794027" lon="10.929627933215711"><ele>47.71428571428571</ele><time>2026-04-19T08:11:37Z</time></trkpt><trkpt lat="43.78168393242564" lon="10.929688426381999"><ele>48.0</ele><time>2026-04-19T08:11:40Z</time></trkpt><trkpt lat="43.78174842612151" lon="10.929747484985022"><ele>47.99999999999999</ele><time>2026-04-19T08:11:43Z</time></trkpt><trkpt lat="43.78180216296854" lon="10.92980082370975"><ele>48.0</ele><time>2026-04-19T08:11:46Z</time></trkpt><trkpt lat="43.78186824672202" lon="10.929857187699511"><ele>48.0</ele><time>2026-04-19T08:11:49Z</time></trkpt><trkpt lat="43.7819184817348" lon="10.929930179578964"><ele>48.0</ele><time>2026-04-19T08:11:52Z</time></trkpt><trkpt lat="43.781967312134796" lon="10.930026626479512"><ele>48.0</ele><time>2026-04-19T08:11:56Z</time></trkpt><trkpt lat="43.78200598492102" lon="10.930104985718334"><ele>47.99999999999999</ele><time>2026-04-19T08:11:59Z</time></trkpt><trkpt lat="43.78202753111251" lon="10.930195147604296"><ele>48.0</ele><time>2026-04-19T08:12:02Z</time></trkpt><trkpt lat="43.78205878507385" lon="10.930277642695295"><ele>47.99999999999999</ele><time>2026-04-19T08:12:05Z</time></trkpt><trkpt lat="43.7820805839018" lon="10.930372641203281"><ele>48.0</ele><time>2026-04-19T08:12:08Z</time></trkpt><trkpt lat="43.78210484284525" lon="10.930479738184628"><ele>48.0</ele><time>2026-04-19T08:12:12Z</time></trkpt><trkpt lat="43.78209773632419" lon="10.930587656468791"><ele>48.0</ele><time>2026-04-19T08:12:15Z</time></trkpt><trkpt lat="43.78211678944048" lon="10.930682240613793"><ele>48.0</ele><time>2026-04-19T08:12:18Z</time></trkpt><trkpt lat="43.78215647139856" lon="10.930771447531924"><ele>47.99999999999999</ele><time>2026-04-19T08:12:21Z</time></trkpt><trkpt lat="43.782204172550465" lon="10.930844348840303"><ele>48.0</ele><time>2026-04-19T08:12:24Z</time></trkpt><trkpt lat="43.78224970722835" lon="10.93092466596332"><ele>47.99999999999999</ele><time>2026-04-19T08:12:27Z</time></trkpt><trkpt lat="43.78229815123128" lon="10.93101162998996"><ele>48.0</ele><time>2026-04-19T08:12:30Z</time></trkpt><trkpt lat="43.7823525217954" lon="10.931072191856828"><ele>48.0</ele><time>2026-04-19T08:12:33Z</time></trkpt><trkpt lat="43.78241583225928" lon="10.9310960776283"><ele>48.0</ele><time>2026-04-19T08:12:36Z</time></trkpt><trkpt lat="43.7824788504037" lon="10.931127385605098"><ele>48.0</ele><time>2026-04-19T08:12:39Z</time></trkpt><trkpt lat="43.78254164014846" lon="10.931184931646971"><ele>47.99999999999999</ele><time>2026-04-19T08:12:42Z</time></trkpt><trkpt lat="43.78258914617679" lon="10.93126363726965"><ele>48.0</ele><time>2026-04-19T08:12:45Z</time></trkpt><trkpt lat="43.78262729646039" lon="10.93135096581891"><ele>47.99999999999999</ele><time>2026-04-19T08:12:48Z</time></trkpt><trkpt lat="43.78267642138986" lon="10.931418213278612"><ele>48.0</ele><time>2026-04-19T08:12:51Z</time></trkpt><trkpt lat="43.78271389673305" lon="10.931500415701915"><ele>48.0</ele><time>2026-04-19T08:12:54.001Z</time></trkpt><trkpt lat="43.78276488691279" lon="10.931579759164043"><ele>48.0</ele><time>2026-04-19T08:12:57.001Z</time></trkpt><trkpt lat="43.7828233677525" lon="10.9316535053467"><ele>48.0</ele><time>2026-04-19T08:13:00.001Z</time></trkpt><trkpt lat="43.78288673374057" lon="10.931709996950165"><ele>47.99999999999999</ele><time>2026-04-19T08:13:03.001Z</time></trkpt><trkpt lat="43.782942115141715" lon="10.93176237701255"><ele>48.0</ele><time>2026-04-19T08:13:06.001Z</time></trkpt><trkpt lat="43.783001536511456" lon="10.931815613609581"><ele>48.666666666666664</ele><time>2026-04-19T08:13:09.001Z</time></trkpt><trkpt lat="43.783065612064426" lon="10.931861737579588"><ele>49.33333333333333</ele><time>2026-04-19T08:13:12.001Z</time></trkpt><trkpt lat="43.78312841296367" lon="10.93192308328737"><ele>50.0</ele><time>2026-04-19T08:13:15.001Z</time></trkpt><trkpt lat="43.78318472544744" lon="10.93198731874341"><ele>50.666666666666664</ele><time>2026-04-19T08:13:18.001Z</time></trkpt><trkpt lat="43.7832440591638" lon="10.932053233383868"><ele>51.33333333333333</ele><time>2026-04-19T08:13:21.001Z</time></trkpt><trkpt lat="43.78329978582056" lon="10.93211839612084"><ele>52.0</ele><time>2026-04-19T08:13:24.001Z</time></trkpt><trkpt lat="43.78336039721162" lon="10.932192539602527"><ele>51.99999999999999</ele><time>2026-04-19T08:13:27.001Z</time></trkpt><trkpt lat="43.783435274364884" lon="10.932229261101384"><ele>52.0</ele><time>2026-04-19T08:13:30.001Z</time></trkpt><trkpt lat="43.78350396270374" lon="10.932262872034622"><ele>52.0</ele><time>2026-04-19T08:13:33Z</time></trkpt><trkpt lat="43.783578670740724" lon="10.932298519890065"><ele>52.0</ele><time>2026-04-19T08:13:36Z</time></trkpt><trkpt lat="43.78365118347389" lon="10.932325131058864"><ele>51.99999999999999</ele><time>2026-04-19T08:13:39Z</time></trkpt><trkpt lat="43.783725642286356" lon="10.932338550822442"><ele>52.0</ele><time>2026-04-19T08:13:42Z</time></trkpt><trkpt lat="43.78380409955017" lon="10.932357341271112"><ele>52.49999999999999</ele><time>2026-04-19T08:13:45Z</time></trkpt><trkpt lat="43.78387982865059" lon="10.932360720032065"><ele>53.0</ele><time>2026-04-19T08:13:48Z</time></trkpt><trkpt lat="43.7839591209643" lon="10.932406733695995"><ele>53.5</ele><time>2026-04-19T08:13:51Z</time></trkpt><trkpt lat="43.78402831133784" lon="10.932455977462686"><ele>54.0</ele><time>2026-04-19T08:13:54Z</time></trkpt><trkpt lat="43.784091423066315" lon="10.932499707654884"><ele>54.49999999999999</ele><time>2026-04-19T08:13:57Z</time></trkpt><trkpt lat="43.78415478355335" lon="10.932560721762805"><ele>55.0</ele><time>2026-04-19T08:14:00Z</time></trkpt><trkpt lat="43.784208351373245" lon="10.932637866442551"><ele>54.99999999999999</ele><time>2026-04-19T08:14:03Z</time></trkpt><trkpt lat="43.78425632266219" lon="10.932717318368512"><ele>55.0</ele><time>2026-04-19T08:14:06Z</time></trkpt><trkpt lat="43.78431341832068" lon="10.932787803460275"><ele>55.0</ele><time>2026-04-19T08:14:09Z</time></trkpt><trkpt lat="43.784359736829565" lon="10.93286473713271"><ele>55.0</ele><time>2026-04-19T08:14:12Z</time></trkpt><trkpt lat="43.78440837689396" lon="10.932944878966001"><ele>55.0</ele><time>2026-04-19T08:14:15Z</time></trkpt><trkpt lat="43.78445504640783" lon="10.933022501543135"><ele>54.99999999999999</ele><time>2026-04-19T08:14:18Z</time></trkpt><trkpt lat="43.78450947288734" lon="10.933092835470866"><ele>55.0</ele><time>2026-04-19T08:14:21Z</time></trkpt><trkpt lat="43.78456333232368" lon="10.933151893120883"><ele>54.857142857142854</ele><time>2026-04-19T08:14:24Z</time></trkpt><trkpt lat="43.78462264108656" lon="10.933205534430337"><ele>54.714285714285715</ele><time>2026-04-19T08:14:27Z</time></trkpt><trkpt lat="43.784677717286115" lon="10.933277592598525"><ele>54.57142857142857</ele><time>2026-04-19T08:14:30Z</time></trkpt><trkpt lat="43.784739052922134" lon="10.93333413647441"><ele>54.42857142857143</ele><time>2026-04-19T08:14:33Z</time></trkpt><trkpt lat="43.78480335963311" lon="10.933369985798436"><ele>54.285714285714285</ele><time>2026-04-19T08:14:36Z</time></trkpt><trkpt lat="43.78487293388462" lon="10.933387852449506"><ele>54.14285714285714</ele><time>2026-04-19T08:14:39Z</time></trkpt><trkpt lat="43.78493447426934" lon="10.93343342741779"><ele>54.0</ele><time>2026-04-19T08:14:42Z</time></trkpt><trkpt lat="43.78500375888092" lon="10.933462674168458"><ele>54.0</ele><time>2026-04-19T08:14:45Z</time></trkpt><trkpt lat="43.785051159555685" lon="10.933521868657593"><ele>54.0</ele><time>2026-04-19T08:14:48Z</time></trkpt><trkpt lat="43.785104200877775" lon="10.933578516762259"><ele>54.0</ele><time>2026-04-19T08:14:51Z</time></trkpt><trkpt lat="43.78515726959148" lon="10.933650898634438"><ele>54.0</ele><time>2026-04-19T08:14:55Z</time></trkpt><trkpt lat="43.78520237586431" lon="10.933720142799865"><ele>54.0</ele><time>2026-04-19T08:14:59.001Z</time></trkpt><trkpt lat="43.78525552665514" lon="10.933777768480212"><ele>54.0</ele><time>2026-04-19T08:15:04.001Z</time></trkpt><trkpt lat="43.78529874260616" lon="10.933854592114757"><ele>54.0</ele><time>2026-04-19T08:15:10.001Z</time></trkpt><trkpt lat="43.78535081339029" lon="10.933935901006993"><ele>54.42857142857143</ele><time>2026-04-19T08:15:16.001Z</time></trkpt><trkpt lat="43.78540985014596" lon="10.933975398404993"><ele>54.857142857142854</ele><time>2026-04-19T08:15:20.001Z</time></trkpt><trkpt lat="43.78545979912878" lon="10.93402937903364"><ele>55.285714285714285</ele><time>2026-04-19T08:15:24.001Z</time></trkpt><trkpt lat="43.785516236278625" lon="10.93410598206716"><ele>55.71428571428571</ele><time>2026-04-19T08:15:29Z</time></trkpt><trkpt lat="43.78555458709328" lon="10.9341886892733"><ele>56.14285714285714</ele><time>2026-04-19T08:15:34Z</time></trkpt><trkpt lat="43.78560844902404" lon="10.934244636576025"><ele>56.57142857142857</ele><time>2026-04-19T08:15:39Z</time></trkpt><trkpt lat="43.78567420491454" lon="10.934294642065126"><ele>57.0</ele><time>2026-04-19T08:15:45Z</time></trkpt><trkpt lat="43.785734650824594" lon="10.934336006578327"><ele>58.57142857142857</ele><time>2026-04-19T08:15:51Z</time></trkpt><trkpt lat="43.78577363941873" lon="10.934427848615181"><ele>60.14285714285714</ele><time>2026-04-19T08:15:57Z</time></trkpt><trkpt lat="43.78575200214768" lon="10.934510196525961"><ele>61.71428571428571</ele><time>2026-04-19T08:16:02Z</time></trkpt><trkpt lat="43.785767375320965" lon="10.934607808475707"><ele>63.28571428571428</ele><time>2026-04-19T08:16:08Z</time></trkpt><trkpt lat="43.785780032830154" lon="10.934699165442067"><ele>64.85714285714286</ele><time>2026-04-19T08:16:12Z</time></trkpt><trkpt lat="43.785799379655465" lon="10.934785781415108"><ele>66.42857142857142</ele><time>2026-04-19T08:16:18Z</time></trkpt><trkpt lat="43.78581932456166" lon="10.934869603422356"><ele>68.0</ele><time>2026-04-19T08:16:25Z</time></trkpt><trkpt lat="43.785850328991415" lon="10.934960335957326"><ele>67.99999999999999</ele><time>2026-04-19T08:16:32Z</time></trkpt><trkpt lat="43.78587759786582" lon="10.935054040221816"><ele>68.0</ele><time>2026-04-19T08:16:38Z</time></trkpt><trkpt lat="43.785904774200894" lon="10.935151256582975"><ele>68.0</ele><time>2026-04-19T08:16:45Z</time></trkpt><trkpt lat="43.78593001842853" lon="10.935254425905265"><ele>68.0</ele><time>2026-04-19T08:16:52Z</time></trkpt><trkpt lat="43.785953688036514" lon="10.935335410691108"><ele>68.0</ele><time>2026-04-19T08:16:55.999Z</time></trkpt><trkpt lat="43.78595342288432" lon="10.93544016062868"><ele>67.99999999999999</ele><time>2026-04-19T08:17:01.999Z</time></trkpt><trkpt lat="43.7859570503234" lon="10.935532165646913"><ele>68.0</ele><time>2026-04-19T08:17:07.001Z</time></trkpt><trkpt lat="43.78595926648531" lon="10.935630886969829"><ele>69.33333333333334</ele><time>2026-04-19T08:17:12.001Z</time></trkpt><trkpt lat="43.78597073750858" lon="10.935725568437299"><ele>70.66666666666667</ele><time>2026-04-19T08:17:16.001Z</time></trkpt><trkpt lat="43.78598881856472" lon="10.935822504441438"><ele>72.0</ele><time>2026-04-19T08:17:21.001Z</time></trkpt><trkpt lat="43.78601110534762" lon="10.935929167579596"><ele>73.33333333333333</ele><time>2026-04-19T08:17:27Z</time></trkpt><trkpt lat="43.78602798732041" lon="10.936032439608601"><ele>74.66666666666666</ele><time>2026-04-19T08:17:31Z</time></trkpt><trkpt lat="43.78604566541918" lon="10.936135854794617"><ele>76.0</ele><time>2026-04-19T08:17:35Z</time></trkpt><trkpt lat="43.7860765275353" lon="10.93623198043795"><ele>76.42857142857143</ele><time>2026-04-19T08:17:39Z</time></trkpt><trkpt lat="43.78610176398846" lon="10.93633827809854"><ele>76.85714285714286</ele><time>2026-04-19T08:17:43Z</time></trkpt><trkpt lat="43.78613951191937" lon="10.936425253342666"><ele>77.28571428571429</ele><time>2026-04-19T08:17:47Z</time></trkpt><trkpt lat="43.786178913196764" lon="10.936505566147744"><ele>77.71428571428572</ele><time>2026-04-19T08:17:51Z</time></trkpt><trkpt lat="43.786195280615004" lon="10.936591369534106"><ele>78.14285714285714</ele><time>2026-04-19T08:17:55Z</time></trkpt><trkpt lat="43.7862215266538" lon="10.936685221028801"><ele>78.57142857142858</ele><time>2026-04-19T08:18:00Z</time></trkpt><trkpt lat="43.78625591970926" lon="10.936776542522514"><ele>79.0</ele><time>2026-04-19T08:18:06Z</time></trkpt><trkpt lat="43.78626564201811" lon="10.936864887182555"><ele>80.42857142857143</ele><time>2026-04-19T08:18:11Z</time></trkpt><trkpt lat="43.78627884657371" lon="10.936960047189082"><ele>81.85714285714286</ele><time>2026-04-19T08:18:15Z</time></trkpt><trkpt lat="43.7862992992692" lon="10.93705174131079"><ele>83.28571428571428</ele><time>2026-04-19T08:18:20Z</time></trkpt><trkpt lat="43.78629849028548" lon="10.93715855700774"><ele>84.71428571428572</ele><time>2026-04-19T08:18:25Z</time></trkpt><trkpt lat="43.78630706630384" lon="10.937246062671163"><ele>86.14285714285714</ele><time>2026-04-19T08:18:29Z</time></trkpt><trkpt lat="43.78632031735544" lon="10.937333795496968"><ele>87.57142857142857</ele><time>2026-04-19T08:18:35Z</time></trkpt><trkpt lat="43.78634036599888" lon="10.937417189235658"><ele>89.0</ele><time>2026-04-19T08:18:39Z</time></trkpt><trkpt lat="43.786346801038704" lon="10.937514372798947"><ele>90.83333333333334</ele><time>2026-04-19T08:18:44Z</time></trkpt><trkpt lat="43.786362557489944" lon="10.937603817256745"><ele>92.66666666666667</ele><time>2026-04-19T08:18:49Z</time></trkpt><trkpt lat="43.78640427217164" lon="10.937705974928067"><ele>94.5</ele><time>2026-04-19T08:18:53.999Z</time></trkpt><trkpt lat="43.786453310657585" lon="10.937794341764517"><ele>96.33333333333334</ele><time>2026-04-19T08:18:57.999Z</time></trkpt><trkpt lat="43.78649964676992" lon="10.937882576020307"><ele>98.16666666666667</ele><time>2026-04-19T08:19:02.999Z</time></trkpt><trkpt lat="43.78655908565251" lon="10.9379485023709"><ele>100.0</ele><time>2026-04-19T08:19:06.999Z</time></trkpt><trkpt lat="43.78659707118282" lon="10.938019800787897"><ele>100.00000000000001</ele><time>2026-04-19T08:19:11.001Z</time></trkpt><trkpt lat="43.786640374414226" lon="10.938104411898479"><ele>100.0</ele><time>2026-04-19T08:19:16.001Z</time></trkpt><trkpt lat="43.78667330524185" lon="10.938181323676217"><ele>100.0</ele><time>2026-04-19T08:19:20.001Z</time></trkpt><trkpt lat="43.78670594261098" lon="10.938274471773543"><ele>100.0</ele><time>2026-04-19T08:19:25.001Z</time></trkpt><trkpt lat="43.78674656486472" lon="10.938364938004113"><ele>100.0</ele><time>2026-04-19T08:19:30Z</time></trkpt><trkpt lat="43.78677275550193" lon="10.938465259580033"><ele>100.00000000000001</ele><time>2026-04-19T08:19:35Z</time></trkpt><trkpt lat="43.7868044235308" lon="10.938559732089388"><ele>100.0</ele><time>2026-04-19T08:19:40Z</time></trkpt><trkpt lat="43.78682675370347" lon="10.938662072040781"><ele>100.42857142857143</ele><time>2026-04-19T08:19:45Z</time></trkpt><trkpt lat="43.78683683215109" lon="10.938750157208574"><ele>100.85714285714286</ele><time>2026-04-19T08:19:49Z</time></trkpt><trkpt lat="43.78684012462746" lon="10.93884445251432"><ele>101.28571428571428</ele><time>2026-04-19T08:19:53Z</time></trkpt><trkpt lat="43.78683955864661" lon="10.938937366200502"><ele>101.71428571428572</ele><time>2026-04-19T08:19:57Z</time></trkpt><trkpt lat="43.78685083017181" lon="10.939024347467393"><ele>102.14285714285714</ele><time>2026-04-19T08:20:01Z</time></trkpt><trkpt lat="43.78686723282015" lon="10.939114823359143"><ele>102.57142857142857</ele><time>2026-04-19T08:20:05Z</time></trkpt><trkpt lat="43.78686586397123" lon="10.939222058413096"><ele>103.0</ele><time>2026-04-19T08:20:10Z</time></trkpt><trkpt lat="43.7868751944779" lon="10.939315474101482"><ele>104.57142857142856</ele><time>2026-04-19T08:20:15Z</time></trkpt><trkpt lat="43.786881742592165" lon="10.939418517099863"><ele>106.14285714285714</ele><time>2026-04-19T08:20:20Z</time></trkpt><trkpt lat="43.7868971313028" lon="10.939504578786947"><ele>107.71428571428571</ele><time>2026-04-19T08:20:24Z</time></trkpt><trkpt lat="43.786912304008446" lon="10.939599518124014"><ele>109.28571428571428</ele><time>2026-04-19T08:20:28Z</time></trkpt><trkpt lat="43.78691470358316" lon="10.939696032395634"><ele>110.85714285714285</ele><time>2026-04-19T08:20:32Z</time></trkpt><trkpt lat="43.78694593631659" lon="10.93978829214312"><ele>112.42857142857142</ele><time>2026-04-19T08:20:36Z</time></trkpt><trkpt lat="43.78698479573226" lon="10.939864543704608"><ele>114.0</ele><time>2026-04-19T08:20:40Z</time></trkpt><trkpt lat="43.78701616586732" lon="10.939950110366912"><ele>116.28571428571428</ele><time>2026-04-19T08:20:44Z</time></trkpt><trkpt lat="43.78702814550962" lon="10.940051369784753"><ele>118.57142857142856</ele><time>2026-04-19T08:20:48Z</time></trkpt><trkpt lat="43.78705690625989" lon="10.940129707246786"><ele>120.85714285714286</ele><time>2026-04-19T08:20:52.999Z</time></trkpt><trkpt lat="43.78708746190797" lon="10.940220851912164"><ele>123.14285714285714</ele><time>2026-04-19T08:20:56.999Z</time></trkpt><trkpt lat="43.78711389428854" lon="10.940305858928436"><ele>125.42857142857143</ele><time>2026-04-19T08:21:00.999Z</time></trkpt><trkpt lat="43.78714627396261" lon="10.940381470378917"><ele>127.71428571428572</ele><time>2026-04-19T08:21:04.999Z</time></trkpt><trkpt lat="43.787182074578865" lon="10.940462966665093"><ele>130.0</ele><time>2026-04-19T08:21:10.999Z</time></trkpt><trkpt lat="43.78721294905725" lon="10.940543709455056"><ele>130.00000000000003</ele><time>2026-04-19T08:21:16Z</time></trkpt><trkpt lat="43.78723383374545" lon="10.940628519204903"><ele>130.0</ele><time>2026-04-19T08:21:22Z</time></trkpt><trkpt lat="43.787260042704915" lon="10.940708579806643"><ele>130.0</ele><time>2026-04-19T08:21:28Z</time></trkpt><trkpt lat="43.7872914080413" lon="10.940793102789602"><ele>130.0</ele><time>2026-04-19T08:21:35Z</time></trkpt><trkpt lat="43.787341330368506" lon="10.940849851367785"><ele>130.0</ele><time>2026-04-19T08:21:41Z</time></trkpt><trkpt lat="43.78738130966166" lon="10.940921762632053"><ele>130.00000000000003</ele><time>2026-04-19T08:21:48Z</time></trkpt><trkpt lat="43.78742278914345" lon="10.941009474586817"><ele>130.0</ele><time>2026-04-19T08:21:54Z</time></trkpt><trkpt lat="43.787473012509246" lon="10.941066977853081"><ele>130.42857142857144</ele><time>2026-04-19T08:22:01Z</time></trkpt><trkpt lat="43.78753105990451" lon="10.941117864206944"><ele>130.85714285714286</ele><time>2026-04-19T08:22:08Z</time></trkpt><trkpt lat="43.78759170006067" lon="10.941142869626272"><ele>131.28571428571428</ele><time>2026-04-19T08:22:14Z</time></trkpt><trkpt lat="43.78765300810836" lon="10.94117529480484"><ele>131.71428571428572</ele><time>2026-04-19T08:22:19.999Z</time></trkpt><trkpt lat="43.78771549204418" lon="10.941209423346129"><ele>132.14285714285714</ele><time>2026-04-19T08:22:25.999Z</time></trkpt><trkpt lat="43.78777922961126" lon="10.94125908621561"><ele>132.57142857142858</ele><time>2026-04-19T08:22:31.999Z</time></trkpt><trkpt lat="43.78783916742031" lon="10.941295470486503"><ele>133.0</ele><time>2026-04-19T08:22:36.999Z</time></trkpt><trkpt lat="43.78789866942098" lon="10.941331673725559"><ele>134.85714285714286</ele><time>2026-04-19T08:22:41.999Z</time></trkpt><trkpt lat="43.787959776298905" lon="10.941395613851652"><ele>136.71428571428572</ele><time>2026-04-19T08:22:47.999Z</time></trkpt><trkpt lat="43.788027377833735" lon="10.941445326414854"><ele>138.57142857142856</ele><time>2026-04-19T08:22:52.999Z</time></trkpt><trkpt lat="43.78808775227055" lon="10.941484455419756"><ele>140.42857142857144</ele><time>2026-04-19T08:22:57.998Z</time></trkpt><trkpt lat="43.788145310066334" lon="10.941537392298493"><ele>142.28571428571428</ele><time>2026-04-19T08:23:03.998Z</time></trkpt><trkpt lat="43.788196187480274" lon="10.941589872989626"><ele>144.14285714285714</ele><time>2026-04-19T08:23:07.998Z</time></trkpt><trkpt lat="43.78824070868998" lon="10.941659468624112"><ele>146.0</ele><time>2026-04-19T08:23:12.998Z</time></trkpt><trkpt lat="43.78829615116663" lon="10.94173907449417"><ele>146.42857142857142</ele><time>2026-04-19T08:23:17.998Z</time></trkpt><trkpt lat="43.78835059585346" lon="10.941811241055007"><ele>146.85714285714286</ele><time>2026-04-19T08:23:21.999Z</time></trkpt><trkpt lat="43.78840240260499" lon="10.941870822539112"><ele>147.28571428571428</ele><time>2026-04-19T08:23:25.999Z</time></trkpt><trkpt lat="43.78843850292266" lon="10.941952269596136"><ele>147.71428571428572</ele><time>2026-04-19T08:23:29.999Z</time></trkpt><trkpt lat="43.78847021725302" lon="10.942051276190806"><ele>148.14285714285714</ele><time>2026-04-19T08:23:33.999Z</time></trkpt><trkpt lat="43.78852931906149" lon="10.94208309265517"><ele>148.57142857142856</ele><time>2026-04-19T08:23:37.999Z</time></trkpt><trkpt lat="43.78859493464198" lon="10.942132882104145"><ele>149.0</ele><time>2026-04-19T08:23:42.999Z</time></trkpt><trkpt lat="43.7886506284136" lon="10.942196408377736"><ele>150.42857142857142</ele><time>2026-04-19T08:23:49.999Z</time></trkpt><trkpt lat="43.78869504239132" lon="10.942268095423277"><ele>151.85714285714283</ele><time>2026-04-19T08:23:55.999Z</time></trkpt><trkpt lat="43.788721318273595" lon="10.942350556938"><ele>153.28571428571428</ele><time>2026-04-19T08:24:01.999Z</time></trkpt><trkpt lat="43.78876194530128" lon="10.942419698581423"><ele>154.71428571428572</ele><time>2026-04-19T08:24:05.999Z</time></trkpt><trkpt lat="43.78880026137797" lon="10.942497915918437"><ele>156.14285714285717</ele><time>2026-04-19T08:24:09.999Z</time></trkpt><trkpt lat="43.78884220131959" lon="10.942564291250239"><ele>157.57142857142856</ele><time>2026-04-19T08:24:14.999Z</time></trkpt><trkpt lat="43.78888743743088" lon="10.942648191215017"><ele>159.0</ele><time>2026-04-19T08:24:20.999Z</time></trkpt><trkpt lat="43.78892235111934" lon="10.94273543940966"><ele>160.28571428571428</ele><time>2026-04-19T08:24:25.999Z</time></trkpt><trkpt lat="43.78896120118337" lon="10.942815219304702"><ele>161.57142857142858</ele><time>2026-04-19T08:24:31.999Z</time></trkpt><trkpt lat="43.78898882316779" lon="10.94289556460418"><ele>162.85714285714286</ele><time>2026-04-19T08:24:36.999Z</time></trkpt><trkpt lat="43.789029114462025" lon="10.942979411326306"><ele>164.14285714285714</ele><time>2026-04-19T08:24:41.999Z</time></trkpt><trkpt lat="43.78905737999448" lon="10.943057527855574"><ele>165.42857142857144</ele><time>2026-04-19T08:24:45.999Z</time></trkpt><trkpt lat="43.78908914274426" lon="10.943151580727937"><ele>166.71428571428572</ele><time>2026-04-19T08:24:50.999Z</time></trkpt><trkpt lat="43.789108887559145" lon="10.943241245712345"><ele>168.0</ele><time>2026-04-19T08:24:55.999Z</time></trkpt><trkpt lat="43.78913234474443" lon="10.94333564614613"><ele>169.57142857142858</ele><time>2026-04-19T08:25:02.998Z</time></trkpt><trkpt lat="43.78916409388183" lon="10.943426410523298"><ele>171.14285714285714</ele><time>2026-04-19T08:25:09.998Z</time></trkpt><trkpt lat="43.789197094150985" lon="10.94351346118644"><ele>172.71428571428572</ele><time>2026-04-19T08:25:15.998Z</time></trkpt><trkpt lat="43.78924371702901" lon="10.943592447991369"><ele>174.28571428571428</ele><time>2026-04-19T08:25:20.998Z</time></trkpt><trkpt lat="43.789272764569276" lon="10.943672017925305"><ele>175.85714285714286</ele><time>2026-04-19T08:25:25.998Z</time></trkpt><trkpt lat="43.78928972837203" lon="10.943769060228979"><ele>177.42857142857144</ele><time>2026-04-19T08:25:31.999Z</time></trkpt><trkpt lat="43.78930760341035" lon="10.9438566348263"><ele>179.0</ele><time>2026-04-19T08:25:38.999Z</time></trkpt><trkpt lat="43.7893194484336" lon="10.943960857027486"><ele>179.00000000000003</ele><time>2026-04-19T08:25:44.999Z</time></trkpt><trkpt lat="43.78930712531731" lon="10.9440541824111"><ele>179.0</ele><time>2026-04-19T08:25:52.999Z</time></trkpt><trkpt lat="43.78931568793322" lon="10.944147124756562"><ele>179.0</ele><time>2026-04-19T08:25:58.999Z</time></trkpt><trkpt lat="43.78931051206679" lon="10.944235762722547"><ele>179.0</ele><time>2026-04-19T08:26:05.999Z</time></trkpt><trkpt lat="43.789328709003364" lon="10.944320004021296"><ele>179.0</ele><time>2026-04-19T08:26:11.999Z</time></trkpt><trkpt lat="43.78932765872294" lon="10.944412968557998"><ele>179.00000000000003</ele><time>2026-04-19T08:26:17.999Z</time></trkpt><trkpt lat="43.78933309247872" lon="10.94450859844897"><ele>179.0</ele><time>2026-04-19T08:26:22.999Z</time></trkpt><trkpt lat="43.789334052662724" lon="10.944612323342628"><ele>182.00000000000003</ele><time>2026-04-19T08:26:30.999Z</time></trkpt><trkpt lat="43.78938938905925" lon="10.944660388305152"><ele>185.0</ele><time>2026-04-19T08:26:36.999Z</time></trkpt><trkpt lat="43.789456718773046" lon="10.944624276403772"><ele>188.0</ele><time>2026-04-19T08:26:43.999Z</time></trkpt><trkpt lat="43.789520834304376" lon="10.944665284839246"><ele>191.0</ele><time>2026-04-19T08:26:49.999Z</time></trkpt><trkpt lat="43.789569544962205" lon="10.944726140980874"><ele>194.0</ele><time>2026-04-19T08:26:56.999Z</time></trkpt><trkpt lat="43.789617207958415" lon="10.944785012848731"><ele>197.00000000000003</ele><time>2026-04-19T08:27:02.999Z</time></trkpt><trkpt lat="43.78965741483246" lon="10.94486106986962"><ele>200.0</ele><time>2026-04-19T08:27:09.999Z</time></trkpt><trkpt lat="43.7896849309781" lon="10.944942391337099"><ele>200.00000000000003</ele><time>2026-04-19T08:27:15.998Z</time></trkpt><trkpt lat="43.7897449434882" lon="10.944988595455884"><ele>200.0</ele><time>2026-04-19T08:27:21.998Z</time></trkpt><trkpt lat="43.78979025343436" lon="10.945053316793178"><ele>200.0</ele><time>2026-04-19T08:27:30.998Z</time></trkpt><trkpt lat="43.78985494228352" lon="10.945095159989316"><ele>200.0</ele><time>2026-04-19T08:27:37.999Z</time></trkpt><trkpt lat="43.789906250637" lon="10.945148718244393"><ele>200.0</ele><time>2026-04-19T08:27:44.999Z</time></trkpt><trkpt lat="43.7899578541743" lon="10.945204496037977"><ele>200.00000000000003</ele><time>2026-04-19T08:27:50.999Z</time></trkpt><trkpt lat="43.79001753123832" lon="10.945266576781318"><ele>200.0</ele><time>2026-04-19T08:27:56.999Z</time></trkpt><trkpt lat="43.79007794454084" lon="10.9453142678903"><ele>201.14285714285717</ele><time>2026-04-19T08:28:01.999Z</time></trkpt><trkpt lat="43.790129504832265" lon="10.94536499154219"><ele>202.28571428571428</ele><time>2026-04-19T08:28:07.999Z</time></trkpt><trkpt lat="43.79019195069646" lon="10.94544146985331"><ele>203.42857142857144</ele><time>2026-04-19T08:28:11.999Z</time></trkpt><trkpt lat="43.790252111248975" lon="10.945508295244572"><ele>204.57142857142858</ele><time>2026-04-19T08:28:15.999Z</time></trkpt><trkpt lat="43.79031306654305" lon="10.945575642975426"><ele>205.71428571428572</ele><time>2026-04-19T08:28:19.999Z</time></trkpt><trkpt lat="43.79036683239373" lon="10.945633557516135"><ele>206.85714285714286</ele><time>2026-04-19T08:28:23.999Z</time></trkpt><trkpt lat="43.79042288969528" lon="10.945686270090757"><ele>208.0</ele><time>2026-04-19T08:28:28.999Z</time></trkpt><trkpt lat="43.79045520353248" lon="10.945773889375268"><ele>208.0</ele><time>2026-04-19T08:28:36.999Z</time></trkpt><trkpt lat="43.7904990649971" lon="10.945853295439997"><ele>208.0</ele><time>2026-04-19T08:28:44.999Z</time></trkpt><trkpt lat="43.790534741325324" lon="10.945925307552116"><ele>208.0</ele><time>2026-04-19T08:28:49.999Z</time></trkpt><trkpt lat="43.79055679370613" lon="10.946023758067325"><ele>208.0</ele><time>2026-04-19T08:28:54.999Z</time></trkpt><trkpt lat="43.790552917209" lon="10.946111896222973"><ele>208.0</ele><time>2026-04-19T08:28:59.999Z</time></trkpt><trkpt lat="43.7905581714192" lon="10.946209713319353"><ele>208.0</ele><time>2026-04-19T08:29:05.999Z</time></trkpt><trkpt lat="43.790565068933084" lon="10.946308654498567"><ele>208.0</ele><time>2026-04-19T08:29:11.999Z</time></trkpt><trkpt lat="43.79056063187442" lon="10.946395701206125"><ele>210.57142857142856</ele><time>2026-04-19T08:29:16.999Z</time></trkpt><trkpt lat="43.790568573636435" lon="10.946486082390118"><ele>213.14285714285717</ele><time>2026-04-19T08:29:21.998Z</time></trkpt><trkpt lat="43.7905912652385" lon="10.94658213654454"><ele>215.71428571428572</ele><time>2026-04-19T08:29:26.998Z</time></trkpt><trkpt lat="43.790611252372344" lon="10.946686832441577"><ele>218.28571428571428</ele><time>2026-04-19T08:29:30.998Z</time></trkpt><trkpt lat="43.79065763786449" lon="10.946774957842637"><ele>220.85714285714283</ele><time>2026-04-19T08:29:35.998Z</time></trkpt><trkpt lat="43.79067965875492" lon="10.946868574785146"><ele>223.42857142857144</ele><time>2026-04-19T08:29:41.999Z</time></trkpt><trkpt lat="43.7907148296167" lon="10.946959536182325"><ele>226.0</ele><time>2026-04-19T08:29:45.999Z</time></trkpt><trkpt lat="43.79074602989948" lon="10.947055121014962"><ele>227.14285714285717</ele><time>2026-04-19T08:29:50.999Z</time></trkpt><trkpt lat="43.79076366990649" lon="10.947140562567467"><ele>228.28571428571428</ele><time>2026-04-19T08:29:55.999Z</time></trkpt><trkpt lat="43.79079445260676" lon="10.947236589377864"><ele>229.42857142857144</ele><time>2026-04-19T08:30:00.999Z</time></trkpt><trkpt lat="43.7908292445543" lon="10.947316416591125"><ele>230.57142857142858</ele><time>2026-04-19T08:30:04.999Z</time></trkpt><trkpt lat="43.79085701248796" lon="10.947406570853625"><ele>231.71428571428572</ele><time>2026-04-19T08:30:10.999Z</time></trkpt><trkpt lat="43.79089800878483" lon="10.947497621333811"><ele>232.85714285714286</ele><time>2026-04-19T08:30:16.999Z</time></trkpt><trkpt lat="43.79094351488768" lon="10.947574535430192"><ele>234.0</ele><time>2026-04-19T08:30:20.999Z</time></trkpt><trkpt lat="43.79097131265985" lon="10.947669179841737"><ele>234.14285714285717</ele><time>2026-04-19T08:30:24.999Z</time></trkpt><trkpt lat="43.79099919301105" lon="10.947772617199808"><ele>234.2857142857143</ele><time>2026-04-19T08:30:29.999Z</time></trkpt><trkpt lat="43.791015924241094" lon="10.947870380025389"><ele>234.42857142857144</ele><time>2026-04-19T08:30:33.999Z</time></trkpt><trkpt lat="43.79102630432774" lon="10.947961207948676"><ele>234.57142857142856</ele><time>2026-04-19T08:30:37.999Z</time></trkpt><trkpt lat="43.7910462277508" lon="10.948046244193245"><ele>234.7142857142857</ele><time>2026-04-19T08:30:41.999Z</time></trkpt><trkpt lat="43.791069860105935" lon="10.948140400398453"><ele>234.85714285714283</ele><time>2026-04-19T08:30:47.999Z</time></trkpt><trkpt lat="43.79109178482022" lon="10.948243233591386"><ele>235.0</ele><time>2026-04-19T08:30:52.999Z</time></trkpt><trkpt lat="43.79111111487498" lon="10.94833885878341"><ele>236.14285714285714</ele><time>2026-04-19T08:30:56.999Z</time></trkpt><trkpt lat="43.791148470211276" lon="10.948434313962608"><ele>237.28571428571428</ele><time>2026-04-19T08:31:00.999Z</time></trkpt><trkpt lat="43.79117142737964" lon="10.94852155801951"><ele>238.42857142857142</ele><time>2026-04-19T08:31:05.999Z</time></trkpt><trkpt lat="43.79120332619653" lon="10.94863021554606"><ele>239.57142857142856</ele><time>2026-04-19T08:31:11.999Z</time></trkpt><trkpt lat="43.79122828872773" lon="10.948729079672876"><ele>240.71428571428572</ele><time>2026-04-19T08:31:15.999Z</time></trkpt><trkpt lat="43.79125108451097" lon="10.948821177128176"><ele>241.85714285714283</ele><time>2026-04-19T08:31:20.999Z</time></trkpt><trkpt lat="43.79127363013729" lon="10.948911089437923"><ele>243.0</ele><time>2026-04-19T08:31:25.999Z</time></trkpt><trkpt lat="43.79129522896447" lon="10.949014192911642"><ele>243.0</ele><time>2026-04-19T08:31:30.999Z</time></trkpt><trkpt lat="43.7913274289962" lon="10.94909798007776"><ele>243.0</ele><time>2026-04-19T08:31:34.999Z</time></trkpt><trkpt lat="43.79135215506512" lon="10.94920109714902"><ele>243.0</ele><time>2026-04-19T08:31:39.998Z</time></trkpt><trkpt lat="43.79136511608288" lon="10.94929044622802"><ele>243.0</ele><time>2026-04-19T08:31:43.998Z</time></trkpt><trkpt lat="43.791381651758904" lon="10.94937920963725"><ele>243.0</ele><time>2026-04-19T08:31:51Z</time></trkpt><trkpt lat="43.791403327338614" lon="10.949478045121074"><ele>243.0</ele><time>2026-04-19T08:31:57Z</time></trkpt><trkpt lat="43.79142414571323" lon="10.949569425515344"><ele>243.0</ele><time>2026-04-19T08:32:03.999Z</time></trkpt><trkpt lat="43.791412453653685" lon="10.949666382468735"><ele>244.85714285714283</ele><time>2026-04-19T08:32:09.999Z</time></trkpt><trkpt lat="43.791427109251146" lon="10.949758136692182"><ele>246.71428571428572</ele><time>2026-04-19T08:32:16.999Z</time></trkpt><trkpt lat="43.79145084981343" lon="10.949848711433628"><ele>248.57142857142856</ele><time>2026-04-19T08:32:21.999Z</time></trkpt><trkpt lat="43.791478278159666" lon="10.949927452638564"><ele>250.42857142857142</ele><time>2026-04-19T08:32:26.999Z</time></trkpt><trkpt lat="43.791502322796525" lon="10.950026106884069"><ele>252.28571428571428</ele><time>2026-04-19T08:32:33.999Z</time></trkpt><trkpt lat="43.7915296231552" lon="10.950109724751622"><ele>254.14285714285714</ele><time>2026-04-19T08:32:39.999Z</time></trkpt><trkpt lat="43.79156354178971" lon="10.950197976454266"><ele>256.0</ele><time>2026-04-19T08:32:44.999Z</time></trkpt><trkpt lat="43.791589449570935" lon="10.950286216749669"><ele>257.2857142857143</ele><time>2026-04-19T08:32:49.999Z</time></trkpt><trkpt lat="43.79163744575654" lon="10.950343449899062"><ele>258.57142857142856</ele><time>2026-04-19T08:32:54.999Z</time></trkpt><trkpt lat="43.79168759724078" lon="10.95041894381942"><ele>259.85714285714283</ele><time>2026-04-19T08:32:59.999Z</time></trkpt><trkpt lat="43.79173793536734" lon="10.950479146541985"><ele>261.1428571428571</ele><time>2026-04-19T08:33:04.999Z</time></trkpt><trkpt lat="43.791789160245" lon="10.950538493729187"><ele>262.42857142857144</ele><time>2026-04-19T08:33:10.999Z</time></trkpt><trkpt lat="43.7918429997877" lon="10.950607871194503"><ele>263.71428571428567</ele><time>2026-04-19T08:33:15.999Z</time></trkpt><trkpt lat="43.791895283886404" lon="10.950656458106522"><ele>265.0</ele><time>2026-04-19T08:33:20.999Z</time></trkpt><trkpt lat="43.79195662985884" lon="10.950708223519372"><ele>265.2857142857143</ele><time>2026-04-19T08:33:27.999Z</time></trkpt><trkpt lat="43.79199748084988" lon="10.950787406109828"><ele>265.57142857142856</ele><time>2026-04-19T08:33:33.999Z</time></trkpt><trkpt lat="43.79205058160402" lon="10.95084288204651"><ele>265.8571428571429</ele><time>2026-04-19T08:33:39.998Z</time></trkpt><trkpt lat="43.79210562482772" lon="10.950900467171582"><ele>266.1428571428571</ele><time>2026-04-19T08:33:44.998Z</time></trkpt><trkpt lat="43.792163085682986" lon="10.950968766453821"><ele>266.42857142857144</ele><time>2026-04-19T08:33:50.998Z</time></trkpt><trkpt lat="43.79220776968534" lon="10.951037789489016"><ele>266.7142857142857</ele><time>2026-04-19T08:33:56.999Z</time></trkpt><trkpt lat="43.79225253521968" lon="10.95110005088523"><ele>267.0</ele><time>2026-04-19T08:34:01.999Z</time></trkpt><trkpt lat="43.79230451663309" lon="10.951167262569768"><ele>268.42857142857144</ele><time>2026-04-19T08:34:05.999Z</time></trkpt><trkpt lat="43.79235960907648" lon="10.951219474686727"><ele>269.8571428571429</ele><time>2026-04-19T08:34:10.999Z</time></trkpt><trkpt lat="43.79241168852759" lon="10.951285192699363"><ele>271.2857142857143</ele><time>2026-04-19T08:34:15.999Z</time></trkpt><trkpt lat="43.79246732591649" lon="10.951336045196573"><ele>272.7142857142857</ele><time>2026-04-19T08:34:20.999Z</time></trkpt><trkpt lat="43.792534696587694" lon="10.951401050266524"><ele>274.1428571428571</ele><time>2026-04-19T08:34:25.999Z</time></trkpt><trkpt lat="43.792606316203816" lon="10.951431980348277"><ele>275.57142857142856</ele><time>2026-04-19T08:34:29.999Z</time></trkpt><trkpt lat="43.7926756815682" lon="10.95143526044522"><ele>277.0</ele><time>2026-04-19T08:34:33.999Z</time></trkpt><trkpt lat="43.79274842149345" lon="10.951440393808035"><ele>278.1428571428571</ele><time>2026-04-19T08:34:37.999Z</time></trkpt><trkpt lat="43.79281961711168" lon="10.951453906877362"><ele>279.2857142857143</ele><time>2026-04-19T08:34:41.999Z</time></trkpt><trkpt lat="43.79288702283716" lon="10.951493523023737"><ele>280.42857142857144</ele><time>2026-04-19T08:34:45.999Z</time></trkpt><trkpt lat="43.7929518340155" lon="10.951550560935548"><ele>281.57142857142856</ele><time>2026-04-19T08:34:50.999Z</time></trkpt><trkpt lat="43.79300453131151" lon="10.951607596411899"><ele>282.7142857142857</ele><time>2026-04-19T08:34:55.999Z</time></trkpt><trkpt lat="43.7930681396137" lon="10.95163818379884"><ele>283.85714285714283</ele><time>2026-04-19T08:35:00.999Z</time></trkpt><trkpt lat="43.793130501798" lon="10.951661199641851"><ele>285.0</ele><time>2026-04-19T08:35:05.999Z</time></trkpt><trkpt lat="43.79319753411401" lon="10.951683047378177"><ele>285.1428571428571</ele><time>2026-04-19T08:35:11.999Z</time></trkpt><trkpt lat="43.79325304081576" lon="10.951726770812773"><ele>285.2857142857143</ele><time>2026-04-19T08:35:16.999Z</time></trkpt><trkpt lat="43.793315012401415" lon="10.951755471396769"><ele>285.42857142857144</ele><time>2026-04-19T08:35:20.999Z</time></trkpt><trkpt lat="43.79337681811694" lon="10.95177377440772"><ele>285.57142857142856</ele><time>2026-04-19T08:35:23.999Z</time></trkpt><trkpt lat="43.793451157445844" lon="10.951790508999718"><ele>285.7142857142857</ele><time>2026-04-19T08:35:27.999Z</time></trkpt><trkpt lat="43.793512905558856" lon="10.951843464960941"><ele>285.85714285714283</ele><time>2026-04-19T08:35:31.999Z</time></trkpt><trkpt lat="43.793528051120376" lon="10.951933596344722"><ele>286.0</ele><time>2026-04-19T08:35:37.999Z</time></trkpt><trkpt lat="43.793522446438246" lon="10.95202061054867"><ele>286.0</ele><time>2026-04-19T08:35:41.999Z</time></trkpt><trkpt lat="43.79350033754999" lon="10.95210783494153"><ele>286.0</ele><time>2026-04-19T08:35:44.999Z</time></trkpt><trkpt lat="43.793466639500416" lon="10.952211998494413"><ele>286.0</ele><time>2026-04-19T08:35:48.999Z</time></trkpt><trkpt lat="43.79344575268527" lon="10.952315022715306"><ele>286.0</ele><time>2026-04-19T08:35:52.998Z</time></trkpt><trkpt lat="43.79342125631353" lon="10.952427307312277"><ele>286.0</ele><time>2026-04-19T08:35:56.998Z</time></trkpt><trkpt lat="43.793422927148015" lon="10.952522757793913"><ele>286.0</ele><time>2026-04-19T08:35:59.999Z</time></trkpt><trkpt lat="43.79346457784203" lon="10.952603216864379"><ele>287.71428571428567</ele><time>2026-04-19T08:36:02.999Z</time></trkpt><trkpt lat="43.793528895236584" lon="10.952652237302482"><ele>289.42857142857144</ele><time>2026-04-19T08:36:05.999Z</time></trkpt><trkpt lat="43.793585841559256" lon="10.95269747051722"><ele>291.1428571428571</ele><time>2026-04-19T08:36:08.999Z</time></trkpt><trkpt lat="43.793642687024544" lon="10.952762646354781"><ele>292.85714285714283</ele><time>2026-04-19T08:36:11.999Z</time></trkpt><trkpt lat="43.79370471576389" lon="10.952818146390324"><ele>294.57142857142856</ele><time>2026-04-19T08:36:14.999Z</time></trkpt><trkpt lat="43.793772578125285" lon="10.952860885223751"><ele>296.2857142857143</ele><time>2026-04-19T08:36:17.999Z</time></trkpt><trkpt lat="43.79382102086302" lon="10.952944230441611"><ele>298.0</ele><time>2026-04-19T08:36:20.999Z</time></trkpt><trkpt lat="43.79383234237953" lon="10.953042532954203"><ele>298.0</ele><time>2026-04-19T08:36:23.999Z</time></trkpt><trkpt lat="43.79379011012133" lon="10.953143583314148"><ele>298.0</ele><time>2026-04-19T08:36:27.999Z</time></trkpt><trkpt lat="43.793732615334186" lon="10.953186847115145"><ele>298.0</ele><time>2026-04-19T08:36:30.999Z</time></trkpt><trkpt lat="43.793666384095204" lon="10.953201727942384"><ele>298.0</ele><time>2026-04-19T08:36:33.999Z</time></trkpt><trkpt lat="43.79359309234618" lon="10.953230300098047"><ele>298.0</ele><time>2026-04-19T08:36:36.999Z</time></trkpt><trkpt lat="43.793517790370004" lon="10.95322906555816"><ele>298.0</ele><time>2026-04-19T08:36:39.999Z</time></trkpt><trkpt lat="43.79345193823629" lon="10.953257397660144"><ele>298.0</ele><time>2026-04-19T08:36:42.999Z</time></trkpt><trkpt lat="43.79337515155938" lon="10.953260317209828"><ele>295.8333333333333</ele><time>2026-04-19T08:36:45.999Z</time></trkpt><trkpt lat="43.7933042337948" lon="10.95326847672124"><ele>293.66666666666663</ele><time>2026-04-19T08:36:48.999Z</time></trkpt><trkpt lat="43.793227077779264" lon="10.953271303719792"><ele>291.5</ele><time>2026-04-19T08:36:51.999Z</time></trkpt><trkpt lat="43.793149770249975" lon="10.953262718633884"><ele>289.3333333333333</ele><time>2026-04-19T08:36:54.999Z</time></trkpt><trkpt lat="43.793076520716944" lon="10.953261425951437"><ele>287.1666666666667</ele><time>2026-04-19T08:36:57.999Z</time></trkpt><trkpt lat="43.79300485446049" lon="10.953300878338464"><ele>285.0</ele><time>2026-04-19T08:37:00.999Z</time></trkpt><trkpt lat="43.79293339874131" lon="10.95333429899721"><ele>285.0</ele><time>2026-04-19T08:37:03.999Z</time></trkpt><trkpt lat="43.79286769446066" lon="10.953345661981876"><ele>285.0</ele><time>2026-04-19T08:37:06.999Z</time></trkpt><trkpt lat="43.79280437184454" lon="10.953336606381331"><ele>285.0</ele><time>2026-04-19T08:37:09.999Z</time></trkpt><trkpt lat="43.79273715760239" lon="10.95332585624012"><ele>285.0</ele><time>2026-04-19T08:37:12.999Z</time></trkpt><trkpt lat="43.79266700443774" lon="10.953347624797402"><ele>285.0</ele><time>2026-04-19T08:37:15.999Z</time></trkpt><trkpt lat="43.79260244758161" lon="10.95337387258075"><ele>285.0</ele><time>2026-04-19T08:37:18.999Z</time></trkpt><trkpt lat="43.792543359575106" lon="10.953434121037485"><ele>285.0</ele><time>2026-04-19T08:37:21.999Z</time></trkpt><trkpt lat="43.79248779511611" lon="10.953502329591885"><ele>285.57142857142856</ele><time>2026-04-19T08:37:24.999Z</time></trkpt><trkpt lat="43.792423279590245" lon="10.953556679908186"><ele>286.14285714285717</ele><time>2026-04-19T08:37:27.999Z</time></trkpt><trkpt lat="43.792365372685865" lon="10.953608922497024"><ele>286.7142857142857</ele><time>2026-04-19T08:37:30.999Z</time></trkpt><trkpt lat="43.79230971488675" lon="10.953665038963933"><ele>287.2857142857143</ele><time>2026-04-19T08:37:33.999Z</time></trkpt><trkpt lat="43.79223712673662" lon="10.953681162746067"><ele>287.85714285714283</ele><time>2026-04-19T08:37:36.999Z</time></trkpt><trkpt lat="43.79216524753547" lon="10.953690556510807"><ele>288.42857142857144</ele><time>2026-04-19T08:37:39.999Z</time></trkpt><trkpt lat="43.79208943409509" lon="10.953674466269709"><ele>289.0</ele><time>2026-04-19T08:37:42.999Z</time></trkpt><trkpt lat="43.792019231641255" lon="10.953663310095102"><ele>289.0</ele><time>2026-04-19T08:37:45.999Z</time></trkpt><trkpt lat="43.79194582846185" lon="10.953678226426751"><ele>289.0</ele><time>2026-04-19T08:37:48.999Z</time></trkpt><trkpt lat="43.79187712522592" lon="10.953700060658077"><ele>289.0</ele><time>2026-04-19T08:37:51.999Z</time></trkpt><trkpt lat="43.79180774060084" lon="10.953766910599946"><ele>289.0</ele><time>2026-04-19T08:37:54.999Z</time></trkpt><trkpt lat="43.79175813859498" lon="10.953830828725431"><ele>289.0</ele><time>2026-04-19T08:37:57.999Z</time></trkpt><trkpt lat="43.79170711430064" lon="10.953900582898296"><ele>289.0</ele><time>2026-04-19T08:38:00.999Z</time></trkpt><trkpt lat="43.7916601206795" lon="10.953973299606334"><ele>289.0</ele><time>2026-04-19T08:38:03.999Z</time></trkpt><trkpt lat="43.79160431292519" lon="10.954031848992843"><ele>287.7142857142857</ele><time>2026-04-19T08:38:06.999Z</time></trkpt><trkpt lat="43.791544359991065" lon="10.954084161331433"><ele>286.42857142857144</ele><time>2026-04-19T08:38:10Z</time></trkpt><trkpt lat="43.79148446972148" lon="10.954146801366852"><ele>285.1428571428571</ele><time>2026-04-19T08:38:13Z</time></trkpt><trkpt lat="43.79142882669413" lon="10.954217628319912"><ele>283.8571428571429</ele><time>2026-04-19T08:38:16Z</time></trkpt><trkpt lat="43.791380105877195" lon="10.954285464822581"><ele>282.57142857142856</ele><time>2026-04-19T08:38:19Z</time></trkpt><trkpt lat="43.79132875870385" lon="10.954358506611554"><ele>281.2857142857143</ele><time>2026-04-19T08:38:21.999Z</time></trkpt><trkpt lat="43.79126585948179" lon="10.95443147782186"><ele>280.0</ele><time>2026-04-19T08:38:24.999Z</time></trkpt><trkpt lat="43.79121243877272" lon="10.954514606597401"><ele>280.0</ele><time>2026-04-19T08:38:27.999Z</time></trkpt><trkpt lat="43.79116856022867" lon="10.954608629907"><ele>280.0</ele><time>2026-04-19T08:38:30.999Z</time></trkpt><trkpt lat="43.79110957323861" lon="10.95469807624117"><ele>280.0</ele><time>2026-04-19T08:38:33.999Z</time></trkpt><trkpt lat="43.79105625264022" lon="10.954784137145117"><ele>280.0</ele><time>2026-04-19T08:38:36.999Z</time></trkpt><trkpt lat="43.791037739121926" lon="10.954888252916822"><ele>280.0</ele><time>2026-04-19T08:38:39.999Z</time></trkpt><trkpt lat="43.79101655857739" lon="10.954975378009179"><ele>280.0</ele><time>2026-04-19T08:38:42.999Z</time></trkpt><trkpt lat="43.790995130916656" lon="10.955070731541365"><ele>279.0</ele><time>2026-04-19T08:38:45.999Z</time></trkpt><trkpt lat="43.79097638594031" lon="10.955168421531639"><ele>278.0</ele><time>2026-04-19T08:38:48.999Z</time></trkpt><trkpt lat="43.79097368299337" lon="10.95526678704127"><ele>277.0</ele><time>2026-04-19T08:38:51.999Z</time></trkpt><trkpt lat="43.790976091646804" lon="10.955369695335675"><ele>276.0</ele><time>2026-04-19T08:38:54.999Z</time></trkpt><trkpt lat="43.79099590016716" lon="10.955470488506526"><ele>275.0</ele><time>2026-04-19T08:38:57.999Z</time></trkpt><trkpt lat="43.791023154681234" lon="10.955567340566677"><ele>274.0</ele><time>2026-04-19T08:39:00.999Z</time></trkpt><trkpt lat="43.79107346043383" lon="10.955659267841837"><ele>274.00000000000006</ele><time>2026-04-19T08:39:04.999Z</time></trkpt><trkpt lat="43.79111693711246" lon="10.955736042021806"><ele>274.0</ele><time>2026-04-19T08:39:08.999Z</time></trkpt><trkpt lat="43.79116317852168" lon="10.955806300328977"><ele>274.0</ele><time>2026-04-19T08:40:59.998Z</time></trkpt><trkpt lat="43.79119633635753" lon="10.955912435164452"><ele>274.0</ele><time>2026-04-19T08:41:03.998Z</time></trkpt><trkpt lat="43.79124047009146" lon="10.955990511280051"><ele>274.0</ele><time>2026-04-19T08:41:05.998Z</time></trkpt><trkpt lat="43.79126668680278" lon="10.956082674428929"><ele>274.00000000000006</ele><time>2026-04-19T08:41:08.998Z</time></trkpt><trkpt lat="43.791243362021284" lon="10.956169996078357"><ele>274.0</ele><time>2026-04-19T08:41:11.998Z</time></trkpt><trkpt lat="43.791167839749676" lon="10.956227855448077"><ele>274.0</ele><time>2026-04-19T08:41:14.998Z</time></trkpt><trkpt lat="43.791093537063645" lon="10.956230450101568"><ele>274.0</ele><time>2026-04-19T08:41:17.998Z</time></trkpt><trkpt lat="43.79101529297923" lon="10.956239105015774"><ele>274.0</ele><time>2026-04-19T08:41:20.998Z</time></trkpt><trkpt lat="43.79094133979661" lon="10.956246831232429"><ele>274.0</ele><time>2026-04-19T08:41:23.998Z</time></trkpt><trkpt lat="43.79087413938159" lon="10.956264260373846"><ele>274.0</ele><time>2026-04-19T08:41:26.998Z</time></trkpt><trkpt lat="43.79079867323579" lon="10.95626424296047"><ele>274.0</ele><time>2026-04-19T08:41:29.998Z</time></trkpt><trkpt lat="43.79071500897323" lon="10.956296401599165"><ele>272.5</ele><time>2026-04-19T08:41:32.998Z</time></trkpt><trkpt lat="43.79069527477596" lon="10.956422182191568"><ele>271.0</ele><time>2026-04-19T08:41:35.998Z</time></trkpt><trkpt lat="43.79073734954494" lon="10.95649243927938"><ele>269.5</ele><time>2026-04-19T08:41:37.998Z</time></trkpt><trkpt lat="43.79079792672408" lon="10.956559008723543"><ele>268.0</ele><time>2026-04-19T08:41:40.998Z</time></trkpt><trkpt lat="43.79086665782407" lon="10.95661388534391"><ele>266.5</ele><time>2026-04-19T08:41:43.998Z</time></trkpt><trkpt lat="43.7909098297001" lon="10.956689441838922"><ele>265.0</ele><time>2026-04-19T08:41:46.998Z</time></trkpt><trkpt lat="43.79096600257458" lon="10.956753143906868"><ele>266.4285714285714</ele><time>2026-04-19T08:41:49.998Z</time></trkpt><trkpt lat="43.79101496591239" lon="10.956827153168637"><ele>267.85714285714283</ele><time>2026-04-19T08:41:52.998Z</time></trkpt><trkpt lat="43.79106116899949" lon="10.956895810601328"><ele>269.2857142857143</ele><time>2026-04-19T08:41:55.998Z</time></trkpt><trkpt lat="43.79110368822441" lon="10.956965814349406"><ele>270.71428571428567</ele><time>2026-04-19T08:41:58.998Z</time></trkpt><trkpt lat="43.79116858980944" lon="10.957021652848965"><ele>272.1428571428571</ele><time>2026-04-19T08:42:01.998Z</time></trkpt><trkpt lat="43.79121669947224" lon="10.95710010699744"><ele>273.57142857142856</ele><time>2026-04-19T08:42:04.998Z</time></trkpt><trkpt lat="43.79125775748761" lon="10.957182467700555"><ele>275.0</ele><time>2026-04-19T08:42:07.998Z</time></trkpt><trkpt lat="43.79128346336776" lon="10.957272799452044"><ele>275.0</ele><time>2026-04-19T08:42:10.998Z</time></trkpt><trkpt lat="43.791317302187345" lon="10.9573492098501"><ele>275.0</ele><time>2026-04-19T08:42:13.997Z</time></trkpt><trkpt lat="43.791358574178666" lon="10.95744354598952"><ele>275.0</ele><time>2026-04-19T08:42:17.997Z</time></trkpt><trkpt lat="43.79140663507582" lon="10.957534068326222"><ele>275.0</ele><time>2026-04-19T08:42:21.997Z</time></trkpt><trkpt lat="43.79145623160867" lon="10.957602029440197"><ele>275.0</ele><time>2026-04-19T08:42:25.997Z</time></trkpt><trkpt lat="43.7914992490481" lon="10.957691075418074"><ele>275.0</ele><time>2026-04-19T08:42:30.997Z</time></trkpt><trkpt lat="43.79152666294429" lon="10.957772341578893"><ele>275.0</ele><time>2026-04-19T08:42:34.997Z</time></trkpt><trkpt lat="43.791593976995905" lon="10.957835601217587"><ele>276.14285714285717</ele><time>2026-04-19T08:42:37.997Z</time></trkpt><trkpt lat="43.79166582031816" lon="10.957871197887222"><ele>277.2857142857143</ele><time>2026-04-19T08:42:42.997Z</time></trkpt><trkpt lat="43.79172603939324" lon="10.957912716678033"><ele>278.42857142857144</ele><time>2026-04-19T08:42:46.997Z</time></trkpt><trkpt lat="43.79177432059234" lon="10.957985207744624"><ele>279.57142857142856</ele><time>2026-04-19T08:42:51.997Z</time></trkpt><trkpt lat="43.79183367958825" lon="10.958041553874914"><ele>280.7142857142857</ele><time>2026-04-19T08:42:55.997Z</time></trkpt><trkpt lat="43.79189518692448" lon="10.958098514173951"><ele>281.8571428571429</ele><time>2026-04-19T08:42:59.997Z</time></trkpt><trkpt lat="43.791920997098345" lon="10.958179837014438"><ele>283.0</ele><time>2026-04-19T08:43:02.997Z</time></trkpt><trkpt lat="43.79194089512481" lon="10.958285060206894"><ele>284.2857142857143</ele><time>2026-04-19T08:43:07.997Z</time></trkpt><trkpt lat="43.7919611893584" lon="10.958374138520648"><ele>285.5714285714286</ele><time>2026-04-19T08:43:13.997Z</time></trkpt><trkpt lat="43.79201134696523" lon="10.95845230145807"><ele>286.8571428571429</ele><time>2026-04-19T08:43:17.997Z</time></trkpt><trkpt lat="43.79205485843886" lon="10.95852352104656"><ele>288.14285714285717</ele><time>2026-04-19T08:43:22.997Z</time></trkpt><trkpt lat="43.792094220924525" lon="10.958600246794875"><ele>289.42857142857144</ele><time>2026-04-19T08:43:28.997Z</time></trkpt><trkpt lat="43.792121800652716" lon="10.958692375311616"><ele>290.7142857142857</ele><time>2026-04-19T08:43:35.997Z</time></trkpt><trkpt lat="43.792171358294155" lon="10.958752182638955"><ele>292.0</ele><time>2026-04-19T08:43:39.997Z</time></trkpt><trkpt lat="43.79224234411812" lon="10.95879591854215"><ele>292.0</ele><time>2026-04-19T08:43:42.997Z</time></trkpt><trkpt lat="43.79231051866944" lon="10.958779734089767"><ele>292.0</ele><time>2026-04-19T08:43:46.997Z</time></trkpt><trkpt lat="43.792379659101215" lon="10.958802240489979"><ele>292.0</ele><time>2026-04-19T08:43:52.997Z</time></trkpt><trkpt lat="43.79243546790723" lon="10.958854844779328"><ele>292.0</ele><time>2026-04-19T08:43:59.997Z</time></trkpt><trkpt lat="43.792501340001984" lon="10.958878968037997"><ele>292.0</ele><time>2026-04-19T08:44:06.997Z</time></trkpt><trkpt lat="43.79256733097227" lon="10.95889910213986"><ele>292.0</ele><time>2026-04-19T08:44:10.996Z</time></trkpt><trkpt lat="43.79256138741462" lon="10.958990063880085"><ele>292.0</ele><time>2026-04-19T08:44:17.996Z</time></trkpt><trkpt lat="43.79260964462126" lon="10.959069465381711"><ele>292.0</ele><time>2026-04-19T08:44:25.996Z</time></trkpt><trkpt lat="43.79267544765657" lon="10.95905928521902"><ele>292.0</ele><time>2026-04-19T08:44:31.996Z</time></trkpt><trkpt lat="43.79269293242437" lon="10.95897266510765"><ele>292.0</ele><time>2026-04-19T08:44:51.996Z</time></trkpt><trkpt lat="43.792690044963905" lon="10.95888523693438"><ele>292.0</ele><time>2026-04-19T08:44:59.996Z</time></trkpt><trkpt lat="43.79268355692537" lon="10.958786325397456"><ele>292.0</ele><time>2026-04-19T08:45:05.996Z</time></trkpt><trkpt lat="43.7926730302093" lon="10.958697514534588"><ele>292.0</ele><time>2026-04-19T08:45:12.996Z</time></trkpt><trkpt lat="43.792635266135655" lon="10.958627399701227"><ele>292.0</ele><time>2026-04-19T08:45:20.996Z</time></trkpt><trkpt lat="43.79261880575286" lon="10.95853298639687"><ele>292.0</ele><time>2026-04-19T08:45:28.996Z</time></trkpt><trkpt lat="43.79258060584719" lon="10.958462437088048"><ele>292.0</ele><time>2026-04-19T08:45:33.996Z</time></trkpt><trkpt lat="43.79256159984372" lon="10.958372448845244"><ele>292.0</ele><time>2026-04-19T08:45:40.996Z</time></trkpt><trkpt lat="43.79263683670021" lon="10.958371395825528"><ele>292.0</ele><time>2026-04-19T08:45:54.996Z</time></trkpt><trkpt lat="43.79269536884521" lon="10.958333486154448"><ele>292.0</ele><time>2026-04-19T08:46:01.996Z</time></trkpt><trkpt lat="43.792782749524775" lon="10.95830182938172"><ele>292.0</ele><time>2026-04-19T08:46:14.995Z</time></trkpt><trkpt lat="43.792790113528014" lon="10.958210440022917"><ele>292.0</ele><time>2026-04-19T08:46:20.995Z</time></trkpt><trkpt lat="43.792848659723774" lon="10.958162894785373"><ele>296.0</ele><time>2026-04-19T08:46:37.995Z</time></trkpt><trkpt lat="43.79291240720835" lon="10.958174769950892"><ele>300.0</ele><time>2026-04-19T08:46:47.995Z</time></trkpt><trkpt lat="43.792974749128085" lon="10.958130414207606"><ele>304.0</ele><time>2026-04-19T08:46:53.995Z</time></trkpt><trkpt lat="43.79303428948468" lon="10.95816776770649"><ele>308.0</ele><time>2026-04-19T08:47:07.995Z</time></trkpt><trkpt lat="43.793094851910794" lon="10.95821061505366"><ele>312.0</ele><time>2026-04-19T08:47:16.995Z</time></trkpt><trkpt lat="43.79315467255814" lon="10.95818021315339"><ele>316.0</ele><time>2026-04-19T08:47:25.995Z</time></trkpt><trkpt lat="43.79315828699476" lon="10.958085852005269"><ele>320.0</ele><time>2026-04-19T08:47:31.995Z</time></trkpt><trkpt lat="43.79323519094799" lon="10.958088629917832"><ele>320.0</ele><time>2026-04-19T08:47:43.995Z</time></trkpt><trkpt lat="43.79330523093357" lon="10.958045659221598"><ele>320.0</ele><time>2026-04-19T08:47:53.995Z</time></trkpt><trkpt lat="43.79335607212397" lon="10.957987073699213"><ele>320.0</ele><time>2026-04-19T08:48:03.994Z</time></trkpt><trkpt lat="43.79334817699057" lon="10.957900113046612"><ele>320.0</ele><time>2026-04-19T08:48:08.994Z</time></trkpt><trkpt lat="43.79336887706287" lon="10.957807284124494"><ele>320.0</ele><time>2026-04-19T08:48:16.994Z</time></trkpt><trkpt lat="43.79341886780861" lon="10.957747400767987"><ele>320.0</ele><time>2026-04-19T08:48:27.994Z</time></trkpt><trkpt lat="43.79348468120915" lon="10.957725338195537"><ele>320.0</ele><time>2026-04-19T08:48:36.994Z</time></trkpt><trkpt lat="43.793527437453726" lon="10.95779318702403"><ele>323.57142857142856</ele><time>2026-04-19T08:48:47.994Z</time></trkpt><trkpt lat="43.79359219517147" lon="10.957834268887536"><ele>327.14285714285717</ele><time>2026-04-19T08:48:54.994Z</time></trkpt><trkpt lat="43.79362560421802" lon="10.95793086513361"><ele>330.7142857142857</ele><time>2026-04-19T08:49:02.994Z</time></trkpt><trkpt lat="43.79364350151065" lon="10.958015103421406"><ele>334.2857142857143</ele><time>2026-04-19T08:49:08.994Z</time></trkpt><trkpt lat="43.79367650560425" lon="10.958106223427912"><ele>337.85714285714283</ele><time>2026-04-19T08:49:14.994Z</time></trkpt><trkpt lat="43.79370919927253" lon="10.958193392477598"><ele>341.42857142857144</ele><time>2026-04-19T08:49:20.994Z</time></trkpt><trkpt lat="43.79374898995583" lon="10.95826714278002"><ele>345.0</ele><time>2026-04-19T08:49:25.994Z</time></trkpt><trkpt lat="43.79378312541316" lon="10.95834576782628"><ele>344.7142857142857</ele><time>2026-04-19T08:49:31.994Z</time></trkpt><trkpt lat="43.793835631847415" lon="10.95840208261038"><ele>344.42857142857144</ele><time>2026-04-19T08:49:37.994Z</time></trkpt><trkpt lat="43.79388495646274" lon="10.958482646569962"><ele>344.1428571428571</ele><time>2026-04-19T08:49:43.994Z</time></trkpt><trkpt lat="43.79391801461445" lon="10.958565698302651"><ele>343.8571428571429</ele><time>2026-04-19T08:49:48.994Z</time></trkpt><trkpt lat="43.79394920331248" lon="10.958642581753399"><ele>343.57142857142856</ele><time>2026-04-19T08:49:53.994Z</time></trkpt><trkpt lat="43.79398842047238" lon="10.95873123820062"><ele>343.2857142857143</ele><time>2026-04-19T08:49:59.993Z</time></trkpt><trkpt lat="43.79403321714648" lon="10.958796994837058"><ele>343.0</ele><time>2026-04-19T08:50:06.993Z</time></trkpt><trkpt lat="43.79408405102627" lon="10.958858770759651"><ele>343.0</ele><time>2026-04-19T08:50:12.993Z</time></trkpt><trkpt lat="43.79411777045994" lon="10.958937593474896"><ele>343.0</ele><time>2026-04-19T08:50:19.993Z</time></trkpt><trkpt lat="43.794173597142006" lon="10.958995332476157"><ele>343.0</ele><time>2026-04-19T08:50:26.993Z</time></trkpt><trkpt lat="43.79424145864571" lon="10.95904062611945"><ele>343.0</ele><time>2026-04-19T08:50:34.993Z</time></trkpt><trkpt lat="43.794305833298196" lon="10.958998579232127"><ele>343.0</ele><time>2026-04-19T08:50:43.993Z</time></trkpt><trkpt lat="43.794342566201784" lon="10.958923247139584"><ele>343.0</ele><time>2026-04-19T08:50:53.993Z</time></trkpt><trkpt lat="43.79436560752357" lon="10.958831104487233"><ele>343.0</ele><time>2026-04-19T08:51:01.993Z</time></trkpt><trkpt lat="43.794420914114994" lon="10.958893820382823"><ele>346.85714285714283</ele><time>2026-04-19T08:51:11.993Z</time></trkpt><trkpt lat="43.79447970525225" lon="10.95894931335511"><ele>350.7142857142857</ele><time>2026-04-19T08:51:19.993Z</time></trkpt><trkpt lat="43.79455064312391" lon="10.959002285629348"><ele>354.57142857142856</ele><time>2026-04-19T08:51:29.993Z</time></trkpt><trkpt lat="43.79461006551291" lon="10.959035104117573"><ele>358.42857142857144</ele><time>2026-04-19T08:51:37.993Z</time></trkpt><trkpt lat="43.794654603388274" lon="10.959101654471255"><ele>362.2857142857143</ele><time>2026-04-19T08:51:46.993Z</time></trkpt><trkpt lat="43.794711858680515" lon="10.95914592746951"><ele>366.1428571428571</ele><time>2026-04-19T08:51:54.992Z</time></trkpt><trkpt lat="43.79478672727554" lon="10.959123208675257"><ele>370.0</ele><time>2026-04-19T08:52:01.992Z</time></trkpt><trkpt lat="43.79486032968473" lon="10.95911596294062"><ele>369.99999999999994</ele><time>2026-04-19T08:52:10.992Z</time></trkpt><trkpt lat="43.79492366428743" lon="10.959115062067752"><ele>370.0</ele><time>2026-04-19T08:52:18.992Z</time></trkpt><trkpt lat="43.79498941173007" lon="10.959084664406582"><ele>370.0</ele><time>2026-04-19T08:52:26.992Z</time></trkpt><trkpt lat="43.79505630526934" lon="10.95906177165674"><ele>370.0</ele><time>2026-04-19T08:52:35.992Z</time></trkpt><trkpt lat="43.795122168313476" lon="10.959060614714684"><ele>370.0</ele><time>2026-04-19T08:52:44.992Z</time></trkpt><trkpt lat="43.795170668481205" lon="10.959002701352237"><ele>369.99999999999994</ele><time>2026-04-19T08:52:54.992Z</time></trkpt><trkpt lat="43.79520917676897" lon="10.958927590093175"><ele>370.0</ele><time>2026-04-19T08:53:01.992Z</time></trkpt><trkpt lat="43.79527249933573" lon="10.958898121481804"><ele>372.1428571428571</ele><time>2026-04-19T08:53:09.992Z</time></trkpt><trkpt lat="43.79533409079613" lon="10.958876398767888"><ele>374.2857142857143</ele><time>2026-04-19T08:53:14.992Z</time></trkpt><trkpt lat="43.79540275462272" lon="10.958882593277291"><ele>376.42857142857144</ele><time>2026-04-19T08:53:23.992Z</time></trkpt><trkpt lat="43.79547337186448" lon="10.958885225388679"><ele>378.57142857142856</ele><time>2026-04-19T08:53:28.992Z</time></trkpt><trkpt lat="43.79554868303855" lon="10.958921422361362"><ele>380.7142857142857</ele><time>2026-04-19T08:53:34.992Z</time></trkpt><trkpt lat="43.79560856502595" lon="10.958958635145407"><ele>382.85714285714283</ele><time>2026-04-19T08:53:40.992Z</time></trkpt><trkpt lat="43.795660278242806" lon="10.959021871201976"><ele>385.0</ele><time>2026-04-19T08:53:45.992Z</time></trkpt><trkpt lat="43.795715648424654" lon="10.959083089000266"><ele>385.0</ele><time>2026-04-19T08:53:51.991Z</time></trkpt><trkpt lat="43.79575459908291" lon="10.959168209568077"><ele>385.0</ele><time>2026-04-19T08:53:58.991Z</time></trkpt><trkpt lat="43.79579081444441" lon="10.959243522861161"><ele>385.0</ele><time>2026-04-19T08:54:03.991Z</time></trkpt><trkpt lat="43.79583957075453" lon="10.959315730834714"><ele>385.0</ele><time>2026-04-19T08:54:10.991Z</time></trkpt><trkpt lat="43.79590118162571" lon="10.959366693610678"><ele>385.0</ele><time>2026-04-19T08:54:16.991Z</time></trkpt><trkpt lat="43.79596319168644" lon="10.959430786944143"><ele>385.0</ele><time>2026-04-19T08:54:21.991Z</time></trkpt><trkpt lat="43.796017345070936" lon="10.959481009305266"><ele>385.0</ele><time>2026-04-19T08:54:26.991Z</time></trkpt><trkpt lat="43.79607879765771" lon="10.959517427595681"><ele>387.14285714285717</ele><time>2026-04-19T08:54:33.991Z</time></trkpt><trkpt lat="43.79614702638954" lon="10.959533573586123"><ele>389.2857142857143</ele><time>2026-04-19T08:54:39.991Z</time></trkpt><trkpt lat="43.79620971568981" lon="10.959546918386268"><ele>391.42857142857144</ele><time>2026-04-19T08:54:45.991Z</time></trkpt><trkpt lat="43.796283157423495" lon="10.95956061656043"><ele>393.57142857142856</ele><time>2026-04-19T08:54:51.991Z</time></trkpt><trkpt lat="43.79634804876394" lon="10.959558020977683"><ele>395.7142857142857</ele><time>2026-04-19T08:54:56.991Z</time></trkpt><trkpt lat="43.79636421130167" lon="10.959648253113937"><ele>397.8571428571429</ele><time>2026-04-19T08:55:21.991Z</time></trkpt><trkpt lat="43.79638584854894" lon="10.959747845870647"><ele>400.0</ele><time>2026-04-19T08:55:25.991Z</time></trkpt><trkpt lat="43.79641345601453" lon="10.959826425633688"><ele>400.00000000000006</ele><time>2026-04-19T08:55:30.991Z</time></trkpt><trkpt lat="43.796447894955186" lon="10.959901738686229"><ele>400.0</ele><time>2026-04-19T08:55:33.991Z</time></trkpt><trkpt lat="43.796491316245344" lon="10.959982650852425"><ele>400.0</ele><time>2026-04-19T08:55:36.991Z</time></trkpt><trkpt lat="43.796522405367526" lon="10.960083585791782"><ele>400.0</ele><time>2026-04-19T08:55:40.991Z</time></trkpt><trkpt lat="43.79655662867216" lon="10.960186470434019"><ele>400.0</ele><time>2026-04-19T08:55:44.99Z</time></trkpt><trkpt lat="43.79659971344604" lon="10.960272447014592"><ele>400.00000000000006</ele><time>2026-04-19T08:55:48.99Z</time></trkpt><trkpt lat="43.796630739367096" lon="10.960361609072729"><ele>400.0</ele><time>2026-04-19T08:55:52.99Z</time></trkpt><trkpt lat="43.79667613679805" lon="10.960455819550909"><ele>400.42857142857144</ele><time>2026-04-19T08:55:56.99Z</time></trkpt><trkpt lat="43.79669505487285" lon="10.96056446395658"><ele>400.8571428571429</ele><time>2026-04-19T08:56:00.99Z</time></trkpt><trkpt lat="43.79670194575087" lon="10.960661567999583"><ele>401.28571428571433</ele><time>2026-04-19T08:56:04.99Z</time></trkpt><trkpt lat="43.79668864772573" lon="10.9607548101695"><ele>401.7142857142857</ele><time>2026-04-19T08:56:08.99Z</time></trkpt><trkpt lat="43.796632999427246" lon="10.960817158416562"><ele>402.1428571428571</ele><time>2026-04-19T08:56:12.99Z</time></trkpt><trkpt lat="43.79657016230177" lon="10.960872458087342"><ele>402.5714285714286</ele><time>2026-04-19T08:56:16.99Z</time></trkpt><trkpt lat="43.796519190945965" lon="10.960938753215155"><ele>403.0</ele><time>2026-04-19T08:56:20.99Z</time></trkpt><trkpt lat="43.79648031680619" lon="10.961017900057872"><ele>403.0</ele><time>2026-04-19T08:56:24.99Z</time></trkpt><trkpt lat="43.796446169568426" lon="10.961104836463024"><ele>403.0</ele><time>2026-04-19T08:56:28.99Z</time></trkpt><trkpt lat="43.79642061998379" lon="10.96120726747254"><ele>403.0</ele><time>2026-04-19T08:56:32.99Z</time></trkpt><trkpt lat="43.796377589200844" lon="10.961307524573177"><ele>403.0</ele><time>2026-04-19T08:56:36.99Z</time></trkpt><trkpt lat="43.7963339759979" lon="10.961371581043558"><ele>403.0</ele><time>2026-04-19T08:56:39.99Z</time></trkpt><trkpt lat="43.79630780861406" lon="10.961473709713944"><ele>403.0</ele><time>2026-04-19T08:56:43.99Z</time></trkpt><trkpt lat="43.79625994739838" lon="10.961533982587065"><ele>403.0</ele><time>2026-04-19T08:56:46.99Z</time></trkpt><trkpt lat="43.7962052900546" lon="10.96161348951541"><ele>403.14285714285717</ele><time>2026-04-19T08:56:50.99Z</time></trkpt><trkpt lat="43.79616106310429" lon="10.961708625605086"><ele>403.2857142857143</ele><time>2026-04-19T08:56:54.99Z</time></trkpt><trkpt lat="43.796126250401635" lon="10.961782859591308"><ele>403.42857142857144</ele><time>2026-04-19T08:56:57.99Z</time></trkpt><trkpt lat="43.79608442794883" lon="10.961881970282196"><ele>403.57142857142856</ele><time>2026-04-19T08:57:01.99Z</time></trkpt><trkpt lat="43.796052058226586" lon="10.96196110372344"><ele>403.71428571428567</ele><time>2026-04-19T08:57:04.99Z</time></trkpt><trkpt lat="43.79601469005706" lon="10.962031751811805"><ele>403.85714285714283</ele><time>2026-04-19T08:57:07.99Z</time></trkpt><trkpt lat="43.795970332182975" lon="10.962121842513687"><ele>404.0</ele><time>2026-04-19T08:57:11.99Z</time></trkpt><trkpt lat="43.79593352737968" lon="10.962211706521368"><ele>400.7142857142857</ele><time>2026-04-19T08:57:15.99Z</time></trkpt><trkpt lat="43.795898782813865" lon="10.962300975555763"><ele>397.42857142857144</ele><time>2026-04-19T08:57:19.99Z</time></trkpt><trkpt lat="43.7958623156328" lon="10.962397474012308"><ele>394.1428571428571</ele><time>2026-04-19T08:57:23.99Z</time></trkpt><trkpt lat="43.795815384734496" lon="10.962481882415497"><ele>390.8571428571429</ele><time>2026-04-19T08:57:27.99Z</time></trkpt><trkpt lat="43.79581067684168" lon="10.962577601013196"><ele>387.5714285714286</ele><time>2026-04-19T08:57:30.99Z</time></trkpt><trkpt lat="43.79582840065763" lon="10.962666950516224"><ele>384.2857142857143</ele><time>2026-04-19T08:57:33.99Z</time></trkpt><trkpt lat="43.79583661190244" lon="10.962781427687206"><ele>381.0</ele><time>2026-04-19T08:57:37.99Z</time></trkpt><trkpt lat="43.795864786198145" lon="10.962875226483533"><ele>379.6666666666667</ele><time>2026-04-19T08:57:41.989Z</time></trkpt><trkpt lat="43.79593324694033" lon="10.96294139367403"><ele>378.3333333333333</ele><time>2026-04-19T08:57:45.989Z</time></trkpt><trkpt lat="43.79599419514548" lon="10.962978417759427"><ele>377.0</ele><time>2026-04-19T08:57:48.989Z</time></trkpt><trkpt lat="43.796056135385136" lon="10.963028711086341"><ele>375.66666666666663</ele><time>2026-04-19T08:57:52.989Z</time></trkpt><trkpt lat="43.796132347548856" lon="10.96304969374613"><ele>374.3333333333333</ele><time>2026-04-19T08:57:58.989Z</time></trkpt><trkpt lat="43.796200494922815" lon="10.963113970508845"><ele>373.0</ele><time>2026-04-19T08:58:02.989Z</time></trkpt><trkpt lat="43.796263822068205" lon="10.963172830287666"><ele>376.7142857142857</ele><time>2026-04-19T08:58:05.989Z</time></trkpt><trkpt lat="43.79631607278904" lon="10.963242383356409"><ele>380.42857142857144</ele><time>2026-04-19T08:58:08.989Z</time></trkpt><trkpt lat="43.79634764261366" lon="10.963323639858102"><ele>384.1428571428571</ele><time>2026-04-19T08:58:11.989Z</time></trkpt><trkpt lat="43.79636106964955" lon="10.963430518210888"><ele>387.8571428571429</ele><time>2026-04-19T08:58:15.989Z</time></trkpt><trkpt lat="43.79633207933717" lon="10.963527694617344"><ele>391.57142857142856</ele><time>2026-04-19T08:58:20Z</time></trkpt><trkpt lat="43.79626502548087" lon="10.963593188193363"><ele>395.2857142857143</ele><time>2026-04-19T08:58:24Z</time></trkpt><trkpt lat="43.796204947837296" lon="10.963647258087494"><ele>399.0</ele><time>2026-04-19T08:58:28Z</time></trkpt><trkpt lat="43.79614384497584" lon="10.963696556820253"><ele>399.0</ele><time>2026-04-19T08:58:32Z</time></trkpt><trkpt lat="43.79609093234079" lon="10.963746552585468"><ele>399.0</ele><time>2026-04-19T08:58:35Z</time></trkpt><trkpt lat="43.79601835002412" lon="10.9637938056125"><ele>399.0</ele><time>2026-04-19T08:58:39Z</time></trkpt><trkpt lat="43.7959418716721" lon="10.963826846514436"><ele>399.0</ele><time>2026-04-19T08:58:43Z</time></trkpt><trkpt lat="43.7958773890262" lon="10.963897812180686"><ele>399.0</ele><time>2026-04-19T08:58:47Z</time></trkpt><trkpt lat="43.79585428286632" lon="10.96397919621137"><ele>399.0</ele><time>2026-04-19T08:58:50Z</time></trkpt><trkpt lat="43.79584551301775" lon="10.964066806681545"><ele>399.0</ele><time>2026-04-19T08:58:53Z</time></trkpt><trkpt lat="43.79584093946922" lon="10.96415632629775"><ele>396.0</ele><time>2026-04-19T08:58:56Z</time></trkpt><trkpt lat="43.79584024726816" lon="10.964244532959043"><ele>393.0</ele><time>2026-04-19T08:58:59Z</time></trkpt><trkpt lat="43.79583635219605" lon="10.964332964262617"><ele>390.0</ele><time>2026-04-19T08:59:02Z</time></trkpt><trkpt lat="43.795837968333785" lon="10.964420569267686"><ele>387.0</ele><time>2026-04-19T08:59:05Z</time></trkpt><trkpt lat="43.795865249026846" lon="10.964508129473945"><ele>384.0</ele><time>2026-04-19T08:59:08.001Z</time></trkpt><trkpt lat="43.79589984825734" lon="10.964594646735982"><ele>381.0</ele><time>2026-04-19T08:59:11Z</time></trkpt><trkpt lat="43.7959401212582" lon="10.964682286128554"><ele>378.0</ele><time>2026-04-19T08:59:15.001Z</time></trkpt><trkpt lat="43.79597802087713" lon="10.96477262496734"><ele>378.0</ele><time>2026-04-19T08:59:18Z</time></trkpt><trkpt lat="43.79602282160169" lon="10.964842307634983"><ele>378.0</ele><time>2026-04-19T08:59:21Z</time></trkpt><trkpt lat="43.79603217353288" lon="10.964932254940766"><ele>378.0</ele><time>2026-04-19T08:59:24Z</time></trkpt><trkpt lat="43.795991673687496" lon="10.965038264183745"><ele>378.0</ele><time>2026-04-19T08:59:28Z</time></trkpt><trkpt lat="43.795931477181384" lon="10.965066244034926"><ele>378.0</ele><time>2026-04-19T08:59:31Z</time></trkpt><trkpt lat="43.7958600996334" lon="10.965070089911103"><ele>378.0</ele><time>2026-04-19T08:59:35Z</time></trkpt><trkpt lat="43.79580943516635" lon="10.965007300494"><ele>378.0</ele><time>2026-04-19T08:59:38Z</time></trkpt><trkpt lat="43.79574850587608" lon="10.964953381511522"><ele>378.0</ele><time>2026-04-19T08:59:41Z</time></trkpt><trkpt lat="43.795683430171984" lon="10.964891797518241"><ele>378.0</ele><time>2026-04-19T08:59:45Z</time></trkpt><trkpt lat="43.795622091574835" lon="10.964821185063691"><ele>378.0</ele><time>2026-04-19T08:59:49Z</time></trkpt><trkpt lat="43.795556316709046" lon="10.96476549152003"><ele>378.0</ele><time>2026-04-19T08:59:53Z</time></trkpt><trkpt lat="43.795488506118126" lon="10.964731086804683"><ele>378.0</ele><time>2026-04-19T08:59:57Z</time></trkpt><trkpt lat="43.79541731464643" lon="10.964676130997507"><ele>378.0</ele><time>2026-04-19T09:00:01Z</time></trkpt><trkpt lat="43.7953624069016" lon="10.964631593745866"><ele>378.0</ele><time>2026-04-19T09:00:04Z</time></trkpt><trkpt lat="43.79529422974607" lon="10.964599323543906"><ele>378.0</ele><time>2026-04-19T09:00:08Z</time></trkpt><trkpt lat="43.79521720225355" lon="10.964563823265498"><ele>378.0</ele><time>2026-04-19T09:00:12Z</time></trkpt><trkpt lat="43.7951398157311" lon="10.964544440493313"><ele>378.0</ele><time>2026-04-19T09:00:16Z</time></trkpt><trkpt lat="43.79506309425867" lon="10.964538372601924"><ele>378.0</ele><time>2026-04-19T09:00:20Z</time></trkpt><trkpt lat="43.79499191519865" lon="10.964508833528742"><ele>378.0</ele><time>2026-04-19T09:00:23.999Z</time></trkpt><trkpt lat="43.79491471751628" lon="10.964519716678847"><ele>378.8333333333333</ele><time>2026-04-19T09:00:27.999Z</time></trkpt><trkpt lat="43.794842171083765" lon="10.964498713806906"><ele>379.6666666666667</ele><time>2026-04-19T09:00:31.999Z</time></trkpt><trkpt lat="43.79476100048211" lon="10.964485632979317"><ele>380.5</ele><time>2026-04-19T09:00:35.999Z</time></trkpt><trkpt lat="43.79468401343457" lon="10.964456460974334"><ele>381.33333333333337</ele><time>2026-04-19T09:00:39.999Z</time></trkpt><trkpt lat="43.79460776012872" lon="10.96443205020176"><ele>382.1666666666667</ele><time>2026-04-19T09:00:43.999Z</time></trkpt><trkpt lat="43.79452711995594" lon="10.96439825178803"><ele>383.0</ele><time>2026-04-19T09:00:47.999Z</time></trkpt><trkpt lat="43.79444519371141" lon="10.964377439111836"><ele>383.0</ele><time>2026-04-19T09:00:51.999Z</time></trkpt><trkpt lat="43.79437407738458" lon="10.964347158298137"><ele>383.0</ele><time>2026-04-19T09:00:55.999Z</time></trkpt><trkpt lat="43.79430277704427" lon="10.96437041237501"><ele>383.0</ele><time>2026-04-19T09:00:59.999Z</time></trkpt><trkpt lat="43.794240041872484" lon="10.964336826642636"><ele>383.0</ele><time>2026-04-19T09:01:03.999Z</time></trkpt><trkpt lat="43.794177342517344" lon="10.96431410965228"><ele>383.0</ele><time>2026-04-19T09:01:07.999Z</time></trkpt><trkpt lat="43.794112247304724" lon="10.964317201329663"><ele>383.0</ele><time>2026-04-19T09:01:13.001Z</time></trkpt><trkpt lat="43.79416906122705" lon="10.964401840971998"><ele>383.0</ele><time>2026-04-19T09:01:26.001Z</time></trkpt><trkpt lat="43.79422893837034" lon="10.964479575625145"><ele>383.0</ele><time>2026-04-19T09:01:32.001Z</time></trkpt><trkpt lat="43.794291493892224" lon="10.96450222043706"><ele>383.0</ele><time>2026-04-19T09:01:38.001Z</time></trkpt><trkpt lat="43.79435268465304" lon="10.964403295788792"><ele>383.0</ele><time>2026-04-19T09:01:56.001Z</time></trkpt><trkpt lat="43.79442471588662" lon="10.96442311659391"><ele>383.0</ele><time>2026-04-19T09:02:01.001Z</time></trkpt><trkpt lat="43.794376404988796" lon="10.96435682605121"><ele>383.0</ele><time>2026-04-19T09:02:15Z</time></trkpt><trkpt lat="43.79431252647123" lon="10.964344008244096"><ele>383.0</ele><time>2026-04-19T09:02:18Z</time></trkpt><trkpt lat="43.79424127999593" lon="10.964346902252997"><ele>383.0</ele><time>2026-04-19T09:02:22Z</time></trkpt><trkpt lat="43.7941610761926" lon="10.964345454065953"><ele>381.7142857142857</ele><time>2026-04-19T09:02:26Z</time></trkpt><trkpt lat="43.794109016464255" lon="10.964288347352989"><ele>380.42857142857144</ele><time>2026-04-19T09:02:29Z</time></trkpt><trkpt lat="43.79404177836469" lon="10.964219482028927"><ele>379.1428571428571</ele><time>2026-04-19T09:02:33Z</time></trkpt><trkpt lat="43.7939821871594" lon="10.964142692044836"><ele>377.8571428571429</ele><time>2026-04-19T09:02:37Z</time></trkpt><trkpt lat="43.793930434849926" lon="10.964084999564173"><ele>376.5714285714286</ele><time>2026-04-19T09:02:40Z</time></trkpt><trkpt lat="43.79388950135087" lon="10.964015693514387"><ele>375.2857142857143</ele><time>2026-04-19T09:02:43Z</time></trkpt><trkpt lat="43.7938339045433" lon="10.963941455774428"><ele>374.0</ele><time>2026-04-19T09:02:47Z</time></trkpt><trkpt lat="43.79379109251883" lon="10.96384550671629"><ele>372.7142857142857</ele><time>2026-04-19T09:02:51Z</time></trkpt><trkpt lat="43.793716127630695" lon="10.963855504225771"><ele>371.42857142857144</ele><time>2026-04-19T09:02:55Z</time></trkpt><trkpt lat="43.79366698166346" lon="10.963917123107699"><ele>370.14285714285717</ele><time>2026-04-19T09:02:59Z</time></trkpt><trkpt lat="43.79372569679447" lon="10.963869761847416"><ele>368.8571428571429</ele><time>2026-04-19T09:03:17.002Z</time></trkpt><trkpt lat="43.793653296027095" lon="10.963883772164452"><ele>367.57142857142856</ele><time>2026-04-19T09:03:23.001Z</time></trkpt><trkpt lat="43.79363747998013" lon="10.96399208055684"><ele>366.28571428571433</ele><time>2026-04-19T09:03:27.002Z</time></trkpt><trkpt lat="43.79360035040133" lon="10.964089189406161"><ele>365.0</ele><time>2026-04-19T09:03:31.001Z</time></trkpt><trkpt lat="43.79355652717831" lon="10.96415822347899"><ele>365.28571428571433</ele><time>2026-04-19T09:03:34.001Z</time></trkpt><trkpt lat="43.79352111024272" lon="10.964231088638487"><ele>365.57142857142856</ele><time>2026-04-19T09:03:37.001Z</time></trkpt><trkpt lat="43.79348831352888" lon="10.964308573757446"><ele>365.8571428571429</ele><time>2026-04-19T09:03:40.001Z</time></trkpt><trkpt lat="43.79345340572268" lon="10.964389702327352"><ele>366.14285714285717</ele><time>2026-04-19T09:03:43.001Z</time></trkpt><trkpt lat="43.793410060780026" lon="10.964467110913265"><ele>366.42857142857144</ele><time>2026-04-19T09:03:46.001Z</time></trkpt><trkpt lat="43.79332842860019" lon="10.964479175738296"><ele>366.7142857142857</ele><time>2026-04-19T09:03:49.001Z</time></trkpt><trkpt lat="43.79326212091556" lon="10.964440834298701"><ele>367.0</ele><time>2026-04-19T09:03:52.001Z</time></trkpt><trkpt lat="43.79320978379174" lon="10.964361379680161"><ele>367.0</ele><time>2026-04-19T09:03:56.001Z</time></trkpt><trkpt lat="43.793146143943666" lon="10.964329679818563"><ele>367.0</ele><time>2026-04-19T09:03:59.001Z</time></trkpt><trkpt lat="43.79306588511247" lon="10.964295219470896"><ele>367.0</ele><time>2026-04-19T09:04:03.001Z</time></trkpt><trkpt lat="43.7929980100741" lon="10.964275529145828"><ele>367.0</ele><time>2026-04-19T09:04:06.001Z</time></trkpt><trkpt lat="43.79293008456446" lon="10.964248350432296"><ele>367.0</ele><time>2026-04-19T09:04:09.001Z</time></trkpt><trkpt lat="43.79285419968088" lon="10.964210671532173"><ele>367.0</ele><time>2026-04-19T09:04:13.001Z</time></trkpt><trkpt lat="43.79278729923587" lon="10.964194599424813"><ele>367.0</ele><time>2026-04-19T09:04:16.001Z</time></trkpt><trkpt lat="43.79272374724576" lon="10.964202131252975"><ele>367.2857142857143</ele><time>2026-04-19T09:04:19.001Z</time></trkpt><trkpt lat="43.79265720889743" lon="10.96421627017947"><ele>367.5714285714286</ele><time>2026-04-19T09:04:22.001Z</time></trkpt><trkpt lat="43.79258654136501" lon="10.964237241950327"><ele>367.8571428571429</ele><time>2026-04-19T09:04:25.001Z</time></trkpt><trkpt lat="43.79252151198778" lon="10.964284817254937"><ele>368.1428571428571</ele><time>2026-04-19T09:04:28.001Z</time></trkpt><trkpt lat="43.79245522306642" lon="10.964309452744745"><ele>368.42857142857144</ele><time>2026-04-19T09:04:31.001Z</time></trkpt><trkpt lat="43.79237746685254" lon="10.964271923316584"><ele>368.7142857142857</ele><time>2026-04-19T09:04:34.001Z</time></trkpt><trkpt lat="43.792326444364996" lon="10.96419574780112"><ele>369.0</ele><time>2026-04-19T09:04:37.001Z</time></trkpt><trkpt lat="43.7922485810415" lon="10.964182690385224"><ele>369.0</ele><time>2026-04-19T09:04:41.001Z</time></trkpt><trkpt lat="43.79218383694694" lon="10.96421617305245"><ele>369.0</ele><time>2026-04-19T09:04:49.001Z</time></trkpt><trkpt lat="43.79211448383912" lon="10.964231188970377"><ele>369.0</ele><time>2026-04-19T09:04:54.001Z</time></trkpt><trkpt lat="43.792051685764854" lon="10.96424853874843"><ele>369.0</ele><time>2026-04-19T09:04:57.001Z</time></trkpt><trkpt lat="43.79196778598459" lon="10.96425646770984"><ele>369.0</ele><time>2026-04-19T09:05:01.001Z</time></trkpt><trkpt lat="43.79190345485385" lon="10.964266283857802"><ele>369.0</ele><time>2026-04-19T09:05:04Z</time></trkpt><trkpt lat="43.79182866877266" lon="10.964294667426834"><ele>369.0</ele><time>2026-04-19T09:05:08Z</time></trkpt><trkpt lat="43.791754678878966" lon="10.96430729063268"><ele>369.1428571428571</ele><time>2026-04-19T09:05:12Z</time></trkpt><trkpt lat="43.79168862821848" lon="10.964323501968966"><ele>369.2857142857143</ele><time>2026-04-19T09:05:16Z</time></trkpt><trkpt lat="43.791617046633675" lon="10.964331777963027"><ele>369.42857142857144</ele><time>2026-04-19T09:05:20Z</time></trkpt><trkpt lat="43.79155066565059" lon="10.964345123891484"><ele>369.57142857142856</ele><time>2026-04-19T09:05:24.002Z</time></trkpt><trkpt lat="43.7914849020083" lon="10.964337832772449"><ele>369.7142857142857</ele><time>2026-04-19T09:05:28.002Z</time></trkpt><trkpt lat="43.79140903552068" lon="10.964320513693833"><ele>369.85714285714283</ele><time>2026-04-19T09:05:33.002Z</time></trkpt><trkpt lat="43.79134882309119" lon="10.964350138210198"><ele>370.0</ele><time>2026-04-19T09:05:37.002Z</time></trkpt><trkpt lat="43.79128504344886" lon="10.964405781077454"><ele>369.99999999999994</ele><time>2026-04-19T09:05:42.002Z</time></trkpt><trkpt lat="43.79121906620699" lon="10.964438981664458"><ele>370.0</ele><time>2026-04-19T09:05:46.002Z</time></trkpt><trkpt lat="43.79115234131731" lon="10.964478726435841"><ele>370.0</ele><time>2026-04-19T09:05:50.002Z</time></trkpt><trkpt lat="43.79107788345798" lon="10.964511471365585"><ele>370.0</ele><time>2026-04-19T09:05:54.002Z</time></trkpt><trkpt lat="43.79101189086615" lon="10.96456217968708"><ele>370.0</ele><time>2026-04-19T09:05:58.002Z</time></trkpt><trkpt lat="43.79094803722203" lon="10.964616559528585"><ele>369.99999999999994</ele><time>2026-04-19T09:06:02.002Z</time></trkpt><trkpt lat="43.790895563011325" lon="10.964668980173448"><ele>370.0</ele><time>2026-04-19T09:06:06.002Z</time></trkpt><trkpt lat="43.790861380171215" lon="10.964764361116858"><ele>369.99999999999994</ele><time>2026-04-19T09:06:11.002Z</time></trkpt><trkpt lat="43.79082861794827" lon="10.964847427794108"><ele>370.0</ele><time>2026-04-19T09:06:15.002Z</time></trkpt><trkpt lat="43.79079686458108" lon="10.964939878697715"><ele>370.0</ele><time>2026-04-19T09:06:20.002Z</time></trkpt><trkpt lat="43.790795226959816" lon="10.965033353051654"><ele>370.0</ele><time>2026-04-19T09:06:26.001Z</time></trkpt><trkpt lat="43.790831988468256" lon="10.96510954927789"><ele>370.0</ele><time>2026-04-19T09:06:32.001Z</time></trkpt><trkpt lat="43.790901539073836" lon="10.965150374473538"><ele>369.99999999999994</ele><time>2026-04-19T09:06:39.001Z</time></trkpt><trkpt lat="43.79096003472205" lon="10.965212898380699"><ele>370.0</ele><time>2026-04-19T09:06:47.001Z</time></trkpt><trkpt lat="43.790890948011366" lon="10.965208531401993"><ele>370.0</ele><time>2026-04-19T09:07:14.001Z</time></trkpt><trkpt lat="43.79088330062847" lon="10.965314089242135"><ele>370.0</ele><time>2026-04-19T09:07:18.001Z</time></trkpt><trkpt lat="43.79088551717494" lon="10.965413188106139"><ele>370.0</ele><time>2026-04-19T09:07:22.001Z</time></trkpt><trkpt lat="43.79087905663511" lon="10.965518702004712"><ele>370.0</ele><time>2026-04-19T09:07:26.001Z</time></trkpt><trkpt lat="43.79087226331669" lon="10.965634770627194"><ele>370.0</ele><time>2026-04-19T09:07:31.002Z</time></trkpt><trkpt lat="43.7908876548903" lon="10.965547424345058"><ele>370.0</ele><time>2026-04-19T09:07:47.002Z</time></trkpt><trkpt lat="43.79089924872602" lon="10.965439395902767"><ele>369.99999999999994</ele><time>2026-04-19T09:07:52.002Z</time></trkpt><trkpt lat="43.790907325073626" lon="10.965335170724872"><ele>370.0</ele><time>2026-04-19T09:07:56.002Z</time></trkpt><trkpt lat="43.79091144165126" lon="10.965242504921703"><ele>370.0</ele><time>2026-04-19T09:08:00.002Z</time></trkpt><trkpt lat="43.79097743565379" lon="10.965235913886785"><ele>370.0</ele><time>2026-04-19T09:08:07.002Z</time></trkpt><trkpt lat="43.79104022012886" lon="10.965271389681654"><ele>370.0</ele><time>2026-04-19T09:08:16.002Z</time></trkpt><trkpt lat="43.79109297520041" lon="10.965319518742524"><ele>369.99999999999994</ele><time>2026-04-19T09:08:25.002Z</time></trkpt><trkpt lat="43.7911534392888" lon="10.965373554101806"><ele>370.0</ele><time>2026-04-19T09:08:33.002Z</time></trkpt><trkpt lat="43.791204298670905" lon="10.965426994340259"><ele>371.99999999999994</ele><time>2026-04-19T09:08:40.002Z</time></trkpt><trkpt lat="43.79125937727221" lon="10.965469601365685"><ele>374.0</ele><time>2026-04-19T09:08:46.001Z</time></trkpt><trkpt lat="43.79131044459301" lon="10.965533297434476"><ele>376.0</ele><time>2026-04-19T09:08:54.001Z</time></trkpt><trkpt lat="43.791353328462705" lon="10.965609619049987"><ele>378.0</ele><time>2026-04-19T09:09:02.001Z</time></trkpt><trkpt lat="43.79140771765684" lon="10.965659401398772"><ele>380.0</ele><time>2026-04-19T09:09:09.001Z</time></trkpt><trkpt lat="43.79147116686026" lon="10.965700251029677"><ele>381.99999999999994</ele><time>2026-04-19T09:09:16.001Z</time></trkpt><trkpt lat="43.791532205039935" lon="10.96572287064251"><ele>384.0</ele><time>2026-04-19T09:09:23.001Z</time></trkpt><trkpt lat="43.79160205097985" lon="10.965745820636897"><ele>383.99999999999994</ele><time>2026-04-19T09:09:30.001Z</time></trkpt><trkpt lat="43.79166538640468" lon="10.965778339059554"><ele>384.0</ele><time>2026-04-19T09:09:37.002Z</time></trkpt><trkpt lat="43.79172739880052" lon="10.965804469057899"><ele>384.0</ele><time>2026-04-19T09:09:43.002Z</time></trkpt><trkpt lat="43.79178605394933" lon="10.965837616018346"><ele>384.0</ele><time>2026-04-19T09:09:48.003Z</time></trkpt><trkpt lat="43.79185663285341" lon="10.965874061427135"><ele>384.0</ele><time>2026-04-19T09:09:54.003Z</time></trkpt><trkpt lat="43.79193047193776" lon="10.965902268040523"><ele>383.99999999999994</ele><time>2026-04-19T09:09:59.003Z</time></trkpt><trkpt lat="43.79200078964559" lon="10.965930586142242"><ele>384.0</ele><time>2026-04-19T09:10:04.003Z</time></trkpt><trkpt lat="43.79204015953079" lon="10.966000290412733"><ele>386.71428571428567</ele><time>2026-04-19T09:10:08.003Z</time></trkpt><trkpt lat="43.792058667304666" lon="10.966091101024633"><ele>389.42857142857144</ele><time>2026-04-19T09:10:15.002Z</time></trkpt><trkpt lat="43.7920617415244" lon="10.966178329969107"><ele>392.1428571428571</ele><time>2026-04-19T09:10:23.002Z</time></trkpt><trkpt lat="43.79207394881406" lon="10.966273091351423"><ele>394.85714285714283</ele><time>2026-04-19T09:10:31.002Z</time></trkpt><trkpt lat="43.79208271908564" lon="10.966370569400521"><ele>397.57142857142856</ele><time>2026-04-19T09:10:40.002Z</time></trkpt><trkpt lat="43.79208634924375" lon="10.966461192307044"><ele>400.2857142857143</ele><time>2026-04-19T09:10:51.002Z</time></trkpt><trkpt lat="43.792089164027" lon="10.966558577499526"><ele>403.0</ele><time>2026-04-19T09:11:02.002Z</time></trkpt><trkpt lat="43.792096585471" lon="10.96665490402144"><ele>405.8571428571429</ele><time>2026-04-19T09:11:12.002Z</time></trkpt><trkpt lat="43.792068516453" lon="10.966736458542771"><ele>408.71428571428567</ele><time>2026-04-19T09:11:21.002Z</time></trkpt><trkpt lat="43.792067829292925" lon="10.966833444200114"><ele>411.57142857142856</ele><time>2026-04-19T09:11:31.002Z</time></trkpt><trkpt lat="43.79207177426298" lon="10.966921018579908"><ele>414.42857142857144</ele><time>2026-04-19T09:11:39.002Z</time></trkpt><trkpt lat="43.79208074517761" lon="10.96700742088782"><ele>417.28571428571433</ele><time>2026-04-19T09:11:49.002Z</time></trkpt><trkpt lat="43.79214115844704" lon="10.967056083648599"><ele>420.1428571428571</ele><time>2026-04-19T09:11:56.002Z</time></trkpt><trkpt lat="43.792194113320996" lon="10.967103925560826"><ele>423.0</ele><time>2026-04-19T09:12:03.002Z</time></trkpt><trkpt lat="43.7922601125955" lon="10.967122379485906"><ele>423.0</ele><time>2026-04-19T09:12:09.002Z</time></trkpt><trkpt lat="43.792328392728976" lon="10.967152265976848"><ele>423.0</ele><time>2026-04-19T09:12:20.002Z</time></trkpt><trkpt lat="43.79226190306552" lon="10.967194157388592"><ele>423.0</ele><time>2026-04-19T09:12:36.002Z</time></trkpt><trkpt lat="43.79220544805621" lon="10.967236233399236"><ele>423.0</ele><time>2026-04-19T09:12:43.002Z</time></trkpt><trkpt lat="43.792143004582776" lon="10.967249489663024"><ele>423.0</ele><time>2026-04-19T09:12:48.002Z</time></trkpt><trkpt lat="43.79208322043149" lon="10.967280959861894"><ele>423.0</ele><time>2026-04-19T09:12:52.002Z</time></trkpt><trkpt lat="43.79202355091308" lon="10.967312873659798"><ele>423.0</ele><time>2026-04-19T09:12:56.002Z</time></trkpt><trkpt lat="43.79194759015512" lon="10.967310162440148"><ele>423.0</ele><time>2026-04-19T09:13:01.002Z</time></trkpt><trkpt lat="43.791891425435" lon="10.96727067171443"><ele>423.0</ele><time>2026-04-19T09:13:04.002Z</time></trkpt><trkpt lat="43.79181786778632" lon="10.967290494538004"><ele>423.0</ele><time>2026-04-19T09:13:08.002Z</time></trkpt><trkpt lat="43.7917586743978" lon="10.967348621578934"><ele>423.0</ele><time>2026-04-19T09:13:12.002Z</time></trkpt><trkpt lat="43.79170380632222" lon="10.9674105914879"><ele>423.0</ele><time>2026-04-19T09:13:16.002Z</time></trkpt><trkpt lat="43.79168047739522" lon="10.967504605466415"><ele>423.0</ele><time>2026-04-19T09:13:20.002Z</time></trkpt><trkpt lat="43.79172079209943" lon="10.967582794009859"><ele>423.0</ele><time>2026-04-19T09:13:38.001Z</time></trkpt><trkpt lat="43.79177832913606" lon="10.967624044785309"><ele>424.7142857142857</ele><time>2026-04-19T09:13:45.002Z</time></trkpt><trkpt lat="43.791842915771895" lon="10.967673135357389"><ele>426.42857142857144</ele><time>2026-04-19T09:13:52.002Z</time></trkpt><trkpt lat="43.791892185914335" lon="10.967738404139226"><ele>428.14285714285717</ele><time>2026-04-19T09:14:00.002Z</time></trkpt><trkpt lat="43.791959529941025" lon="10.96771972112769"><ele>429.8571428571429</ele><time>2026-04-19T09:14:07.002Z</time></trkpt><trkpt lat="43.79202573888585" lon="10.967727199381379"><ele>431.57142857142856</ele><time>2026-04-19T09:14:13.002Z</time></trkpt><trkpt lat="43.79203995878895" lon="10.967816485426301"><ele>433.28571428571433</ele><time>2026-04-19T09:14:21.002Z</time></trkpt><trkpt lat="43.79207321573433" lon="10.967905007370259"><ele>435.0</ele><time>2026-04-19T09:14:29.002Z</time></trkpt><trkpt lat="43.79211343743414" lon="10.96797310600607"><ele>435.00000000000006</ele><time>2026-04-19T09:14:35.002Z</time></trkpt><trkpt lat="43.79214813758666" lon="10.968049709050357"><ele>435.0</ele><time>2026-04-19T09:14:41.002Z</time></trkpt><trkpt lat="43.79221267391514" lon="10.968095329220475"><ele>435.0</ele><time>2026-04-19T09:14:48.001Z</time></trkpt><trkpt lat="43.79227106772246" lon="10.96814895059926"><ele>435.0</ele><time>2026-04-19T09:14:54.001Z</time></trkpt><trkpt lat="43.792324964704584" lon="10.9682128430503"><ele>435.0</ele><time>2026-04-19T09:15:00.001Z</time></trkpt><trkpt lat="43.79238170699484" lon="10.968268615515381"><ele>435.00000000000006</ele><time>2026-04-19T09:15:06.001Z</time></trkpt><trkpt lat="43.79243897017451" lon="10.96833405540573"><ele>435.0</ele><time>2026-04-19T09:15:12.001Z</time></trkpt><trkpt lat="43.792501728496255" lon="10.968385841238035"><ele>434.42857142857144</ele><time>2026-04-19T09:15:18.001Z</time></trkpt><trkpt lat="43.792564111275475" lon="10.968420322761482"><ele>433.8571428571429</ele><time>2026-04-19T09:15:24.001Z</time></trkpt><trkpt lat="43.79263625294284" lon="10.968457914391156"><ele>433.28571428571433</ele><time>2026-04-19T09:15:30.001Z</time></trkpt><trkpt lat="43.79269579017265" lon="10.968501666677982"><ele>432.7142857142857</ele><time>2026-04-19T09:15:36.001Z</time></trkpt><trkpt lat="43.79276337770485" lon="10.968543166880197"><ele>432.1428571428571</ele><time>2026-04-19T09:15:43.001Z</time></trkpt><trkpt lat="43.79282344816361" lon="10.968586082153799"><ele>431.5714285714286</ele><time>2026-04-19T09:15:48.001Z</time></trkpt><trkpt lat="43.79288591346208" lon="10.968637036553668"><ele>431.0</ele><time>2026-04-19T09:15:53.002Z</time></trkpt><trkpt lat="43.79293695557764" lon="10.968694490890083"><ele>433.2857142857143</ele><time>2026-04-19T09:15:58.002Z</time></trkpt><trkpt lat="43.792990394067175" lon="10.968745576701444"><ele>435.57142857142856</ele><time>2026-04-19T09:16:02.001Z</time></trkpt><trkpt lat="43.79305321315807" lon="10.968788203657832"><ele>437.85714285714283</ele><time>2026-04-19T09:16:06.001Z</time></trkpt><trkpt lat="43.79311368514422" lon="10.968842793899622"><ele>440.1428571428571</ele><time>2026-04-19T09:16:14.001Z</time></trkpt><trkpt lat="43.79318427458205" lon="10.968885984002279"><ele>442.42857142857144</ele><time>2026-04-19T09:16:19.001Z</time></trkpt><trkpt lat="43.79325055002941" lon="10.968931378644832"><ele>444.71428571428567</ele><time>2026-04-19T09:16:25.001Z</time></trkpt><trkpt lat="43.79330880695857" lon="10.968997755339581"><ele>447.0</ele><time>2026-04-19T09:16:31.001Z</time></trkpt><trkpt lat="43.79336723672222" lon="10.969047247730938"><ele>446.99999999999994</ele><time>2026-04-19T09:16:36.001Z</time></trkpt><trkpt lat="43.79343685500475" lon="10.96909659111883"><ele>447.0</ele><time>2026-04-19T09:16:42.001Z</time></trkpt><trkpt lat="43.7934784965988" lon="10.969164548544759"><ele>447.0</ele><time>2026-04-19T09:16:47Z</time></trkpt><trkpt lat="43.793514394410074" lon="10.969237840917566"><ele>447.0</ele><time>2026-04-19T09:16:53Z</time></trkpt><trkpt lat="43.79356564542854" lon="10.969295273815447"><ele>447.0</ele><time>2026-04-19T09:16:58Z</time></trkpt><trkpt lat="43.7936249061324" lon="10.96936199560067"><ele>446.99999999999994</ele><time>2026-04-19T09:17:02Z</time></trkpt><trkpt lat="43.79366796746304" lon="10.96943565928212"><ele>447.0</ele><time>2026-04-19T09:17:07Z</time></trkpt><trkpt lat="43.79372508959419" lon="10.969482789273913"><ele>448.4285714285714</ele><time>2026-04-19T09:17:11Z</time></trkpt><trkpt lat="43.793775745811566" lon="10.969537050018777"><ele>449.8571428571429</ele><time>2026-04-19T09:17:15Z</time></trkpt><trkpt lat="43.79382907763022" lon="10.969583480058311"><ele>451.28571428571433</ele><time>2026-04-19T09:17:20Z</time></trkpt><trkpt lat="43.79388997232959" lon="10.969631732314433"><ele>452.7142857142857</ele><time>2026-04-19T09:17:24Z</time></trkpt><trkpt lat="43.793941221800445" lon="10.969686598194334"><ele>454.14285714285717</ele><time>2026-04-19T09:17:29Z</time></trkpt><trkpt lat="43.79399396745103" lon="10.96973600828048"><ele>455.5714285714286</ele><time>2026-04-19T09:17:34Z</time></trkpt><trkpt lat="43.794057230916835" lon="10.969793861948142"><ele>457.00000000000006</ele><time>2026-04-19T09:17:39Z</time></trkpt><trkpt lat="43.794116490932176" lon="10.969852504445257"><ele>457.00000000000006</ele><time>2026-04-19T09:17:45Z</time></trkpt><trkpt lat="43.794174802754625" lon="10.969904409682204"><ele>457.0</ele><time>2026-04-19T09:17:50Z</time></trkpt><trkpt lat="43.794231420649105" lon="10.969945841817477"><ele>457.00000000000006</ele><time>2026-04-19T09:17:54Z</time></trkpt><trkpt lat="43.79429235200767" lon="10.969998012841042"><ele>457.00000000000006</ele><time>2026-04-19T09:18:01.001Z</time></trkpt><trkpt lat="43.79435132220508" lon="10.970029890643632"><ele>457.0</ele><time>2026-04-19T09:18:07.001Z</time></trkpt><trkpt lat="43.79441075515333" lon="10.97006604659379"><ele>457.00000000000006</ele><time>2026-04-19T09:18:13.001Z</time></trkpt><trkpt lat="43.79448471546299" lon="10.970123414482327"><ele>457.00000000000006</ele><time>2026-04-19T09:18:23.001Z</time></trkpt><trkpt lat="43.79454973408498" lon="10.97016138432849"><ele>458.8571428571429</ele><time>2026-04-19T09:18:28.001Z</time></trkpt><trkpt lat="43.79461421991949" lon="10.970203744137258"><ele>460.7142857142857</ele><time>2026-04-19T09:18:36.001Z</time></trkpt><trkpt lat="43.794678345552384" lon="10.970261865658804"><ele>462.57142857142856</ele><time>2026-04-19T09:18:42.001Z</time></trkpt><trkpt lat="43.794739614315745" lon="10.970326350970774"><ele>464.42857142857144</ele><time>2026-04-19T09:18:47.001Z</time></trkpt><trkpt lat="43.79478669941579" lon="10.970397797303841"><ele>466.2857142857142</ele><time>2026-04-19T09:18:54.001Z</time></trkpt><trkpt lat="43.794834326906134" lon="10.970456686186475"><ele>468.1428571428571</ele><time>2026-04-19T09:18:59.001Z</time></trkpt><trkpt lat="43.794880666257306" lon="10.970517474272894"><ele>470.0</ele><time>2026-04-19T09:19:05.001Z</time></trkpt><trkpt lat="43.79493111245404" lon="10.970586038230634"><ele>470.0</ele><time>2026-04-19T09:19:10Z</time></trkpt><trkpt lat="43.79497089053729" lon="10.97067949041145"><ele>469.99999999999994</ele><time>2026-04-19T09:19:19Z</time></trkpt><trkpt lat="43.79501650805045" lon="10.9707548938255"><ele>470.0</ele><time>2026-04-19T09:19:25Z</time></trkpt><trkpt lat="43.795063657822816" lon="10.970843145075026"><ele>470.0</ele><time>2026-04-19T09:19:31Z</time></trkpt><trkpt lat="43.795097763947744" lon="10.970941893396954"><ele>469.99999999999994</ele><time>2026-04-19T09:19:37Z</time></trkpt><trkpt lat="43.795123835108136" lon="10.971038452343102"><ele>470.0</ele><time>2026-04-19T09:19:44Z</time></trkpt><trkpt lat="43.79514330422521" lon="10.971126501643694"><ele>470.0</ele><time>2026-04-19T09:19:51Z</time></trkpt><trkpt lat="43.79515791224552" lon="10.971231539785995"><ele>472.57142857142856</ele><time>2026-04-19T09:19:58Z</time></trkpt><trkpt lat="43.795173630818695" lon="10.97132259574248"><ele>475.1428571428571</ele><time>2026-04-19T09:20:04.001Z</time></trkpt><trkpt lat="43.795177744207194" lon="10.971411431658629"><ele>477.71428571428567</ele><time>2026-04-19T09:20:10.001Z</time></trkpt><trkpt lat="43.79519758870767" lon="10.971502756988329"><ele>480.2857142857142</ele><time>2026-04-19T09:20:16Z</time></trkpt><trkpt lat="43.79517382079759" lon="10.971603354258006"><ele>482.85714285714283</ele><time>2026-04-19T09:20:22Z</time></trkpt><trkpt lat="43.79519250932569" lon="10.971696230557418"><ele>485.42857142857133</ele><time>2026-04-19T09:20:27Z</time></trkpt><trkpt lat="43.79518015843388" lon="10.971784635311248"><ele>487.99999999999994</ele><time>2026-04-19T09:20:33Z</time></trkpt><trkpt lat="43.79516743613462" lon="10.9718799253104"><ele>487.99999999999994</ele><time>2026-04-19T09:20:39Z</time></trkpt><trkpt lat="43.79515753292884" lon="10.971969688180348"><ele>488.0</ele><time>2026-04-19T09:20:43Z</time></trkpt><trkpt lat="43.795147236552125" lon="10.97205912718422"><ele>487.99999999999994</ele><time>2026-04-19T09:20:49Z</time></trkpt><trkpt lat="43.79514215288041" lon="10.972164006697986"><ele>487.99999999999994</ele><time>2026-04-19T09:20:55Z</time></trkpt><trkpt lat="43.79513318133226" lon="10.972272570994303"><ele>488.0</ele><time>2026-04-19T09:21:01Z</time></trkpt><trkpt lat="43.795108236539804" lon="10.97237139548359"><ele>487.99999999999994</ele><time>2026-04-19T09:21:07Z</time></trkpt><trkpt lat="43.795112468391586" lon="10.972463044597959"><ele>487.99999999999994</ele><time>2026-04-19T09:21:12Z</time></trkpt><trkpt lat="43.79511764384448" lon="10.972556311854195"><ele>488.1428571428571</ele><time>2026-04-19T09:21:16Z</time></trkpt><trkpt lat="43.79513045675202" lon="10.972643826598649"><ele>488.2857142857143</ele><time>2026-04-19T09:21:19.999Z</time></trkpt><trkpt lat="43.79513015473715" lon="10.972740589656912"><ele>488.42857142857144</ele><time>2026-04-19T09:21:24.999Z</time></trkpt><trkpt lat="43.795142983390974" lon="10.972843371000858"><ele>488.57142857142856</ele><time>2026-04-19T09:21:30.999Z</time></trkpt><trkpt lat="43.795170395603336" lon="10.972945904824691"><ele>488.7142857142858</ele><time>2026-04-19T09:21:35.999Z</time></trkpt><trkpt lat="43.79517523847053" lon="10.973048128289493"><ele>488.8571428571429</ele><time>2026-04-19T09:21:40.999Z</time></trkpt><trkpt lat="43.79520029663268" lon="10.97314171108545"><ele>489.0</ele><time>2026-04-19T09:21:45.999Z</time></trkpt><trkpt lat="43.79522857741683" lon="10.97322516801139"><ele>490.0</ele><time>2026-04-19T09:21:50.999Z</time></trkpt><trkpt lat="43.79526002611937" lon="10.973301498959716"><ele>491.00000000000006</ele><time>2026-04-19T09:21:54.999Z</time></trkpt><trkpt lat="43.795319495372304" lon="10.97335273377381"><ele>492.0</ele><time>2026-04-19T09:21:58.999Z</time></trkpt><trkpt lat="43.79530984886201" lon="10.973439472317146"><ele>493.0</ele><time>2026-04-19T09:22:05.999Z</time></trkpt><trkpt lat="43.79532735155529" lon="10.973524759570125"><ele>494.00000000000006</ele><time>2026-04-19T09:22:13.001Z</time></trkpt><trkpt lat="43.795365835836876" lon="10.973598444236382"><ele>495.0</ele><time>2026-04-19T09:22:19Z</time></trkpt><trkpt lat="43.79541435636044" lon="10.973680073414544"><ele>496.0</ele><time>2026-04-19T09:22:30.001Z</time></trkpt><trkpt lat="43.79545040334801" lon="10.973760901510614"><ele>496.00000000000006</ele><time>2026-04-19T09:22:34.001Z</time></trkpt><trkpt lat="43.79548163323636" lon="10.973836835286734"><ele>496.0</ele><time>2026-04-19T09:22:38Z</time></trkpt><trkpt lat="43.79550820856529" lon="10.973940404228763"><ele>496.0</ele><time>2026-04-19T09:22:43Z</time></trkpt><trkpt lat="43.79553951217449" lon="10.974047435801577"><ele>496.0</ele><time>2026-04-19T09:22:47Z</time></trkpt><trkpt lat="43.79557457685752" lon="10.97415714023255"><ele>496.00000000000006</ele><time>2026-04-19T09:22:51Z</time></trkpt><trkpt lat="43.79562111904598" lon="10.974224791178255"><ele>496.0</ele><time>2026-04-19T09:22:54Z</time></trkpt><trkpt lat="43.79564861305798" lon="10.974335433696517"><ele>494.8571428571429</ele><time>2026-04-19T09:23:00Z</time></trkpt><trkpt lat="43.79568709359299" lon="10.97441102126978"><ele>493.7142857142858</ele><time>2026-04-19T09:23:08Z</time></trkpt><trkpt lat="43.7957351270379" lon="10.974476735369532"><ele>492.57142857142856</ele><time>2026-04-19T09:23:22Z</time></trkpt><trkpt lat="43.79578260367618" lon="10.974593993015056"><ele>491.42857142857144</ele><time>2026-04-19T09:23:47Z</time></trkpt><trkpt lat="43.795815747193934" lon="10.974668977583065"><ele>490.2857142857143</ele><time>2026-04-19T09:23:54Z</time></trkpt><trkpt lat="43.79584446578273" lon="10.974767236061515"><ele>489.1428571428571</ele><time>2026-04-19T09:24:00Z</time></trkpt><trkpt lat="43.79586245593497" lon="10.974868327376246"><ele>487.99999999999994</ele><time>2026-04-19T09:24:04Z</time></trkpt><trkpt lat="43.79586818196498" lon="10.974968205045387"><ele>489.99999999999994</ele><time>2026-04-19T09:24:10Z</time></trkpt><trkpt lat="43.79584416672474" lon="10.975065084586202"><ele>492.0</ele><time>2026-04-19T09:24:15.001Z</time></trkpt><trkpt lat="43.79580696521317" lon="10.975145247731177"><ele>493.99999999999994</ele><time>2026-04-19T09:24:20.001Z</time></trkpt><trkpt lat="43.79574137154466" lon="10.975189445602267"><ele>495.99999999999994</ele><time>2026-04-19T09:24:28Z</time></trkpt><trkpt lat="43.79567871349931" lon="10.975218872503651"><ele>498.0</ele><time>2026-04-19T09:24:33Z</time></trkpt><trkpt lat="43.79561826619797" lon="10.97524804987402"><ele>499.99999999999994</ele><time>2026-04-19T09:24:37Z</time></trkpt><trkpt lat="43.79555147115393" lon="10.975241281921694"><ele>501.99999999999994</ele><time>2026-04-19T09:24:42Z</time></trkpt><trkpt lat="43.79548353282627" lon="10.975256435548486"><ele>501.99999999999994</ele><time>2026-04-19T09:24:47Z</time></trkpt><trkpt lat="43.79541262248018" lon="10.975313309051547"><ele>502.0</ele><time>2026-04-19T09:24:51Z</time></trkpt><trkpt lat="43.79535554792796" lon="10.975363968363297"><ele>501.99999999999994</ele><time>2026-04-19T09:24:56Z</time></trkpt><trkpt lat="43.795287937384884" lon="10.975412267074578"><ele>501.99999999999994</ele><time>2026-04-19T09:25:01Z</time></trkpt><trkpt lat="43.79522622343912" lon="10.975454563524233"><ele>502.0</ele><time>2026-04-19T09:25:08Z</time></trkpt><trkpt lat="43.79516221612262" lon="10.975497780628823"><ele>501.99999999999994</ele><time>2026-04-19T09:25:15.999Z</time></trkpt><trkpt lat="43.79510289206594" lon="10.975536572575662"><ele>501.99999999999994</ele><time>2026-04-19T09:25:21.999Z</time></trkpt><trkpt lat="43.79504578021569" lon="10.975591924714708"><ele>503.1428571428571</ele><time>2026-04-19T09:25:28.999Z</time></trkpt><trkpt lat="43.794984691919254" lon="10.975633799841221"><ele>504.2857142857143</ele><time>2026-04-19T09:25:33.999Z</time></trkpt><trkpt lat="43.7949203632686" lon="10.975646432798968"><ele>505.42857142857144</ele><time>2026-04-19T09:25:39.999Z</time></trkpt><trkpt lat="43.79486060625205" lon="10.975687133032872"><ele>506.57142857142856</ele><time>2026-04-19T09:25:44.999Z</time></trkpt><trkpt lat="43.794798379840195" lon="10.975734043424351"><ele>507.7142857142858</ele><time>2026-04-19T09:25:49.999Z</time></trkpt><trkpt lat="43.794734220976856" lon="10.975797582575344"><ele>508.8571428571429</ele><time>2026-04-19T09:25:56.999Z</time></trkpt><trkpt lat="43.7946660973989" lon="10.97584456000523"><ele>510.0</ele><time>2026-04-19T09:26:02.999Z</time></trkpt><trkpt lat="43.79460304960416" lon="10.97591128232279"><ele>510.0</ele><time>2026-04-19T09:26:06.999Z</time></trkpt><trkpt lat="43.7945851974217" lon="10.975997423859615"><ele>510.00000000000006</ele><time>2026-04-19T09:26:12.999Z</time></trkpt><trkpt lat="43.79464208379193" lon="10.976044153993238"><ele>510.0</ele><time>2026-04-19T09:26:19.999Z</time></trkpt><trkpt lat="43.79471989263871" lon="10.976048672137377"><ele>510.0</ele><time>2026-04-19T09:26:31Z</time></trkpt><trkpt lat="43.79474399905003" lon="10.976129302898057"><ele>510.00000000000006</ele><time>2026-04-19T09:26:42Z</time></trkpt><trkpt lat="43.794794982632354" lon="10.976182069446539"><ele>510.0</ele><time>2026-04-19T09:26:49Z</time></trkpt><trkpt lat="43.79485199697536" lon="10.976238878703315"><ele>510.0</ele><time>2026-04-19T09:26:56Z</time></trkpt><trkpt lat="43.794901957549015" lon="10.97629443299469"><ele>510.0</ele><time>2026-04-19T09:27:02Z</time></trkpt><trkpt lat="43.79494779327831" lon="10.976361117832823"><ele>510.00000000000006</ele><time>2026-04-19T09:27:10Z</time></trkpt><trkpt lat="43.79502059974863" lon="10.97638769470612"><ele>510.0</ele><time>2026-04-19T09:27:19Z</time></trkpt><trkpt lat="43.79507883910659" lon="10.976428797965626"><ele>510.0</ele><time>2026-04-19T09:27:26Z</time></trkpt><trkpt lat="43.795156813067166" lon="10.976481440061406"><ele>510.00000000000006</ele><time>2026-04-19T09:27:36Z</time></trkpt><trkpt lat="43.7951938429267" lon="10.97655894303461"><ele>510.0</ele><time>2026-04-19T09:27:48Z</time></trkpt><trkpt lat="43.795238114760245" lon="10.976637119111599"><ele>510.0</ele><time>2026-04-19T09:28:00Z</time></trkpt><trkpt lat="43.795250880709844" lon="10.976724806558865"><ele>513.8571428571429</ele><time>2026-04-19T09:28:08.999Z</time></trkpt><trkpt lat="43.79527558555256" lon="10.976805487739377"><ele>517.7142857142858</ele><time>2026-04-19T09:28:19.999Z</time></trkpt><trkpt lat="43.79533839101199" lon="10.976878939370208"><ele>521.5714285714286</ele><time>2026-04-19T09:28:27Z</time></trkpt><trkpt lat="43.795399088688235" lon="10.976946946124157"><ele>525.4285714285714</ele><time>2026-04-19T09:28:35.001Z</time></trkpt><trkpt lat="43.79544238373917" lon="10.977016997591935"><ele>529.2857142857142</ele><time>2026-04-19T09:28:46Z</time></trkpt><trkpt lat="43.79550296265997" lon="10.977076213667248"><ele>533.1428571428571</ele><time>2026-04-19T09:28:55Z</time></trkpt><trkpt lat="43.795541658685806" lon="10.977160301297932"><ele>537.0</ele><time>2026-04-19T09:29:07Z</time></trkpt><trkpt lat="43.79558373058066" lon="10.977231466063966"><ele>536.9999999999999</ele><time>2026-04-19T09:29:12Z</time></trkpt><trkpt lat="43.795620902399136" lon="10.97730379695962"><ele>537.0</ele><time>2026-04-19T09:29:19Z</time></trkpt><trkpt lat="43.7956516967479" lon="10.977390014794254"><ele>537.0</ele><time>2026-04-19T09:29:28Z</time></trkpt><trkpt lat="43.79567368405975" lon="10.977483165942624"><ele>537.0</ele><time>2026-04-19T09:29:35Z</time></trkpt><trkpt lat="43.795723299836055" lon="10.97754619742"><ele>537.0</ele><time>2026-04-19T09:29:42Z</time></trkpt><trkpt lat="43.795782082838166" lon="10.977594961214116"><ele>536.9999999999999</ele><time>2026-04-19T09:29:49Z</time></trkpt><trkpt lat="43.79576412496156" lon="10.977685420434486"><ele>537.0</ele><time>2026-04-19T09:29:59Z</time></trkpt><trkpt lat="43.795730938842944" lon="10.97775979034423"><ele>537.1428571428571</ele><time>2026-04-19T09:30:04Z</time></trkpt><trkpt lat="43.795699041017336" lon="10.977851434376642"><ele>537.2857142857142</ele><time>2026-04-19T09:30:11Z</time></trkpt><trkpt lat="43.79567361724954" lon="10.977946510416025"><ele>537.4285714285714</ele><time>2026-04-19T09:30:16Z</time></trkpt><trkpt lat="43.79566121154468" lon="10.97805437913339"><ele>537.5714285714286</ele><time>2026-04-19T09:30:21Z</time></trkpt><trkpt lat="43.795675823880515" lon="10.978139360540457"><ele>537.7142857142858</ele><time>2026-04-19T09:30:24Z</time></trkpt><trkpt lat="43.795692966900916" lon="10.978239988640555"><ele>537.8571428571429</ele><time>2026-04-19T09:30:28Z</time></trkpt><trkpt lat="43.79565842504911" lon="10.978345931617373"><ele>538.0</ele><time>2026-04-19T09:30:31.999Z</time></trkpt><trkpt lat="43.795632904001074" lon="10.978443845947774"><ele>538.0</ele><time>2026-04-19T09:30:36.001Z</time></trkpt><trkpt lat="43.79559460867744" lon="10.978541470352178"><ele>538.0</ele><time>2026-04-19T09:30:40.001Z</time></trkpt><trkpt lat="43.79552857468118" lon="10.978603241783503"><ele>538.0</ele><time>2026-04-19T09:30:44.001Z</time></trkpt><trkpt lat="43.79547690019175" lon="10.978684161783868"><ele>538.0</ele><time>2026-04-19T09:30:48.001Z</time></trkpt><trkpt lat="43.79540724751477" lon="10.978739372778007"><ele>538.0</ele><time>2026-04-19T09:30:52.001Z</time></trkpt><trkpt lat="43.7953410159599" lon="10.978791951941277"><ele>538.0</ele><time>2026-04-19T09:30:56.001Z</time></trkpt><trkpt lat="43.795276759456065" lon="10.978841164566443"><ele>538.0</ele><time>2026-04-19T09:31:00.001Z</time></trkpt><trkpt lat="43.79522408594889" lon="10.978910988413215"><ele>538.0</ele><time>2026-04-19T09:31:04.001Z</time></trkpt><trkpt lat="43.79516261925308" lon="10.978976084895548"><ele>538.0</ele><time>2026-04-19T09:31:08.001Z</time></trkpt><trkpt lat="43.79510631506112" lon="10.979036409686879"><ele>538.0</ele><time>2026-04-19T09:31:12.001Z</time></trkpt><trkpt lat="43.795038363108354" lon="10.979090332504214"><ele>538.0</ele><time>2026-04-19T09:31:16.001Z</time></trkpt><trkpt lat="43.79498896110649" lon="10.979163099772801"><ele>538.0</ele><time>2026-04-19T09:31:20.001Z</time></trkpt><trkpt lat="43.794919677136896" lon="10.979222405780522"><ele>539.3333333333334</ele><time>2026-04-19T09:31:24.001Z</time></trkpt><trkpt lat="43.79486244099743" lon="10.979297524443062"><ele>540.6666666666667</ele><time>2026-04-19T09:31:28.001Z</time></trkpt><trkpt lat="43.79480940369216" lon="10.979368984142868"><ele>542.0</ele><time>2026-04-19T09:31:32.001Z</time></trkpt><trkpt lat="43.794742789639464" lon="10.97944069329813"><ele>543.3333333333334</ele><time>2026-04-19T09:31:36.001Z</time></trkpt><trkpt lat="43.79467889468386" lon="10.979502051602594"><ele>544.6666666666666</ele><time>2026-04-19T09:31:40.001Z</time></trkpt><trkpt lat="43.794627268724746" lon="10.97958556594664"><ele>546.0</ele><time>2026-04-19T09:31:44.001Z</time></trkpt><trkpt lat="43.79457315055208" lon="10.979633291557942"><ele>546.0</ele><time>2026-04-19T09:31:47.001Z</time></trkpt><trkpt lat="43.79451476302842" lon="10.979697769422735"><ele>546.0</ele><time>2026-04-19T09:31:51.001Z</time></trkpt><trkpt lat="43.79446064773107" lon="10.979757291740656"><ele>546.0</ele><time>2026-04-19T09:31:55.001Z</time></trkpt><trkpt lat="43.79439174225477" lon="10.979806511275536"><ele>546.0</ele><time>2026-04-19T09:31:59.001Z</time></trkpt><trkpt lat="43.794334987440024" lon="10.979864827743636"><ele>546.0</ele><time>2026-04-19T09:32:03.001Z</time></trkpt><trkpt lat="43.79427854155175" lon="10.979907571370791"><ele>546.0</ele><time>2026-04-19T09:32:06Z</time></trkpt><trkpt lat="43.79421941564119" lon="10.979959352195364"><ele>546.0</ele><time>2026-04-19T09:32:10Z</time></trkpt><trkpt lat="43.79416094846548" lon="10.980002218139564"><ele>544.3333333333334</ele><time>2026-04-19T09:32:13Z</time></trkpt><trkpt lat="43.794096331845445" lon="10.98006793860783"><ele>542.6666666666666</ele><time>2026-04-19T09:32:17Z</time></trkpt><trkpt lat="43.79404046701876" lon="10.98013839853593"><ele>541.0</ele><time>2026-04-19T09:32:21Z</time></trkpt><trkpt lat="43.793970886466084" lon="10.980194885010118"><ele>539.3333333333333</ele><time>2026-04-19T09:32:25Z</time></trkpt><trkpt lat="43.79390116680056" lon="10.980249927294958"><ele>537.6666666666666</ele><time>2026-04-19T09:32:29Z</time></trkpt><trkpt lat="43.7938382535236" lon="10.980308586895271"><ele>536.0</ele><time>2026-04-19T09:32:33Z</time></trkpt><trkpt lat="43.79376733580365" lon="10.98036008767389"><ele>536.0</ele><time>2026-04-19T09:32:37Z</time></trkpt><trkpt lat="43.79370176401004" lon="10.980421636385202"><ele>536.0</ele><time>2026-04-19T09:32:41.001Z</time></trkpt><trkpt lat="43.793639042473586" lon="10.980486634288257"><ele>536.0</ele><time>2026-04-19T09:32:45.001Z</time></trkpt><trkpt lat="43.79357111703819" lon="10.9805411871059"><ele>536.0</ele><time>2026-04-19T09:32:49.001Z</time></trkpt><trkpt lat="43.793499773049504" lon="10.980589527946242"><ele>536.0</ele><time>2026-04-19T09:32:53.001Z</time></trkpt><trkpt lat="43.79344677258979" lon="10.980638406138736"><ele>536.0</ele><time>2026-04-19T09:32:56.001Z</time></trkpt><trkpt lat="43.79337845815289" lon="10.980675108043693"><ele>534.0</ele><time>2026-04-19T09:33:00.001Z</time></trkpt><trkpt lat="43.793314234502" lon="10.980723569803954"><ele>532.0</ele><time>2026-04-19T09:33:04.001Z</time></trkpt><trkpt lat="43.79323959765433" lon="10.980750971916187"><ele>530.0</ele><time>2026-04-19T09:33:08.001Z</time></trkpt><trkpt lat="43.793161854508845" lon="10.980756679384578"><ele>528.0</ele><time>2026-04-19T09:33:12.001Z</time></trkpt><trkpt lat="43.793091091356786" lon="10.980798276676245"><ele>526.0</ele><time>2026-04-19T09:33:16.001Z</time></trkpt><trkpt lat="43.79302323110914" lon="10.980844044296521"><ele>524.0</ele><time>2026-04-19T09:33:20.001Z</time></trkpt><trkpt lat="43.79294720368453" lon="10.980886486807018"><ele>524.0</ele><time>2026-04-19T09:33:24.001Z</time></trkpt><trkpt lat="43.79289051961639" lon="10.980932984658844"><ele>524.0</ele><time>2026-04-19T09:33:27.001Z</time></trkpt><trkpt lat="43.79283747530045" lon="10.980985533520029"><ele>524.0</ele><time>2026-04-19T09:33:30Z</time></trkpt><trkpt lat="43.792777611166166" lon="10.981027045303914"><ele>524.0</ele><time>2026-04-19T09:33:33Z</time></trkpt><trkpt lat="43.79272431877369" lon="10.981076663767803"><ele>524.0</ele><time>2026-04-19T09:33:36Z</time></trkpt><trkpt lat="43.79267141166569" lon="10.9811465124551"><ele>524.0</ele><time>2026-04-19T09:33:39Z</time></trkpt><trkpt lat="43.79261884129162" lon="10.981202772649933"><ele>524.0</ele><time>2026-04-19T09:33:42Z</time></trkpt><trkpt lat="43.79255783489221" lon="10.981259916679134"><ele>526.1428571428571</ele><time>2026-04-19T09:33:45Z</time></trkpt><trkpt lat="43.7925039404285" lon="10.981325499068578"><ele>528.2857142857143</ele><time>2026-04-19T09:33:48Z</time></trkpt><trkpt lat="43.792445429629936" lon="10.981383155734237"><ele>530.4285714285714</ele><time>2026-04-19T09:33:51Z</time></trkpt><trkpt lat="43.79239398356773" lon="10.981445712940413"><ele>532.5714285714286</ele><time>2026-04-19T09:33:54Z</time></trkpt><trkpt lat="43.79234904859949" lon="10.981514780307716"><ele>534.7142857142858</ele><time>2026-04-19T09:33:57Z</time></trkpt><trkpt lat="43.7923136069117" lon="10.98160008866474"><ele>536.8571428571429</ele><time>2026-04-19T09:34:00Z</time></trkpt><trkpt lat="43.792274542570816" lon="10.981684771596997"><ele>539.0</ele><time>2026-04-19T09:34:03Z</time></trkpt><trkpt lat="43.7922230206978" lon="10.981761180624222"><ele>539.0</ele><time>2026-04-19T09:34:06Z</time></trkpt><trkpt lat="43.79216228644089" lon="10.981826632536041"><ele>539.0</ele><time>2026-04-19T09:34:09Z</time></trkpt><trkpt lat="43.79209994487669" lon="10.981895493761868"><ele>539.0</ele><time>2026-04-19T09:34:12Z</time></trkpt><trkpt lat="43.79203209255394" lon="10.98193557258036"><ele>539.0</ele><time>2026-04-19T09:34:15Z</time></trkpt><trkpt lat="43.79196450778443" lon="10.981989595414994"><ele>539.0</ele><time>2026-04-19T09:34:18Z</time></trkpt><trkpt lat="43.79191198567043" lon="10.982049677899552"><ele>539.0</ele><time>2026-04-19T09:34:21Z</time></trkpt><trkpt lat="43.791855287150966" lon="10.98212168490888"><ele>540.5714285714286</ele><time>2026-04-19T09:34:24Z</time></trkpt><trkpt lat="43.79180625340668" lon="10.982192934327621"><ele>542.1428571428571</ele><time>2026-04-19T09:34:27Z</time></trkpt><trkpt lat="43.791751740195146" lon="10.982251820502414"><ele>543.7142857142858</ele><time>2026-04-19T09:34:30Z</time></trkpt><trkpt lat="43.79170439586189" lon="10.982331847348672"><ele>545.2857142857142</ele><time>2026-04-19T09:34:33Z</time></trkpt><trkpt lat="43.79165658755835" lon="10.982405254142474"><ele>546.8571428571429</ele><time>2026-04-19T09:34:36Z</time></trkpt><trkpt lat="43.791606276366345" lon="10.982466682616582"><ele>548.4285714285714</ele><time>2026-04-19T09:34:39Z</time></trkpt><trkpt lat="43.79155619572179" lon="10.982522074394202"><ele>550.0</ele><time>2026-04-19T09:34:42Z</time></trkpt><trkpt lat="43.79149211497078" lon="10.982585201193357"><ele>546.0</ele><time>2026-04-19T09:34:45Z</time></trkpt><trkpt lat="43.791440952236734" lon="10.982636971301725"><ele>542.0</ele><time>2026-04-19T09:34:48.001Z</time></trkpt><trkpt lat="43.791391946180156" lon="10.982703464038291"><ele>538.0</ele><time>2026-04-19T09:34:51Z</time></trkpt><trkpt lat="43.791333957425124" lon="10.982760917031179"><ele>534.0</ele><time>2026-04-19T09:34:54.001Z</time></trkpt><trkpt lat="43.79127586829627" lon="10.982806587970563"><ele>530.0</ele><time>2026-04-19T09:34:57Z</time></trkpt><trkpt lat="43.79122485806724" lon="10.982858306412755"><ele>526.0</ele><time>2026-04-19T09:35:00Z</time></trkpt><trkpt lat="43.7911663267128" lon="10.982916255058425"><ele>522.0</ele><time>2026-04-19T09:35:03Z</time></trkpt><trkpt lat="43.79110122748802" lon="10.982963391083752"><ele>522.0</ele><time>2026-04-19T09:35:06Z</time></trkpt><trkpt lat="43.791036529295745" lon="10.983010636241021"><ele>522.0</ele><time>2026-04-19T09:35:09Z</time></trkpt><trkpt lat="43.79097974360037" lon="10.983068195707146"><ele>522.0</ele><time>2026-04-19T09:35:12Z</time></trkpt><trkpt lat="43.7909234667134" lon="10.983118298742802"><ele>522.0</ele><time>2026-04-19T09:35:15Z</time></trkpt><trkpt lat="43.79086970586523" lon="10.983168666237516"><ele>522.0</ele><time>2026-04-19T09:35:18Z</time></trkpt><trkpt lat="43.79080133158752" lon="10.98323652599938"><ele>522.0</ele><time>2026-04-19T09:35:22Z</time></trkpt><trkpt lat="43.7907483276879" lon="10.983289400553492"><ele>522.0</ele><time>2026-04-19T09:35:25Z</time></trkpt><trkpt lat="43.79068405212236" lon="10.983342116810027"><ele>520.1428571428571</ele><time>2026-04-19T09:35:28Z</time></trkpt><trkpt lat="43.79062511602596" lon="10.983400829445154"><ele>518.2857142857142</ele><time>2026-04-19T09:35:31Z</time></trkpt><trkpt lat="43.79055630887861" lon="10.983444361075543"><ele>516.4285714285713</ele><time>2026-04-19T09:35:34Z</time></trkpt><trkpt lat="43.7904894286968" lon="10.98347289323254"><ele>514.5714285714286</ele><time>2026-04-19T09:35:37Z</time></trkpt><trkpt lat="43.79042080263427" lon="10.983477899394769"><ele>512.7142857142857</ele><time>2026-04-19T09:35:40Z</time></trkpt><trkpt lat="43.790359014781245" lon="10.983443319454143"><ele>510.8571428571428</ele><time>2026-04-19T09:35:45Z</time></trkpt><trkpt lat="43.79040676256693" lon="10.983537790777588"><ele>508.99999999999994</ele><time>2026-04-19T09:36:03Z</time></trkpt><trkpt lat="43.79053068601157" lon="10.983576499399987"><ele>508.99999999999994</ele><time>2026-04-19T09:37:37Z</time></trkpt><trkpt lat="43.79059569251819" lon="10.983528303257206"><ele>509.0</ele><time>2026-04-19T09:37:44Z</time></trkpt><trkpt lat="43.79063962083769" lon="10.983465528467384"><ele>508.99999999999994</ele><time>2026-04-19T09:37:49Z</time></trkpt><trkpt lat="43.790699911285195" lon="10.983415905333027"><ele>508.99999999999994</ele><time>2026-04-19T09:37:55Z</time></trkpt><trkpt lat="43.79076340447466" lon="10.983358803405801"><ele>509.0</ele><time>2026-04-19T09:38:03Z</time></trkpt><trkpt lat="43.790827836662494" lon="10.983321726831207"><ele>508.99999999999994</ele><time>2026-04-19T09:38:11Z</time></trkpt><trkpt lat="43.79088675549054" lon="10.983270931315877"><ele>508.99999999999994</ele><time>2026-04-19T09:38:17Z</time></trkpt><trkpt lat="43.79094948170913" lon="10.983216851338634"><ele>510.8571428571428</ele><time>2026-04-19T09:38:23Z</time></trkpt><trkpt lat="43.79100515248346" lon="10.983151788379802"><ele>512.7142857142857</ele><time>2026-04-19T09:38:28Z</time></trkpt><trkpt lat="43.791058368713585" lon="10.983092714908752"><ele>514.5714285714286</ele><time>2026-04-19T09:38:34Z</time></trkpt><trkpt lat="43.791119465226195" lon="10.983034455013652"><ele>516.4285714285713</ele><time>2026-04-19T09:38:40Z</time></trkpt><trkpt lat="43.79118352334337" lon="10.982988695353013"><ele>518.2857142857142</ele><time>2026-04-19T09:38:46Z</time></trkpt><trkpt lat="43.7912472213826" lon="10.982926972308771"><ele>520.1428571428571</ele><time>2026-04-19T09:38:52Z</time></trkpt><trkpt lat="43.79129935135171" lon="10.982874343149314"><ele>522.0</ele><time>2026-04-19T09:38:58.001Z</time></trkpt><trkpt lat="43.79136260149954" lon="10.982836812488618"><ele>522.0</ele><time>2026-04-19T09:39:03.001Z</time></trkpt><trkpt lat="43.791427416852514" lon="10.982789869134988"><ele>522.0</ele><time>2026-04-19T09:39:08.001Z</time></trkpt><trkpt lat="43.7914781988931" lon="10.982737710715066"><ele>522.0</ele><time>2026-04-19T09:39:12.001Z</time></trkpt><trkpt lat="43.791544572014494" lon="10.982688938023804"><ele>522.0</ele><time>2026-04-19T09:39:17.001Z</time></trkpt><trkpt lat="43.791598694237045" lon="10.982612916692196"><ele>522.0</ele><time>2026-04-19T09:39:22.001Z</time></trkpt><trkpt lat="43.79165141839072" lon="10.982558098618357"><ele>522.0</ele><time>2026-04-19T09:39:27.001Z</time></trkpt><trkpt lat="43.79170518566452" lon="10.982493120250007"><ele>522.0</ele><time>2026-04-19T09:39:32.001Z</time></trkpt><trkpt lat="43.791751512430885" lon="10.982428239344255"><ele>524.4285714285714</ele><time>2026-04-19T09:39:37.001Z</time></trkpt><trkpt lat="43.791808675703635" lon="10.98236360425938"><ele>526.8571428571429</ele><time>2026-04-19T09:39:42.001Z</time></trkpt><trkpt lat="43.79185663757521" lon="10.98230489721123"><ele>529.2857142857142</ele><time>2026-04-19T09:39:46.001Z</time></trkpt><trkpt lat="43.79190664467494" lon="10.982245183749518"><ele>531.7142857142858</ele><time>2026-04-19T09:39:50.001Z</time></trkpt><trkpt lat="43.79197090926435" lon="10.982180809021019"><ele>534.1428571428571</ele><time>2026-04-19T09:39:54.001Z</time></trkpt><trkpt lat="43.792028922865136" lon="10.982121119050655"><ele>536.5714285714286</ele><time>2026-04-19T09:39:58Z</time></trkpt><trkpt lat="43.7920891485267" lon="10.982065197352505"><ele>539.0</ele><time>2026-04-19T09:40:02Z</time></trkpt><trkpt lat="43.7921514616401" lon="10.982011866384546"><ele>539.0</ele><time>2026-04-19T09:40:06Z</time></trkpt><trkpt lat="43.792200790690984" lon="10.98193423370567"><ele>539.0</ele><time>2026-04-19T09:40:10Z</time></trkpt><trkpt lat="43.792252178975374" lon="10.981860899219082"><ele>539.0</ele><time>2026-04-19T09:40:14Z</time></trkpt><trkpt lat="43.792293402595405" lon="10.981771757936434"><ele>539.0</ele><time>2026-04-19T09:40:18Z</time></trkpt><trkpt lat="43.79233382376924" lon="10.981679727699369"><ele>539.0</ele><time>2026-04-19T09:40:22Z</time></trkpt><trkpt lat="43.792374341092675" lon="10.98159341303555"><ele>539.0</ele><time>2026-04-19T09:40:26Z</time></trkpt><trkpt lat="43.79242874995836" lon="10.981514037638087"><ele>536.8571428571429</ele><time>2026-04-19T09:40:30Z</time></trkpt><trkpt lat="43.79247753958328" lon="10.981420366710571"><ele>534.7142857142858</ele><time>2026-04-19T09:40:34Z</time></trkpt><trkpt lat="43.79252824254286" lon="10.98133886427108"><ele>532.5714285714286</ele><time>2026-04-19T09:40:38Z</time></trkpt><trkpt lat="43.79258228236222" lon="10.981293949915525"><ele>530.4285714285714</ele><time>2026-04-19T09:40:41Z</time></trkpt><trkpt lat="43.792639592907534" lon="10.981219799914651"><ele>528.2857142857143</ele><time>2026-04-19T09:40:45Z</time></trkpt><trkpt lat="43.7926925471192" lon="10.981168549601772"><ele>526.1428571428571</ele><time>2026-04-19T09:40:48Z</time></trkpt><trkpt lat="43.792753917616984" lon="10.981134754346307"><ele>524.0</ele><time>2026-04-19T09:40:51Z</time></trkpt><trkpt lat="43.79280798153342" lon="10.981087714683289"><ele>524.0</ele><time>2026-04-19T09:40:54Z</time></trkpt><trkpt lat="43.79286315659521" lon="10.981045366895112"><ele>524.0</ele><time>2026-04-19T09:40:57Z</time></trkpt><trkpt lat="43.792922698459726" lon="10.9810020757615"><ele>524.0</ele><time>2026-04-19T09:41:00Z</time></trkpt><trkpt lat="43.79299974844568" lon="10.98095782218543"><ele>524.0</ele><time>2026-04-19T09:41:04.001Z</time></trkpt><trkpt lat="43.79307329215763" lon="10.980918167028182"><ele>524.0</ele><time>2026-04-19T09:41:08.001Z</time></trkpt><trkpt lat="43.793137871201495" lon="10.980903980600997"><ele>524.0</ele><time>2026-04-19T09:41:11.002Z</time></trkpt><trkpt lat="43.793204916283464" lon="10.980887998505374"><ele>524.0</ele><time>2026-04-19T09:41:14.001Z</time></trkpt><trkpt lat="43.79326849114693" lon="10.980875061417178"><ele>526.0</ele><time>2026-04-19T09:41:17.001Z</time></trkpt><trkpt lat="43.79334601532037" lon="10.980841421013361"><ele>528.0</ele><time>2026-04-19T09:41:21.001Z</time></trkpt><trkpt lat="43.793415582146686" lon="10.98080788673872"><ele>530.0</ele><time>2026-04-19T09:41:24.001Z</time></trkpt><trkpt lat="43.79348081343449" lon="10.98075927547007"><ele>532.0</ele><time>2026-04-19T09:41:27.001Z</time></trkpt><trkpt lat="43.7935353651784" lon="10.980694051751383"><ele>534.0</ele><time>2026-04-19T09:41:30.001Z</time></trkpt><trkpt lat="43.79359963699369" lon="10.980634219602413"><ele>536.0</ele><time>2026-04-19T09:41:33.001Z</time></trkpt><trkpt lat="43.79366822330102" lon="10.98059922002059"><ele>536.0</ele><time>2026-04-19T09:41:36.001Z</time></trkpt><trkpt lat="43.7937474829469" lon="10.980545820965899"><ele>536.0</ele><time>2026-04-19T09:41:40.001Z</time></trkpt><trkpt lat="43.793811512883316" lon="10.980497394395696"><ele>536.0</ele><time>2026-04-19T09:41:43.001Z</time></trkpt><trkpt lat="43.7938712533142" lon="10.980458736204842"><ele>536.0</ele><time>2026-04-19T09:41:46.001Z</time></trkpt><trkpt lat="43.79393226308873" lon="10.980410574525973"><ele>536.0</ele><time>2026-04-19T09:41:49.001Z</time></trkpt><trkpt lat="43.793992646058584" lon="10.980351301799807"><ele>536.0</ele><time>2026-04-19T09:41:52.001Z</time></trkpt><trkpt lat="43.79405540301246" lon="10.980307470512775"><ele>536.0</ele><time>2026-04-19T09:41:55.001Z</time></trkpt><trkpt lat="43.79411701623162" lon="10.98024228873227"><ele>536.0</ele><time>2026-04-19T09:41:58.001Z</time></trkpt><trkpt lat="43.794171895134674" lon="10.980173808504505"><ele>536.0</ele><time>2026-04-19T09:42:01.001Z</time></trkpt><trkpt lat="43.7942276891101" lon="10.980113579589577"><ele>536.0</ele><time>2026-04-19T09:42:04.001Z</time></trkpt><trkpt lat="43.79428781507657" lon="10.98004403523684"><ele>536.0</ele><time>2026-04-19T09:42:07.001Z</time></trkpt><trkpt lat="43.79434522460443" lon="10.979971546496168"><ele>536.0</ele><time>2026-04-19T09:42:10.001Z</time></trkpt><trkpt lat="43.79440687450348" lon="10.979916034003525"><ele>536.0</ele><time>2026-04-19T09:42:13.001Z</time></trkpt><trkpt lat="43.794472013288626" lon="10.979853855342938"><ele>537.6666666666666</ele><time>2026-04-19T09:42:16.001Z</time></trkpt><trkpt lat="43.794548857489396" lon="10.979796517783914"><ele>539.3333333333333</ele><time>2026-04-19T09:42:19.001Z</time></trkpt><trkpt lat="43.794608442180945" lon="10.979723455411774"><ele>541.0</ele><time>2026-04-19T09:42:22.001Z</time></trkpt><trkpt lat="43.794664882496924" lon="10.979659110760107"><ele>542.6666666666666</ele><time>2026-04-19T09:42:25.001Z</time></trkpt><trkpt lat="43.79472633069281" lon="10.979596131827892"><ele>544.3333333333334</ele><time>2026-04-19T09:42:28.001Z</time></trkpt><trkpt lat="43.794781234498764" lon="10.979520431783117"><ele>546.0</ele><time>2026-04-19T09:42:31.001Z</time></trkpt><trkpt lat="43.794830853460525" lon="10.979442302985051"><ele>546.0</ele><time>2026-04-19T09:42:34.001Z</time></trkpt><trkpt lat="43.79488758634193" lon="10.97936450433723"><ele>546.0</ele><time>2026-04-19T09:42:37.001Z</time></trkpt><trkpt lat="43.794938465777506" lon="10.979297288654367"><ele>546.0</ele><time>2026-04-19T09:42:40Z</time></trkpt><trkpt lat="43.79499290122415" lon="10.979234639758696"><ele>546.0</ele><time>2026-04-19T09:42:43Z</time></trkpt><trkpt lat="43.795045503388394" lon="10.97916186474397"><ele>546.0</ele><time>2026-04-19T09:42:46Z</time></trkpt><trkpt lat="43.79510269098448" lon="10.97909178983525"><ele>546.0</ele><time>2026-04-19T09:42:49Z</time></trkpt><trkpt lat="43.79516047087354" lon="10.979039398633947"><ele>546.0</ele><time>2026-04-19T09:42:52Z</time></trkpt><trkpt lat="43.79522177047808" lon="10.978982921013172"><ele>544.8571428571429</ele><time>2026-04-19T09:42:55Z</time></trkpt><trkpt lat="43.7952813510861" lon="10.978926236693768"><ele>543.7142857142858</ele><time>2026-04-19T09:42:58Z</time></trkpt><trkpt lat="43.79533943505745" lon="10.978870484985187"><ele>542.5714285714286</ele><time>2026-04-19T09:43:01Z</time></trkpt><trkpt lat="43.795398117864316" lon="10.97882251367298"><ele>541.4285714285714</ele><time>2026-04-19T09:43:04Z</time></trkpt><trkpt lat="43.79545383412545" lon="10.978767961475222"><ele>540.2857142857143</ele><time>2026-04-19T09:43:07Z</time></trkpt><trkpt lat="43.79551651620104" lon="10.978723513921272"><ele>539.1428571428571</ele><time>2026-04-19T09:43:10.001Z</time></trkpt><trkpt lat="43.79558101964673" lon="10.978672112188425"><ele>538.0</ele><time>2026-04-19T09:43:13.002Z</time></trkpt><trkpt lat="43.795637666535704" lon="10.978622195713797"><ele>538.0</ele><time>2026-04-19T09:43:16.002Z</time></trkpt><trkpt lat="43.7956938572875" lon="10.978577018971562"><ele>538.0</ele><time>2026-04-19T09:43:19.002Z</time></trkpt><trkpt lat="43.795748302835875" lon="10.978530149360925"><ele>538.0</ele><time>2026-04-19T09:43:22.002Z</time></trkpt><trkpt lat="43.7958128957405" lon="10.978476784390605"><ele>538.0</ele><time>2026-04-19T09:43:26.002Z</time></trkpt><trkpt lat="43.79588480944684" lon="10.978431338494717"><ele>538.0</ele><time>2026-04-19T09:43:30.002Z</time></trkpt><trkpt lat="43.79595266501017" lon="10.978390124721448"><ele>538.0</ele><time>2026-04-19T09:43:34.002Z</time></trkpt><trkpt lat="43.796016245856904" lon="10.97833345492662"><ele>538.0</ele><time>2026-04-19T09:43:38.002Z</time></trkpt><trkpt lat="43.79608107637834" lon="10.978274804941263"><ele>540.5714285714286</ele><time>2026-04-19T09:43:42.002Z</time></trkpt><trkpt lat="43.79614762508184" lon="10.978226822260062"><ele>543.1428571428572</ele><time>2026-04-19T09:43:46.001Z</time></trkpt><trkpt lat="43.79620780711479" lon="10.978193580512343"><ele>545.7142857142858</ele><time>2026-04-19T09:43:50.001Z</time></trkpt><trkpt lat="43.79626970398682" lon="10.978144722376548"><ele>548.2857142857143</ele><time>2026-04-19T09:43:54.001Z</time></trkpt><trkpt lat="43.79633375020816" lon="10.978088764469712"><ele>550.8571428571429</ele><time>2026-04-19T09:43:58.001Z</time></trkpt><trkpt lat="43.79639857522201" lon="10.978053148952801"><ele>553.4285714285714</ele><time>2026-04-19T09:44:02.001Z</time></trkpt><trkpt lat="43.796467135230216" lon="10.978033067132447"><ele>556.0</ele><time>2026-04-19T09:44:07.001Z</time></trkpt><trkpt lat="43.79652067026975" lon="10.97797412119177"><ele>556.0</ele><time>2026-04-19T09:44:14.001Z</time></trkpt><trkpt lat="43.79657907206172" lon="10.977915442484365"><ele>556.0</ele><time>2026-04-19T09:44:21.001Z</time></trkpt><trkpt lat="43.796633356744266" lon="10.977855182027017"><ele>556.0</ele><time>2026-04-19T09:44:28.001Z</time></trkpt><trkpt lat="43.796684596391884" lon="10.97780309967072"><ele>556.0</ele><time>2026-04-19T09:44:34.001Z</time></trkpt><trkpt lat="43.79674593018816" lon="10.977750522047373"><ele>556.0</ele><time>2026-04-19T09:44:39.001Z</time></trkpt><trkpt lat="43.79678876741144" lon="10.977684234841098"><ele>556.0</ele><time>2026-04-19T09:44:44.001Z</time></trkpt><trkpt lat="43.79685243063398" lon="10.977639047703896"><ele>556.0</ele><time>2026-04-19T09:44:51.001Z</time></trkpt><trkpt lat="43.79691590830628" lon="10.977582256598275"><ele>557.1428571428571</ele><time>2026-04-19T09:44:58.001Z</time></trkpt><trkpt lat="43.79697938485759" lon="10.97753294000506"><ele>558.2857142857143</ele><time>2026-04-19T09:45:04.001Z</time></trkpt><trkpt lat="43.79703801380629" lon="10.977484545262733"><ele>559.4285714285714</ele><time>2026-04-19T09:45:09.001Z</time></trkpt><trkpt lat="43.79709358546031" lon="10.977443055783809"><ele>560.5714285714286</ele><time>2026-04-19T09:45:14.002Z</time></trkpt><trkpt lat="43.797154095082206" lon="10.977384208431305"><ele>561.7142857142857</ele><time>2026-04-19T09:45:20.002Z</time></trkpt><trkpt lat="43.79721244166595" lon="10.977333929759903"><ele>562.8571428571429</ele><time>2026-04-19T09:45:25.001Z</time></trkpt><trkpt lat="43.79727433755121" lon="10.97730595410061"><ele>564.0</ele><time>2026-04-19T09:45:31.002Z</time></trkpt><trkpt lat="43.797330939264015" lon="10.977253719785201"><ele>564.8571428571429</ele><time>2026-04-19T09:45:37.002Z</time></trkpt><trkpt lat="43.79738920526839" lon="10.977208406657745"><ele>565.7142857142857</ele><time>2026-04-19T09:45:42.002Z</time></trkpt><trkpt lat="43.79745833944722" lon="10.977177128516175"><ele>566.5714285714286</ele><time>2026-04-19T09:45:48.002Z</time></trkpt><trkpt lat="43.79752216603193" lon="10.977123113907263"><ele>567.4285714285714</ele><time>2026-04-19T09:45:54.002Z</time></trkpt><trkpt lat="43.79757769424246" lon="10.977081636198301"><ele>568.2857142857143</ele><time>2026-04-19T09:45:59.002Z</time></trkpt><trkpt lat="43.79763504312762" lon="10.977042542250189"><ele>569.1428571428571</ele><time>2026-04-19T09:46:03.002Z</time></trkpt><trkpt lat="43.79770257286951" lon="10.976993422173155"><ele>570.0</ele><time>2026-04-19T09:46:10.002Z</time></trkpt><trkpt lat="43.79777230861303" lon="10.976949955181603"><ele>572.7142857142857</ele><time>2026-04-19T09:46:16.002Z</time></trkpt><trkpt lat="43.79782443367977" lon="10.976896647692058"><ele>575.4285714285714</ele><time>2026-04-19T09:46:22.002Z</time></trkpt><trkpt lat="43.79788970277455" lon="10.976882135688083"><ele>578.1428571428571</ele><time>2026-04-19T09:46:28.001Z</time></trkpt><trkpt lat="43.79795678182766" lon="10.976846214841174"><ele>580.8571428571429</ele><time>2026-04-19T09:46:34.001Z</time></trkpt><trkpt lat="43.798014500450876" lon="10.976790853282727"><ele>583.5714285714286</ele><time>2026-04-19T09:46:40.001Z</time></trkpt><trkpt lat="43.798075730741736" lon="10.976737576763131"><ele>586.2857142857142</ele><time>2026-04-19T09:46:46.001Z</time></trkpt><trkpt lat="43.79813455485202" lon="10.976675119492779"><ele>589.0</ele><time>2026-04-19T09:46:52.001Z</time></trkpt><trkpt lat="43.79818601513326" lon="10.97661977867401"><ele>589.0</ele><time>2026-04-19T09:46:56.001Z</time></trkpt><trkpt lat="43.79824688613797" lon="10.976578929769902"><ele>589.0</ele><time>2026-04-19T09:47:02.001Z</time></trkpt><trkpt lat="43.79829507851072" lon="10.976509561501045"><ele>589.0</ele><time>2026-04-19T09:47:09.001Z</time></trkpt><trkpt lat="43.79834555312762" lon="10.976442086736562"><ele>589.0</ele><time>2026-04-19T09:47:14.001Z</time></trkpt><trkpt lat="43.79838784973726" lon="10.976376150391982"><ele>589.0</ele><time>2026-04-19T09:47:19.001Z</time></trkpt><trkpt lat="43.79843185327952" lon="10.976296333179468"><ele>589.0</ele><time>2026-04-19T09:47:24.002Z</time></trkpt><trkpt lat="43.798479564058376" lon="10.976221915671461"><ele>589.0</ele><time>2026-04-19T09:47:30.002Z</time></trkpt><trkpt lat="43.79853246401328" lon="10.976164920635828"><ele>590.0</ele><time>2026-04-19T09:47:35.002Z</time></trkpt><trkpt lat="43.79857566781667" lon="10.976091022570325"><ele>591.0</ele><time>2026-04-19T09:47:41.002Z</time></trkpt><trkpt lat="43.7986273609952" lon="10.97603487094122"><ele>592.0</ele><time>2026-04-19T09:47:47.002Z</time></trkpt><trkpt lat="43.798692636673145" lon="10.97598706712805"><ele>593.0</ele><time>2026-04-19T09:47:53.002Z</time></trkpt><trkpt lat="43.79876531083391" lon="10.975964295919502"><ele>594.0</ele><time>2026-04-19T09:47:59.002Z</time></trkpt><trkpt lat="43.79882544509563" lon="10.975921464460995"><ele>595.0</ele><time>2026-04-19T09:48:04.002Z</time></trkpt><trkpt lat="43.79888746749927" lon="10.975876071675154"><ele>596.0</ele><time>2026-04-19T09:48:09.002Z</time></trkpt><trkpt lat="43.79895819171275" lon="10.975835487958342"><ele>596.4285714285714</ele><time>2026-04-19T09:48:13.002Z</time></trkpt><trkpt lat="43.79901683112958" lon="10.97576679258981"><ele>596.8571428571428</ele><time>2026-04-19T09:48:17.002Z</time></trkpt><trkpt lat="43.7990745609067" lon="10.975699212064086"><ele>597.2857142857142</ele><time>2026-04-19T09:48:21.002Z</time></trkpt><trkpt lat="43.79913945674997" lon="10.975656861350991"><ele>597.7142857142857</ele><time>2026-04-19T09:48:25.002Z</time></trkpt><trkpt lat="43.79919835570032" lon="10.975601593533941"><ele>598.1428571428571</ele><time>2026-04-19T09:48:29.002Z</time></trkpt><trkpt lat="43.79926493476134" lon="10.975560483199112"><ele>598.5714285714286</ele><time>2026-04-19T09:48:33.002Z</time></trkpt><trkpt lat="43.799319438174216" lon="10.975505834807112"><ele>599.0</ele><time>2026-04-19T09:48:37.002Z</time></trkpt><trkpt lat="43.79937921481454" lon="10.975460890327895"><ele>599.1428571428571</ele><time>2026-04-19T09:48:41.002Z</time></trkpt><trkpt lat="43.79944006099934" lon="10.975409866842803"><ele>599.2857142857142</ele><time>2026-04-19T09:48:45.002Z</time></trkpt><trkpt lat="43.799499807967095" lon="10.975365106853783"><ele>599.4285714285713</ele><time>2026-04-19T09:48:49.002Z</time></trkpt><trkpt lat="43.79956747188857" lon="10.97532503554356"><ele>599.5714285714286</ele><time>2026-04-19T09:48:53.002Z</time></trkpt><trkpt lat="43.799634541570676" lon="10.975280137283235"><ele>599.7142857142857</ele><time>2026-04-19T09:48:57.002Z</time></trkpt><trkpt lat="43.79970953755315" lon="10.97526449707809"><ele>599.8571428571428</ele><time>2026-04-19T09:49:01.002Z</time></trkpt><trkpt lat="43.79978555492282" lon="10.975271912964507"><ele>600.0</ele><time>2026-04-19T09:49:05.002Z</time></trkpt><trkpt lat="43.79985785687113" lon="10.975295305647242"><ele>599.9999999999999</ele><time>2026-04-19T09:49:09.001Z</time></trkpt><trkpt lat="43.79993871915121" lon="10.975324709702925"><ele>600.0</ele><time>2026-04-19T09:49:13.001Z</time></trkpt><trkpt lat="43.800002498007856" lon="10.97531647730507"><ele>600.0</ele><time>2026-04-19T09:49:16.001Z</time></trkpt><trkpt lat="43.800072165706645" lon="10.975304126379546"><ele>600.0</ele><time>2026-04-19T09:49:19.001Z</time></trkpt><trkpt lat="43.800149388688865" lon="10.975282234506222"><ele>600.0</ele><time>2026-04-19T09:49:23.001Z</time></trkpt><trkpt lat="43.80021288717613" lon="10.975242570978226"><ele>599.9999999999999</ele><time>2026-04-19T09:49:26.003Z</time></trkpt><trkpt lat="43.80028577318704" lon="10.97518935842391"><ele>600.0</ele><time>2026-04-19T09:49:30.002Z</time></trkpt><trkpt lat="43.80035943469669" lon="10.97515258267406"><ele>599.9999999999999</ele><time>2026-04-19T09:49:33.003Z</time></trkpt><trkpt lat="43.80041870472885" lon="10.975092889048575"><ele>600.0</ele><time>2026-04-19T09:49:36.002Z</time></trkpt><trkpt lat="43.800473757310904" lon="10.975036022629672"><ele>600.0</ele><time>2026-04-19T09:49:39.002Z</time></trkpt><trkpt lat="43.80051787439794" lon="10.9749626089806"><ele>600.0</ele><time>2026-04-19T09:49:42.002Z</time></trkpt><trkpt lat="43.80056490300455" lon="10.974904014944055"><ele>600.0</ele><time>2026-04-19T09:49:45.002Z</time></trkpt><trkpt lat="43.80063404510107" lon="10.974865946385505"><ele>599.9999999999999</ele><time>2026-04-19T09:49:48.002Z</time></trkpt><trkpt lat="43.8006829410372" lon="10.974799817203232"><ele>600.0</ele><time>2026-04-19T09:49:51.002Z</time></trkpt><trkpt lat="43.80074755392178" lon="10.97474700876141"><ele>600.0</ele><time>2026-04-19T09:49:54.002Z</time></trkpt><trkpt lat="43.80081181812034" lon="10.974675121487312"><ele>600.0</ele><time>2026-04-19T09:49:58.002Z</time></trkpt><trkpt lat="43.80086246908748" lon="10.97460954374747"><ele>600.0</ele><time>2026-04-19T09:50:01.002Z</time></trkpt><trkpt lat="43.80093748327926" lon="10.974549641650642"><ele>600.0</ele><time>2026-04-19T09:50:05.002Z</time></trkpt><trkpt lat="43.80100584321361" lon="10.974504165536533"><ele>600.0</ele><time>2026-04-19T09:50:08.002Z</time></trkpt><trkpt lat="43.80106889073386" lon="10.974446947714075"><ele>600.0</ele><time>2026-04-19T09:50:11.002Z</time></trkpt><trkpt lat="43.801122851364106" lon="10.974384228234477"><ele>598.9999999999999</ele><time>2026-04-19T09:50:14.002Z</time></trkpt><trkpt lat="43.80118049122069" lon="10.974318027544124"><ele>598.0</ele><time>2026-04-19T09:50:17.002Z</time></trkpt><trkpt lat="43.80122887952017" lon="10.974252485492395"><ele>597.0</ele><time>2026-04-19T09:50:20.001Z</time></trkpt><trkpt lat="43.801280263470396" lon="10.974185308104929"><ele>596.0</ele><time>2026-04-19T09:50:23.001Z</time></trkpt><trkpt lat="43.80131926207976" lon="10.974098517241032"><ele>595.0</ele><time>2026-04-19T09:50:26.001Z</time></trkpt><trkpt lat="43.80138122415358" lon="10.974042530888134"><ele>593.9999999999999</ele><time>2026-04-19T09:50:29.001Z</time></trkpt><trkpt lat="43.80143397896202" lon="10.973974386134538"><ele>593.0</ele><time>2026-04-19T09:50:32.001Z</time></trkpt><trkpt lat="43.801506349830426" lon="10.973910197715906"><ele>592.9999999999999</ele><time>2026-04-19T09:50:36.001Z</time></trkpt><trkpt lat="43.801566625330594" lon="10.973874308176827"><ele>593.0</ele><time>2026-04-19T09:50:39.001Z</time></trkpt><trkpt lat="43.801618684590856" lon="10.973822074731263"><ele>593.0</ele><time>2026-04-19T09:50:42.001Z</time></trkpt><trkpt lat="43.801684284064294" lon="10.973764616832552"><ele>593.0</ele><time>2026-04-19T09:50:46.001Z</time></trkpt><trkpt lat="43.8017558328766" lon="10.973733644209005"><ele>593.0</ele><time>2026-04-19T09:50:50.001Z</time></trkpt><trkpt lat="43.80181098677002" lon="10.973685386735536"><ele>592.9999999999999</ele><time>2026-04-19T09:50:53.001Z</time></trkpt><trkpt lat="43.801871671343314" lon="10.973631699178462"><ele>593.0</ele><time>2026-04-19T09:50:57.001Z</time></trkpt><trkpt lat="43.80192452994109" lon="10.973575658389274"><ele>592.2857142857142</ele><time>2026-04-19T09:51:00.001Z</time></trkpt><trkpt lat="43.80199105357562" lon="10.973523423194658"><ele>591.5714285714286</ele><time>2026-04-19T09:51:04.001Z</time></trkpt><trkpt lat="43.80204795588317" lon="10.973457316142277"><ele>590.8571428571429</ele><time>2026-04-19T09:51:08.001Z</time></trkpt><trkpt lat="43.80211051725083" lon="10.97339883541055"><ele>590.1428571428571</ele><time>2026-04-19T09:51:12.001Z</time></trkpt><trkpt lat="43.802168487616626" lon="10.973337444823809"><ele>589.4285714285714</ele><time>2026-04-19T09:51:17.001Z</time></trkpt><trkpt lat="43.802221587322855" lon="10.97327683419705"><ele>588.7142857142857</ele><time>2026-04-19T09:51:22.001Z</time></trkpt><trkpt lat="43.80228015238835" lon="10.973215781144624"><ele>588.0</ele><time>2026-04-19T09:51:26.001Z</time></trkpt><trkpt lat="43.80233495650973" lon="10.973157790926741"><ele>587.1428571428571</ele><time>2026-04-19T09:51:30.001Z</time></trkpt><trkpt lat="43.802387464770774" lon="10.973093032253148"><ele>586.2857142857142</ele><time>2026-04-19T09:51:34.003Z</time></trkpt><trkpt lat="43.80244405472334" lon="10.9730228305883"><ele>585.4285714285714</ele><time>2026-04-19T09:51:38.003Z</time></trkpt><trkpt lat="43.80250320188898" lon="10.97296640858152"><ele>584.5714285714286</ele><time>2026-04-19T09:51:42.003Z</time></trkpt><trkpt lat="43.80255603482593" lon="10.972901147567843"><ele>583.7142857142857</ele><time>2026-04-19T09:51:47.003Z</time></trkpt><trkpt lat="43.80259542526919" lon="10.972821381337802"><ele>582.8571428571429</ele><time>2026-04-19T09:51:52.003Z</time></trkpt><trkpt lat="43.802636317359415" lon="10.972742292327464"><ele>582.0</ele><time>2026-04-19T09:51:57.003Z</time></trkpt><trkpt lat="43.80266556623196" lon="10.972660203228887"><ele>582.0</ele><time>2026-04-19T09:52:01.003Z</time></trkpt><trkpt lat="43.80270455023732" lon="10.97256361525786"><ele>582.0</ele><time>2026-04-19T09:52:06.003Z</time></trkpt><trkpt lat="43.802752028125596" lon="10.972472566546259"><ele>582.0</ele><time>2026-04-19T09:52:11.003Z</time></trkpt><trkpt lat="43.80279271202431" lon="10.972392839118426"><ele>582.0</ele><time>2026-04-19T09:52:15.003Z</time></trkpt><trkpt lat="43.8028312148439" lon="10.972311886997842"><ele>582.0</ele><time>2026-04-19T09:52:20.002Z</time></trkpt><trkpt lat="43.80285437189404" lon="10.97222567296218"><ele>582.0</ele><time>2026-04-19T09:52:24.002Z</time></trkpt><trkpt lat="43.80289748849771" lon="10.972131687082578"><ele>582.0</ele><time>2026-04-19T09:52:29.002Z</time></trkpt><trkpt lat="43.80292908359699" lon="10.972025507311894"><ele>583.5714285714286</ele><time>2026-04-19T09:52:34.002Z</time></trkpt><trkpt lat="43.802965268890254" lon="10.971951862660982"><ele>585.1428571428571</ele><time>2026-04-19T09:52:37.002Z</time></trkpt><trkpt lat="43.80298275060637" lon="10.971863980785834"><ele>586.7142857142857</ele><time>2026-04-19T09:52:41.002Z</time></trkpt><trkpt lat="43.80300817699496" lon="10.971783277964166"><ele>588.2857142857142</ele><time>2026-04-19T09:52:45.002Z</time></trkpt><trkpt lat="43.803018472258636" lon="10.97169623121963"><ele>589.8571428571429</ele><time>2026-04-19T09:52:49.002Z</time></trkpt><trkpt lat="43.80304545594467" lon="10.971590072231452"><ele>591.4285714285713</ele><time>2026-04-19T09:52:54.002Z</time></trkpt><trkpt lat="43.803082772330946" lon="10.971508383579014"><ele>593.0</ele><time>2026-04-19T09:52:59.002Z</time></trkpt><trkpt lat="43.80311747797182" lon="10.971410915068741"><ele>594.8571428571428</ele><time>2026-04-19T09:53:03.002Z</time></trkpt><trkpt lat="43.80314892821507" lon="10.971316940554512"><ele>596.7142857142857</ele><time>2026-04-19T09:53:07.002Z</time></trkpt><trkpt lat="43.80317076245847" lon="10.971229281610594"><ele>598.5714285714286</ele><time>2026-04-19T09:53:11.002Z</time></trkpt><trkpt lat="43.803181163267425" lon="10.971133383679778"><ele>600.4285714285713</ele><time>2026-04-19T09:53:16.002Z</time></trkpt><trkpt lat="43.80319671313134" lon="10.971037855725204"><ele>602.2857142857142</ele><time>2026-04-19T09:53:20.002Z</time></trkpt><trkpt lat="43.803229119680815" lon="10.970938073056281"><ele>604.1428571428571</ele><time>2026-04-19T09:53:24.002Z</time></trkpt><trkpt lat="43.8032693134724" lon="10.970848490489782"><ele>606.0</ele><time>2026-04-19T09:53:29.002Z</time></trkpt><trkpt lat="43.803309900516076" lon="10.970761516558861"><ele>607.1666666666666</ele><time>2026-04-19T09:53:33.002Z</time></trkpt><trkpt lat="43.80335148019714" lon="10.970685468941088"><ele>608.3333333333334</ele><time>2026-04-19T09:53:37.002Z</time></trkpt><trkpt lat="43.80339425554894" lon="10.970595739119391"><ele>609.5</ele><time>2026-04-19T09:53:41.002Z</time></trkpt><trkpt lat="43.80343962990215" lon="10.970510605930127"><ele>610.6666666666667</ele><time>2026-04-19T09:53:45.001Z</time></trkpt><trkpt lat="43.80349057448096" lon="10.970437137890546"><ele>611.8333333333334</ele><time>2026-04-19T09:53:49.001Z</time></trkpt><trkpt lat="43.8035342103013" lon="10.970335448165295"><ele>613.0</ele><time>2026-04-19T09:53:53.001Z</time></trkpt><trkpt lat="43.8035767572726" lon="10.970242678920018"><ele>611.6666666666667</ele><time>2026-04-19T09:53:57.001Z</time></trkpt><trkpt lat="43.803620216569215" lon="10.9701650860871"><ele>610.3333333333334</ele><time>2026-04-19T09:54:01Z</time></trkpt><trkpt lat="43.80366948068171" lon="10.970068551948259"><ele>609.0</ele><time>2026-04-19T09:54:05Z</time></trkpt><trkpt lat="43.803703454021026" lon="10.969986694773471"><ele>607.6666666666666</ele><time>2026-04-19T09:54:08Z</time></trkpt><trkpt lat="43.80374201408457" lon="10.969888571385871"><ele>606.3333333333333</ele><time>2026-04-19T09:54:12Z</time></trkpt><trkpt lat="43.80377259607288" lon="10.969806696262316"><ele>605.0</ele><time>2026-04-19T09:54:15Z</time></trkpt><trkpt lat="43.803805579660725" lon="10.969692089588342"><ele>605.0</ele><time>2026-04-19T09:54:19Z</time></trkpt><trkpt lat="43.80386111218972" lon="10.969612741101894"><ele>605.0</ele><time>2026-04-19T09:54:23Z</time></trkpt><trkpt lat="43.80389796256324" lon="10.969541663964451"><ele>605.0</ele><time>2026-04-19T09:54:26Z</time></trkpt><trkpt lat="43.80394640693958" lon="10.96945921102701"><ele>605.0</ele><time>2026-04-19T09:54:29.999Z</time></trkpt><trkpt lat="43.8039986546184" lon="10.969375743329069"><ele>605.0</ele><time>2026-04-19T09:54:33.999Z</time></trkpt><trkpt lat="43.80404556701231" lon="10.969311668723671"><ele>605.0</ele><time>2026-04-19T09:54:36.999Z</time></trkpt><trkpt lat="43.80410197911374" lon="10.969266461097844"><ele>605.0</ele><time>2026-04-19T09:54:39.999Z</time></trkpt><trkpt lat="43.80416276641068" lon="10.969214648694445"><ele>604.4285714285714</ele><time>2026-04-19T09:54:43.999Z</time></trkpt><trkpt lat="43.80423491831321" lon="10.96916725884204"><ele>603.8571428571429</ele><time>2026-04-19T09:54:47.999Z</time></trkpt><trkpt lat="43.80430243162258" lon="10.969116701912212"><ele>603.2857142857142</ele><time>2026-04-19T09:54:51.999Z</time></trkpt><trkpt lat="43.804360069360584" lon="10.969046436340317"><ele>602.7142857142858</ele><time>2026-04-19T09:54:55.999Z</time></trkpt><trkpt lat="43.80441830815896" lon="10.968995867947342"><ele>602.1428571428572</ele><time>2026-04-19T09:54:58.999Z</time></trkpt><trkpt lat="43.804478426005666" lon="10.968951935538989"><ele>601.5714285714286</ele><time>2026-04-19T09:55:01.999Z</time></trkpt><trkpt lat="43.80453332350919" lon="10.968886630711927"><ele>601.0</ele><time>2026-04-19T09:55:05.999Z</time></trkpt><trkpt lat="43.80458708442875" lon="10.96882671612491"><ele>601.0</ele><time>2026-04-19T09:55:08.999Z</time></trkpt><trkpt lat="43.804640556507984" lon="10.968735494532527"><ele>601.0</ele><time>2026-04-19T09:55:12.999Z</time></trkpt><trkpt lat="43.80470951032513" lon="10.968682926814266"><ele>601.0</ele><time>2026-04-19T09:55:16.999Z</time></trkpt><trkpt lat="43.8047721672518" lon="10.968648061978701"><ele>601.0</ele><time>2026-04-19T09:55:20.999Z</time></trkpt><trkpt lat="43.80483854962782" lon="10.968614816931197"><ele>601.0</ele><time>2026-04-19T09:55:24.999Z</time></trkpt><trkpt lat="43.80491385895205" lon="10.968584878980497"><ele>601.0</ele><time>2026-04-19T09:55:28.999Z</time></trkpt><trkpt lat="43.80500344888885" lon="10.968552373135166"><ele>601.0</ele><time>2026-04-19T09:55:32.999Z</time></trkpt><trkpt lat="43.80507461779797" lon="10.968499874182221"><ele>601.0</ele><time>2026-04-19T09:55:36.999Z</time></trkpt><trkpt lat="43.805136799034635" lon="10.968471361811599"><ele>601.0</ele><time>2026-04-19T09:55:39.999Z</time></trkpt><trkpt lat="43.8052075725718" lon="10.968414300968314"><ele>601.0</ele><time>2026-04-19T09:55:44Z</time></trkpt><trkpt lat="43.805268958483765" lon="10.968390108105584"><ele>601.0</ele><time>2026-04-19T09:55:47Z</time></trkpt><trkpt lat="43.80532966884922" lon="10.968334972585145"><ele>601.0</ele><time>2026-04-19T09:55:50Z</time></trkpt><trkpt lat="43.8054082515495" lon="10.96830344300095"><ele>601.0</ele><time>2026-04-19T09:55:54Z</time></trkpt><trkpt lat="43.80548421662808" lon="10.968259000324167"><ele>602.2857142857142</ele><time>2026-04-19T09:55:57Z</time></trkpt><trkpt lat="43.80556775053551" lon="10.968244926663282"><ele>603.5714285714287</ele><time>2026-04-19T09:56:01Z</time></trkpt><trkpt lat="43.8056322621315" lon="10.968220413737436"><ele>604.8571428571429</ele><time>2026-04-19T09:56:04Z</time></trkpt><trkpt lat="43.80569871769352" lon="10.968178260077668"><ele>606.1428571428571</ele><time>2026-04-19T09:56:07Z</time></trkpt><trkpt lat="43.80575705946799" lon="10.96814157540221"><ele>607.4285714285713</ele><time>2026-04-19T09:56:10Z</time></trkpt><trkpt lat="43.80582139021654" lon="10.96810558323466"><ele>608.7142857142858</ele><time>2026-04-19T09:56:13Z</time></trkpt><trkpt lat="43.80589399401982" lon="10.968049875777814"><ele>610.0</ele><time>2026-04-19T09:56:17Z</time></trkpt><trkpt lat="43.805947824689255" lon="10.967991967855198"><ele>607.5</ele><time>2026-04-19T09:56:20Z</time></trkpt><trkpt lat="43.80601303878232" lon="10.967949079971463"><ele>605.0</ele><time>2026-04-19T09:56:23Z</time></trkpt><trkpt lat="43.80608184174336" lon="10.967910868867905"><ele>602.5</ele><time>2026-04-19T09:56:27Z</time></trkpt><trkpt lat="43.80614916016499" lon="10.967855253424776"><ele>600.0</ele><time>2026-04-19T09:56:31Z</time></trkpt><trkpt lat="43.80622669576465" lon="10.96783312033452"><ele>597.5</ele><time>2026-04-19T09:56:35Z</time></trkpt><trkpt lat="43.80630043773781" lon="10.967796629190088"><ele>595.0</ele><time>2026-04-19T09:56:38.999Z</time></trkpt><trkpt lat="43.8063769646578" lon="10.9677766817643"><ele>595.0</ele><time>2026-04-19T09:56:42.999Z</time></trkpt><trkpt lat="43.80645424672274" lon="10.967779173982686"><ele>595.0</ele><time>2026-04-19T09:56:46.999Z</time></trkpt><trkpt lat="43.80652629021123" lon="10.967764070724428"><ele>595.0</ele><time>2026-04-19T09:56:50.999Z</time></trkpt><trkpt lat="43.80659839143688" lon="10.967741700460506"><ele>595.0</ele><time>2026-04-19T09:56:54.999Z</time></trkpt><trkpt lat="43.80666424094519" lon="10.967732012278082"><ele>595.0</ele><time>2026-04-19T09:56:58.999Z</time></trkpt><trkpt lat="43.80673332103441" lon="10.967733241137724"><ele>595.0</ele><time>2026-04-19T09:57:02.999Z</time></trkpt><trkpt lat="43.80680044688726" lon="10.967738095674038"><ele>595.0</ele><time>2026-04-19T09:57:06.999Z</time></trkpt><trkpt lat="43.80687807559912" lon="10.967713692533284"><ele>591.8571428571429</ele><time>2026-04-19T09:57:10.999Z</time></trkpt><trkpt lat="43.80696128130366" lon="10.967738964959402"><ele>588.7142857142858</ele><time>2026-04-19T09:57:14.999Z</time></trkpt><trkpt lat="43.80702742956286" lon="10.967743944267715"><ele>585.5714285714286</ele><time>2026-04-19T09:57:17.999Z</time></trkpt><trkpt lat="43.80709932853809" lon="10.96773446696699"><ele>582.4285714285714</ele><time>2026-04-19T09:57:20.999Z</time></trkpt><trkpt lat="43.8071704535129" lon="10.967723706887455"><ele>579.2857142857143</ele><time>2026-04-19T09:57:23.999Z</time></trkpt><trkpt lat="43.80723477994538" lon="10.967720785163065"><ele>576.1428571428571</ele><time>2026-04-19T09:57:25.999Z</time></trkpt><trkpt lat="43.807313252762846" lon="10.967746691726777"><ele>573.0</ele><time>2026-04-19T09:57:28.999Z</time></trkpt><trkpt lat="43.807381356083084" lon="10.967757748613632"><ele>573.0</ele><time>2026-04-19T09:57:32.999Z</time></trkpt><trkpt lat="43.80746294878138" lon="10.967766199887315"><ele>573.0</ele><time>2026-04-19T09:57:35.999Z</time></trkpt><trkpt lat="43.8075286571038" lon="10.967776699408686"><ele>573.0</ele><time>2026-04-19T09:57:38.999Z</time></trkpt><trkpt lat="43.807617908576326" lon="10.967790967056759"><ele>573.0</ele><time>2026-04-19T09:57:41.999Z</time></trkpt><trkpt lat="43.80768277150957" lon="10.967807501080772"><ele>573.0</ele><time>2026-04-19T09:57:44.999Z</time></trkpt><trkpt lat="43.807764147225924" lon="10.967840996856575"><ele>573.0</ele><time>2026-04-19T09:57:47.999Z</time></trkpt><trkpt lat="43.8078294502966" lon="10.96785745530231"><ele>574.3333333333334</ele><time>2026-04-19T09:57:51Z</time></trkpt><trkpt lat="43.80790152883987" lon="10.967881855679762"><ele>575.6666666666666</ele><time>2026-04-19T09:57:54Z</time></trkpt><trkpt lat="43.807983695578194" lon="10.967903965669556"><ele>577.0</ele><time>2026-04-19T09:57:57Z</time></trkpt><trkpt lat="43.80805656651324" lon="10.967959271945098"><ele>578.3333333333333</ele><time>2026-04-19T09:58:00Z</time></trkpt><trkpt lat="43.808133614212004" lon="10.96800406658314"><ele>579.6666666666666</ele><time>2026-04-19T09:58:03Z</time></trkpt><trkpt lat="43.8082026162846" lon="10.96803104018495"><ele>581.0</ele><time>2026-04-19T09:58:06Z</time></trkpt><trkpt lat="43.808288698387315" lon="10.968038461527222"><ele>581.0</ele><time>2026-04-19T09:58:09Z</time></trkpt><trkpt lat="43.80836109830339" lon="10.968046806677098"><ele>581.0</ele><time>2026-04-19T09:58:12Z</time></trkpt><trkpt lat="43.808437670591644" lon="10.968039940833801"><ele>581.0</ele><time>2026-04-19T09:58:15Z</time></trkpt><trkpt lat="43.808512769556714" lon="10.968054750885555"><ele>581.0</ele><time>2026-04-19T09:58:18Z</time></trkpt><trkpt lat="43.80857523970473" lon="10.968079427323262"><ele>581.0</ele><time>2026-04-19T09:58:21Z</time></trkpt><trkpt lat="43.80864204848452" lon="10.9680863830442"><ele>581.0</ele><time>2026-04-19T09:58:24Z</time></trkpt><trkpt lat="43.808709358355436" lon="10.96809684314442"><ele>581.0</ele><time>2026-04-19T09:58:27Z</time></trkpt><trkpt lat="43.80878026451559" lon="10.968122869200375"><ele>581.1428571428571</ele><time>2026-04-19T09:58:30Z</time></trkpt><trkpt lat="43.80884069660563" lon="10.96815068542803"><ele>581.2857142857142</ele><time>2026-04-19T09:58:32Z</time></trkpt><trkpt lat="43.80889040908359" lon="10.968221779062082"><ele>581.4285714285714</ele><time>2026-04-19T09:58:35Z</time></trkpt><trkpt lat="43.808956173545354" lon="10.968220555827811"><ele>581.5714285714286</ele><time>2026-04-19T09:58:37.999Z</time></trkpt><trkpt lat="43.809024973822126" lon="10.968254820040425"><ele>581.7142857142857</ele><time>2026-04-19T09:58:40.999Z</time></trkpt><trkpt lat="43.80909638840873" lon="10.968279365596095"><ele>581.8571428571429</ele><time>2026-04-19T09:58:43.999Z</time></trkpt><trkpt lat="43.8091685935526" lon="10.968277303428057"><ele>582.0</ele><time>2026-04-19T09:58:46.999Z</time></trkpt><trkpt lat="43.809243157947556" lon="10.968301595970434"><ele>582.0</ele><time>2026-04-19T09:58:49.999Z</time></trkpt><trkpt lat="43.80932377164197" lon="10.968326583023204"><ele>582.0</ele><time>2026-04-19T09:58:52.999Z</time></trkpt><trkpt lat="43.809393649943125" lon="10.968380815909853"><ele>582.0</ele><time>2026-04-19T09:58:55.999Z</time></trkpt><trkpt lat="43.80944683583543" lon="10.968461117339427"><ele>582.0</ele><time>2026-04-19T09:58:58.999Z</time></trkpt><trkpt lat="43.80947083572372" lon="10.968566575613817"><ele>582.0</ele><time>2026-04-19T09:59:01.999Z</time></trkpt><trkpt lat="43.809521234024345" lon="10.96862380199498"><ele>582.0</ele><time>2026-04-19T09:59:04.999Z</time></trkpt><trkpt lat="43.80959596888413" lon="10.968671819430572"><ele>577.7142857142857</ele><time>2026-04-19T09:59:08.999Z</time></trkpt><trkpt lat="43.80966738016312" lon="10.968682253482097"><ele>573.4285714285713</ele><time>2026-04-19T09:59:11.999Z</time></trkpt><trkpt lat="43.80973201434861" lon="10.968705907967005"><ele>569.1428571428571</ele><time>2026-04-19T09:59:14.999Z</time></trkpt><trkpt lat="43.80979547154064" lon="10.968747362098155"><ele>564.8571428571429</ele><time>2026-04-19T09:59:17.999Z</time></trkpt><trkpt lat="43.80987306061785" lon="10.968771344074154"><ele>560.5714285714287</ele><time>2026-04-19T09:59:21.999Z</time></trkpt><trkpt lat="43.80994111432748" lon="10.968790500913505"><ele>556.2857142857143</ele><time>2026-04-19T09:59:24.999Z</time></trkpt><trkpt lat="43.81000525410115" lon="10.968842743020383"><ele>552.0</ele><time>2026-04-19T09:59:27.999Z</time></trkpt><trkpt lat="43.81006937744617" lon="10.96885993486771"><ele>552.0</ele><time>2026-04-19T09:59:30.999Z</time></trkpt><trkpt lat="43.81014783430734" lon="10.96882812886303"><ele>552.0</ele><time>2026-04-19T09:59:33.999Z</time></trkpt><trkpt lat="43.810194247276534" lon="10.968757084077374"><ele>552.0</ele><time>2026-04-19T09:59:36.999Z</time></trkpt><trkpt lat="43.81024092896045" lon="10.968696507965214"><ele>552.0</ele><time>2026-04-19T09:59:39.999Z</time></trkpt><trkpt lat="43.810290604230964" lon="10.968622806707996"><ele>552.0</ele><time>2026-04-19T09:59:42.999Z</time></trkpt><trkpt lat="43.81033968595091" lon="10.968554135671827"><ele>552.0</ele><time>2026-04-19T09:59:45.999Z</time></trkpt><trkpt lat="43.81037179417809" lon="10.968468942687517"><ele>552.0</ele><time>2026-04-19T09:59:48.999Z</time></trkpt><trkpt lat="43.81042101462914" lon="10.968360419141854"><ele>550.6666666666666</ele><time>2026-04-19T09:59:52.999Z</time></trkpt><trkpt lat="43.81047973847359" lon="10.96828805497858"><ele>549.3333333333334</ele><time>2026-04-19T09:59:56Z</time></trkpt><trkpt lat="43.810528580287375" lon="10.968203639999748"><ele>548.0</ele><time>2026-04-19T09:59:59Z</time></trkpt><trkpt lat="43.81061308816212" lon="10.96814984802388"><ele>546.6666666666667</ele><time>2026-04-19T10:00:02Z</time></trkpt><trkpt lat="43.81068362332478" lon="10.968087596501636"><ele>545.3333333333334</ele><time>2026-04-19T10:00:05Z</time></trkpt><trkpt lat="43.81075638906244" lon="10.968059093911272"><ele>544.0</ele><time>2026-04-19T10:00:08Z</time></trkpt><trkpt lat="43.81082417702578" lon="10.96802596861831"><ele>544.0</ele><time>2026-04-19T10:00:11Z</time></trkpt><trkpt lat="43.81088691606977" lon="10.967987664955306"><ele>544.0</ele><time>2026-04-19T10:00:14Z</time></trkpt><trkpt lat="43.810950418859065" lon="10.967913741748685"><ele>544.0</ele><time>2026-04-19T10:00:17Z</time></trkpt><trkpt lat="43.810994386765486" lon="10.96783628445303"><ele>544.0</ele><time>2026-04-19T10:00:19Z</time></trkpt><trkpt lat="43.811024539829745" lon="10.967734117283829"><ele>544.0</ele><time>2026-04-19T10:00:22Z</time></trkpt><trkpt lat="43.81104847529476" lon="10.967626885400533"><ele>544.0</ele><time>2026-04-19T10:00:25Z</time></trkpt><trkpt lat="43.811078690806596" lon="10.967533095464132"><ele>540.5</ele><time>2026-04-19T10:00:28Z</time></trkpt><trkpt lat="43.811102317124586" lon="10.967420617802436"><ele>537.0</ele><time>2026-04-19T10:00:31Z</time></trkpt><trkpt lat="43.8111375132096" lon="10.96732094969791"><ele>533.5</ele><time>2026-04-19T10:00:34Z</time></trkpt><trkpt lat="43.81115018548908" lon="10.967225978868976"><ele>530.0</ele><time>2026-04-19T10:00:37Z</time></trkpt><trkpt lat="43.81114736258606" lon="10.96711578971791"><ele>526.5</ele><time>2026-04-19T10:00:40Z</time></trkpt><trkpt lat="43.811157021061305" lon="10.967020577291208"><ele>523.0</ele><time>2026-04-19T10:00:43Z</time></trkpt><trkpt lat="43.81117433825638" lon="10.966909346098996"><ele>523.0</ele><time>2026-04-19T10:00:47Z</time></trkpt><trkpt lat="43.811192821502345" lon="10.966821507478361"><ele>523.0</ele><time>2026-04-19T10:00:50Z</time></trkpt><trkpt lat="43.81121885481286" lon="10.966709349515947"><ele>523.0</ele><time>2026-04-19T10:00:52.999Z</time></trkpt><trkpt lat="43.811233820256234" lon="10.966586228811876"><ele>523.0</ele><time>2026-04-19T10:00:56.999Z</time></trkpt><trkpt lat="43.81125877928944" lon="10.966489295503619"><ele>523.0</ele><time>2026-04-19T10:00:59.999Z</time></trkpt><trkpt lat="43.8113030420375" lon="10.966413298409114"><ele>523.0</ele><time>2026-04-19T10:01:02.999Z</time></trkpt><trkpt lat="43.81136528518823" lon="10.966319196223994"><ele>525.3333333333334</ele><time>2026-04-19T10:01:05.999Z</time></trkpt><trkpt lat="43.811425590546506" lon="10.966252196281607"><ele>527.6666666666667</ele><time>2026-04-19T10:01:08.999Z</time></trkpt><trkpt lat="43.81148876196169" lon="10.966178585417028"><ele>530.0</ele><time>2026-04-19T10:01:11.999Z</time></trkpt><trkpt lat="43.81153216243538" lon="10.966104047543498"><ele>532.3333333333334</ele><time>2026-04-19T10:01:14.999Z</time></trkpt><trkpt lat="43.81157555478911" lon="10.96602282009933"><ele>534.6666666666666</ele><time>2026-04-19T10:01:17.999Z</time></trkpt><trkpt lat="43.81161401036947" lon="10.96593511536692"><ele>537.0</ele><time>2026-04-19T10:01:20.999Z</time></trkpt><trkpt lat="43.811667833855296" lon="10.96586440502254"><ele>536.3333333333334</ele><time>2026-04-19T10:01:23.999Z</time></trkpt><trkpt lat="43.81171748329145" lon="10.965799208169642"><ele>535.6666666666666</ele><time>2026-04-19T10:01:26.999Z</time></trkpt><trkpt lat="43.81177055419793" lon="10.965723425308264"><ele>535.0</ele><time>2026-04-19T10:01:29.999Z</time></trkpt><trkpt lat="43.811838011392894" lon="10.965653765346266"><ele>534.3333333333333</ele><time>2026-04-19T10:01:32.999Z</time></trkpt><trkpt lat="43.81187213359392" lon="10.965571586241543"><ele>533.6666666666666</ele><time>2026-04-19T10:01:35.999Z</time></trkpt><trkpt lat="43.81192379070698" lon="10.965495819274208"><ele>533.0</ele><time>2026-04-19T10:01:38.999Z</time></trkpt><trkpt lat="43.811969872327225" lon="10.965409171969576"><ele>533.0</ele><time>2026-04-19T10:01:41.999Z</time></trkpt><trkpt lat="43.812020644986" lon="10.965350350351557"><ele>533.0</ele><time>2026-04-19T10:01:44.999Z</time></trkpt><trkpt lat="43.81207210151631" lon="10.96529767351314"><ele>533.0</ele><time>2026-04-19T10:01:47.999Z</time></trkpt><trkpt lat="43.812128749602024" lon="10.96524280778273"><ele>533.0</ele><time>2026-04-19T10:01:50.999Z</time></trkpt><trkpt lat="43.81219698437203" lon="10.965185263975057"><ele>533.0</ele><time>2026-04-19T10:01:54.999Z</time></trkpt><trkpt lat="43.81225759269254" lon="10.965118558270888"><ele>533.0</ele><time>2026-04-19T10:01:58.999Z</time></trkpt><trkpt lat="43.81230511674843" lon="10.965057910465985"><ele>533.0</ele><time>2026-04-19T10:02:02Z</time></trkpt><trkpt lat="43.81237585389925" lon="10.964985683343658"><ele>533.0</ele><time>2026-04-19T10:02:06Z</time></trkpt><trkpt lat="43.812419352637505" lon="10.96491777294787"><ele>533.0</ele><time>2026-04-19T10:02:09Z</time></trkpt><trkpt lat="43.81245038849787" lon="10.964839728223478"><ele>533.0</ele><time>2026-04-19T10:02:12Z</time></trkpt><trkpt lat="43.81246951073683" lon="10.964754393242568"><ele>533.0</ele><time>2026-04-19T10:02:15Z</time></trkpt><trkpt lat="43.81247647753287" lon="10.964661044029643"><ele>533.0</ele><time>2026-04-19T10:02:18Z</time></trkpt><trkpt lat="43.81249193892045" lon="10.96457199554492"><ele>533.0</ele><time>2026-04-19T10:02:21Z</time></trkpt><trkpt lat="43.81250517599484" lon="10.964477281225026"><ele>533.0</ele><time>2026-04-19T10:02:24Z</time></trkpt><trkpt lat="43.81249598585109" lon="10.964369697805834"><ele>533.0</ele><time>2026-04-19T10:02:27Z</time></trkpt><trkpt lat="43.81248126036256" lon="10.964281934503964"><ele>533.0</ele><time>2026-04-19T10:02:30Z</time></trkpt><trkpt lat="43.81247773494592" lon="10.964177510776771"><ele>533.0</ele><time>2026-04-19T10:02:33Z</time></trkpt><trkpt lat="43.81248865810515" lon="10.964090935715165"><ele>533.0</ele><time>2026-04-19T10:02:36Z</time></trkpt><trkpt lat="43.812495594980454" lon="10.963982872799342"><ele>533.0</ele><time>2026-04-19T10:02:40Z</time></trkpt><trkpt lat="43.81250850703585" lon="10.963893467562436"><ele>533.0</ele><time>2026-04-19T10:02:44Z</time></trkpt><trkpt lat="43.812577435468825" lon="10.963829080967061"><ele>533.0</ele><time>2026-04-19T10:02:48Z</time></trkpt><trkpt lat="43.81262643081449" lon="10.963769205148798"><ele>533.0</ele><time>2026-04-19T10:02:51Z</time></trkpt><trkpt lat="43.81269721124852" lon="10.963739369461036"><ele>533.0</ele><time>2026-04-19T10:02:54Z</time></trkpt><trkpt lat="43.81274996033784" lon="10.963676426199646"><ele>533.0</ele><time>2026-04-19T10:02:56.999Z</time></trkpt><trkpt lat="43.812791616124" lon="10.963609525763912"><ele>533.0</ele><time>2026-04-19T10:02:59.999Z</time></trkpt><trkpt lat="43.812836726255874" lon="10.96354076080179"><ele>533.0</ele><time>2026-04-19T10:03:02.999Z</time></trkpt><trkpt lat="43.8128946687129" lon="10.963442192409305"><ele>533.0</ele><time>2026-04-19T10:03:06.999Z</time></trkpt><trkpt lat="43.812925685864506" lon="10.963350735332845"><ele>533.0</ele><time>2026-04-19T10:03:09.999Z</time></trkpt><trkpt lat="43.81296105390554" lon="10.963261850002151"><ele>533.0</ele><time>2026-04-19T10:03:12.999Z</time></trkpt><trkpt lat="43.81299882131199" lon="10.963169198979768"><ele>533.0</ele><time>2026-04-19T10:03:15.999Z</time></trkpt><trkpt lat="43.813013698025806" lon="10.963081056310976"><ele>533.0</ele><time>2026-04-19T10:03:18.999Z</time></trkpt><trkpt lat="43.813034553257744" lon="10.962995516895925"><ele>533.0</ele><time>2026-04-19T10:03:21.999Z</time></trkpt><trkpt lat="43.8130716179497" lon="10.962904578142881"><ele>533.0</ele><time>2026-04-19T10:03:24.999Z</time></trkpt><trkpt lat="43.81311528684207" lon="10.962839240767007"><ele>533.0</ele><time>2026-04-19T10:03:27.999Z</time></trkpt><trkpt lat="43.81315278729958" lon="10.962757748388523"><ele>533.0</ele><time>2026-04-19T10:03:32.999Z</time></trkpt><trkpt lat="43.813212091526786" lon="10.962708991924405"><ele>533.0</ele><time>2026-04-19T10:03:38.999Z</time></trkpt><trkpt lat="43.81327988613262" lon="10.962660794813281"><ele>533.0</ele><time>2026-04-19T10:03:44.999Z</time></trkpt><trkpt lat="43.81334289081936" lon="10.962624229047542"><ele>533.0</ele><time>2026-04-19T10:03:49.999Z</time></trkpt><trkpt lat="43.8134001918064" lon="10.962582141860025"><ele>533.0</ele><time>2026-04-19T10:03:52.999Z</time></trkpt><trkpt lat="43.81345344018004" lon="10.962533197354281"><ele>533.0</ele><time>2026-04-19T10:03:55.999Z</time></trkpt><trkpt lat="43.81351148528054" lon="10.962494395339816"><ele>533.0</ele><time>2026-04-19T10:03:58.999Z</time></trkpt><trkpt lat="43.813576672850914" lon="10.96244496039244"><ele>533.0</ele><time>2026-04-19T10:04:02.999Z</time></trkpt><trkpt lat="43.81366921260418" lon="10.962420793470107"><ele>533.3333333333333</ele><time>2026-04-19T10:04:06.999Z</time></trkpt><trkpt lat="43.81374751158873" lon="10.962384298519009"><ele>533.6666666666666</ele><time>2026-04-19T10:04:11Z</time></trkpt><trkpt lat="43.81382154571675" lon="10.96234551381829"><ele>534.0</ele><time>2026-04-19T10:04:15Z</time></trkpt><trkpt lat="43.81388370753865" lon="10.962327641941506"><ele>534.3333333333334</ele><time>2026-04-19T10:04:18Z</time></trkpt><trkpt lat="43.81393529127426" lon="10.962244763783653"><ele>534.6666666666667</ele><time>2026-04-19T10:04:22Z</time></trkpt><trkpt lat="43.814010298061" lon="10.962169297634828"><ele>535.0</ele><time>2026-04-19T10:04:26Z</time></trkpt><trkpt lat="43.81404759989855" lon="10.962080480377212"><ele>535.0</ele><time>2026-04-19T10:04:29Z</time></trkpt><trkpt lat="43.814085130172245" lon="10.962001725800347"><ele>535.0</ele><time>2026-04-19T10:04:32Z</time></trkpt><trkpt lat="43.81412506050506" lon="10.961929028565246"><ele>535.0</ele><time>2026-04-19T10:04:34Z</time></trkpt><trkpt lat="43.81418351380205" lon="10.961864109232993"><ele>535.0</ele><time>2026-04-19T10:04:37Z</time></trkpt><trkpt lat="43.81422264970141" lon="10.961780421177028"><ele>535.0</ele><time>2026-04-19T10:04:40Z</time></trkpt><trkpt lat="43.814277182406606" lon="10.961701397131375"><ele>535.0</ele><time>2026-04-19T10:04:43Z</time></trkpt><trkpt lat="43.81434035479336" lon="10.961648489892378"><ele>535.0</ele><time>2026-04-19T10:04:46Z</time></trkpt><trkpt lat="43.8143825056576" lon="10.96157405908349"><ele>533.5714285714286</ele><time>2026-04-19T10:04:49Z</time></trkpt><trkpt lat="43.814431094553775" lon="10.961517028859824"><ele>532.1428571428571</ele><time>2026-04-19T10:04:52Z</time></trkpt><trkpt lat="43.81448430552465" lon="10.961462586843021"><ele>530.7142857142858</ele><time>2026-04-19T10:04:55Z</time></trkpt><trkpt lat="43.81454930969128" lon="10.961398555363305"><ele>529.2857142857142</ele><time>2026-04-19T10:04:59Z</time></trkpt><trkpt lat="43.81462329944446" lon="10.96135771614296"><ele>527.8571428571429</ele><time>2026-04-19T10:05:03Z</time></trkpt><trkpt lat="43.814693838197165" lon="10.961317076442718"><ele>526.4285714285714</ele><time>2026-04-19T10:05:06.999Z</time></trkpt><trkpt lat="43.814759916135934" lon="10.961280402854978"><ele>525.0</ele><time>2026-04-19T10:05:09.999Z</time></trkpt><trkpt lat="43.81481831301687" lon="10.961238967850969"><ele>525.0</ele><time>2026-04-19T10:05:12.999Z</time></trkpt><trkpt lat="43.8148762153394" lon="10.9611918431338"><ele>525.0</ele><time>2026-04-19T10:05:15.999Z</time></trkpt><trkpt lat="43.81493965164208" lon="10.961130067236361"><ele>525.0</ele><time>2026-04-19T10:05:18.999Z</time></trkpt><trkpt lat="43.814999670038986" lon="10.96108192917535"><ele>525.0</ele><time>2026-04-19T10:05:21.999Z</time></trkpt><trkpt lat="43.81505680409041" lon="10.96102673605385"><ele>525.0</ele><time>2026-04-19T10:05:24.999Z</time></trkpt><trkpt lat="43.81511802213658" lon="10.960996429559694"><ele>525.0</ele><time>2026-04-19T10:05:27.999Z</time></trkpt><trkpt lat="43.81519465028683" lon="10.960965247764802"><ele>525.0</ele><time>2026-04-19T10:05:31.999Z</time></trkpt><trkpt lat="43.815261119130966" lon="10.960916273186436"><ele>525.4285714285714</ele><time>2026-04-19T10:05:35.999Z</time></trkpt><trkpt lat="43.81531906008648" lon="10.960867568706211"><ele>525.8571428571429</ele><time>2026-04-19T10:05:39.999Z</time></trkpt><trkpt lat="43.81537607038346" lon="10.960825353227564"><ele>526.2857142857142</ele><time>2026-04-19T10:05:42.999Z</time></trkpt><trkpt lat="43.81542587654955" lon="10.960755172976187"><ele>526.7142857142858</ele><time>2026-04-19T10:05:45.999Z</time></trkpt><trkpt lat="43.815478180364515" lon="10.960675608752604"><ele>527.1428571428571</ele><time>2026-04-19T10:05:49.999Z</time></trkpt><trkpt lat="43.81552893509451" lon="10.960621108479483"><ele>527.5714285714286</ele><time>2026-04-19T10:05:52.999Z</time></trkpt><trkpt lat="43.815582914839" lon="10.960549740896976"><ele>528.0</ele><time>2026-04-19T10:05:56.999Z</time></trkpt><trkpt lat="43.81562480271026" lon="10.960468114352956"><ele>528.0</ele><time>2026-04-19T10:06:00.999Z</time></trkpt><trkpt lat="43.81568975206028" lon="10.960411915100472"><ele>528.0</ele><time>2026-04-19T10:06:03.999Z</time></trkpt><trkpt lat="43.81574533230062" lon="10.960362978025294"><ele>528.0</ele><time>2026-04-19T10:06:06.999Z</time></trkpt><trkpt lat="43.815819198598426" lon="10.960310750987496"><ele>528.0</ele><time>2026-04-19T10:06:10.999Z</time></trkpt><trkpt lat="43.81587276005396" lon="10.960245395899767"><ele>528.0</ele><time>2026-04-19T10:06:14Z</time></trkpt><trkpt lat="43.81591187037925" lon="10.96014257225828"><ele>528.0</ele><time>2026-04-19T10:06:18Z</time></trkpt><trkpt lat="43.81592982901933" lon="10.960057370671159"><ele>528.0</ele><time>2026-04-19T10:06:21Z</time></trkpt><trkpt lat="43.81596458600263" lon="10.959961643715399"><ele>528.1428571428571</ele><time>2026-04-19T10:06:25Z</time></trkpt><trkpt lat="43.815968390052795" lon="10.959860426650822"><ele>528.2857142857143</ele><time>2026-04-19T10:06:29Z</time></trkpt><trkpt lat="43.81597859716651" lon="10.959764372123965"><ele>528.4285714285714</ele><time>2026-04-19T10:06:32Z</time></trkpt><trkpt lat="43.815980966691065" lon="10.95966593841814"><ele>528.5714285714286</ele><time>2026-04-19T10:06:35Z</time></trkpt><trkpt lat="43.8160027694832" lon="10.959578843517228"><ele>528.7142857142857</ele><time>2026-04-19T10:06:38Z</time></trkpt><trkpt lat="43.81603678820765" lon="10.959474104536124"><ele>528.8571428571429</ele><time>2026-04-19T10:06:41Z</time></trkpt><trkpt lat="43.81606770940392" lon="10.95938553251094"><ele>529.0</ele><time>2026-04-19T10:06:44Z</time></trkpt><trkpt lat="43.81607872731404" lon="10.959276212138858"><ele>530.0</ele><time>2026-04-19T10:06:47Z</time></trkpt><trkpt lat="43.816102422795886" lon="10.959190331225633"><ele>531.0</ele><time>2026-04-19T10:06:50Z</time></trkpt><trkpt lat="43.81613407463259" lon="10.959092266792513"><ele>532.0</ele><time>2026-04-19T10:06:53Z</time></trkpt><trkpt lat="43.816178264372546" lon="10.959010086740216"><ele>533.0</ele><time>2026-04-19T10:06:56Z</time></trkpt><trkpt lat="43.81622213637271" lon="10.958930636492104"><ele>534.0</ele><time>2026-04-19T10:06:59Z</time></trkpt><trkpt lat="43.81626506010988" lon="10.958860949201622"><ele>535.0</ele><time>2026-04-19T10:07:02Z</time></trkpt><trkpt lat="43.81631586147561" lon="10.95880019843693"><ele>536.0</ele><time>2026-04-19T10:07:05Z</time></trkpt><trkpt lat="43.81638281390854" lon="10.958726414642554"><ele>536.0</ele><time>2026-04-19T10:07:07.999Z</time></trkpt><trkpt lat="43.81643258517704" lon="10.958634138964277"><ele>536.0</ele><time>2026-04-19T10:07:11.999Z</time></trkpt><trkpt lat="43.81648603023098" lon="10.958576119537561"><ele>536.0</ele><time>2026-04-19T10:07:14.999Z</time></trkpt><trkpt lat="43.816552354764774" lon="10.958511444543777"><ele>536.0</ele><time>2026-04-19T10:07:18.999Z</time></trkpt><trkpt lat="43.816629939103905" lon="10.958474519420376"><ele>536.0</ele><time>2026-04-19T10:07:22.999Z</time></trkpt><trkpt lat="43.81669332272299" lon="10.958488998855339"><ele>536.0</ele><time>2026-04-19T10:07:25.999Z</time></trkpt><trkpt lat="43.816776980905544" lon="10.958493150716395"><ele>535.0</ele><time>2026-04-19T10:07:29.999Z</time></trkpt><trkpt lat="43.816861130238806" lon="10.958487036458349"><ele>534.0</ele><time>2026-04-19T10:07:33.999Z</time></trkpt><trkpt lat="43.81693778270567" lon="10.95848368154426"><ele>533.0</ele><time>2026-04-19T10:07:37.999Z</time></trkpt><trkpt lat="43.81701557800545" lon="10.95847127936713"><ele>532.0</ele><time>2026-04-19T10:07:40.999Z</time></trkpt><trkpt lat="43.81708941034167" lon="10.958434932402776"><ele>531.0</ele><time>2026-04-19T10:07:43.999Z</time></trkpt><trkpt lat="43.817154645596595" lon="10.95842225215249"><ele>530.0</ele><time>2026-04-19T10:07:45.999Z</time></trkpt><trkpt lat="43.81722926118208" lon="10.95841932427775"><ele>529.9999999999999</ele><time>2026-04-19T10:07:48.999Z</time></trkpt><trkpt lat="43.817293411763984" lon="10.958405108508533"><ele>530.0</ele><time>2026-04-19T10:07:51.999Z</time></trkpt><trkpt lat="43.81735742975236" lon="10.958416694356552"><ele>530.0</ele><time>2026-04-19T10:07:54.999Z</time></trkpt><trkpt lat="43.81742481512554" lon="10.95839916149582"><ele>530.0</ele><time>2026-04-19T10:07:57.999Z</time></trkpt><trkpt lat="43.81748597122192" lon="10.958432330139859"><ele>530.0</ele><time>2026-04-19T10:08:00.999Z</time></trkpt><trkpt lat="43.817559685179376" lon="10.95845008930866"><ele>529.9999999999999</ele><time>2026-04-19T10:08:03.999Z</time></trkpt><trkpt lat="43.8176418344566" lon="10.958419301923197"><ele>530.0</ele><time>2026-04-19T10:08:07.999Z</time></trkpt><trkpt lat="43.81771574999539" lon="10.95837680747441"><ele>525.4285714285713</ele><time>2026-04-19T10:08:10.999Z</time></trkpt><trkpt lat="43.81777934639758" lon="10.958342820779619"><ele>520.8571428571429</ele><time>2026-04-19T10:08:13.999Z</time></trkpt><trkpt lat="43.8178451242677" lon="10.958316056764044"><ele>516.2857142857142</ele><time>2026-04-19T10:08:16.999Z</time></trkpt><trkpt lat="43.81790626667595" lon="10.958271951612947"><ele>511.71428571428567</ele><time>2026-04-19T10:08:21Z</time></trkpt><trkpt lat="43.81796833939044" lon="10.95822030870042"><ele>507.1428571428571</ele><time>2026-04-19T10:08:24Z</time></trkpt><trkpt lat="43.81803260128216" lon="10.95817410845459"><ele>502.57142857142856</ele><time>2026-04-19T10:08:27Z</time></trkpt><trkpt lat="43.8180996893697" lon="10.958105740494174"><ele>498.0</ele><time>2026-04-19T10:08:30Z</time></trkpt><trkpt lat="43.818160804612546" lon="10.958034587390415"><ele>498.0</ele><time>2026-04-19T10:08:33Z</time></trkpt><trkpt lat="43.818223522255614" lon="10.957953582824233"><ele>498.0</ele><time>2026-04-19T10:08:36Z</time></trkpt><trkpt lat="43.818261346250836" lon="10.95786207853624"><ele>498.0</ele><time>2026-04-19T10:08:39Z</time></trkpt><trkpt lat="43.81829571885261" lon="10.957768079599557"><ele>498.0</ele><time>2026-04-19T10:08:42Z</time></trkpt><trkpt lat="43.818353426405444" lon="10.957689614581788"><ele>498.0</ele><time>2026-04-19T10:08:45Z</time></trkpt><trkpt lat="43.81840857289534" lon="10.957638101696787"><ele>498.0</ele><time>2026-04-19T10:08:49Z</time></trkpt><trkpt lat="43.81846621177582" lon="10.957557392047187"><ele>496.0</ele><time>2026-04-19T10:08:52Z</time></trkpt><trkpt lat="43.818522334308206" lon="10.957473860669062"><ele>494.0</ele><time>2026-04-19T10:08:56Z</time></trkpt><trkpt lat="43.81857958500647" lon="10.957410356057332"><ele>492.0</ele><time>2026-04-19T10:08:59Z</time></trkpt><trkpt lat="43.81865080235045" lon="10.957349625955677"><ele>490.0</ele><time>2026-04-19T10:09:03Z</time></trkpt><trkpt lat="43.81861676519224" lon="10.95725138120985"><ele>488.0</ele><time>2026-04-19T10:09:07Z</time></trkpt><trkpt lat="43.81858263313751" lon="10.957112395657903"><ele>486.0</ele><time>2026-04-19T10:09:11.999Z</time></trkpt><trkpt lat="43.81855141685698" lon="10.957035560143137"><ele>486.0</ele><time>2026-04-19T10:09:14.999Z</time></trkpt><trkpt lat="43.818507544293674" lon="10.95695794020728"><ele>486.0</ele><time>2026-04-19T10:09:17.999Z</time></trkpt><trkpt lat="43.81843207652521" lon="10.956890082184579"><ele>486.0</ele><time>2026-04-19T10:09:20.999Z</time></trkpt><trkpt lat="43.81835505676068" lon="10.956881463986424"><ele>486.0</ele><time>2026-04-19T10:09:23.999Z</time></trkpt><trkpt lat="43.81827981219472" lon="10.956905209133309"><ele>486.0</ele><time>2026-04-19T10:09:26.999Z</time></trkpt><trkpt lat="43.81821487258157" lon="10.95693640504835"><ele>486.0</ele><time>2026-04-19T10:09:29.999Z</time></trkpt><trkpt lat="43.818141576555746" lon="10.956984700694342"><ele>486.1428571428571</ele><time>2026-04-19T10:09:33.999Z</time></trkpt><trkpt lat="43.81807378103026" lon="10.956999569242134"><ele>486.28571428571433</ele><time>2026-04-19T10:09:36.999Z</time></trkpt><trkpt lat="43.81800479474109" lon="10.957060824257379"><ele>486.42857142857144</ele><time>2026-04-19T10:09:40.999Z</time></trkpt><trkpt lat="43.81793250965547" lon="10.957107977333854"><ele>486.57142857142856</ele><time>2026-04-19T10:09:44.999Z</time></trkpt><trkpt lat="43.81787305358183" lon="10.95716444025688"><ele>486.71428571428567</ele><time>2026-04-19T10:09:47.999Z</time></trkpt><trkpt lat="43.81781157085555" lon="10.957216144457322"><ele>486.8571428571429</ele><time>2026-04-19T10:09:50.999Z</time></trkpt><trkpt lat="43.8177434547362" lon="10.957235382031755"><ele>487.0</ele><time>2026-04-19T10:09:53.999Z</time></trkpt><trkpt lat="43.817666305222744" lon="10.957222281016204"><ele>486.14285714285717</ele><time>2026-04-19T10:09:57.999Z</time></trkpt><trkpt lat="43.817599756144176" lon="10.957183053189393"><ele>485.2857142857142</ele><time>2026-04-19T10:10:00.999Z</time></trkpt><trkpt lat="43.81754740232163" lon="10.957133920122011"><ele>484.4285714285714</ele><time>2026-04-19T10:10:03.999Z</time></trkpt><trkpt lat="43.81751583395738" lon="10.957033494582484"><ele>483.57142857142856</ele><time>2026-04-19T10:10:07.999Z</time></trkpt><trkpt lat="43.81750553721281" lon="10.956924763105386"><ele>482.71428571428567</ele><time>2026-04-19T10:10:11.999Z</time></trkpt><trkpt lat="43.817491063826814" lon="10.956812995424176"><ele>481.8571428571428</ele><time>2026-04-19T10:10:16.999Z</time></trkpt><trkpt lat="43.81745609618981" lon="10.956728157266058"><ele>480.99999999999994</ele><time>2026-04-19T10:10:19.999Z</time></trkpt><trkpt lat="43.81741816725974" lon="10.956644788064112"><ele>479.71428571428567</ele><time>2026-04-19T10:10:23.999Z</time></trkpt><trkpt lat="43.81737774453507" lon="10.956559358414832"><ele>478.42857142857144</ele><time>2026-04-19T10:10:27Z</time></trkpt><trkpt lat="43.81732453148415" lon="10.956488276700934"><ele>477.1428571428571</ele><time>2026-04-19T10:10:30Z</time></trkpt><trkpt lat="43.8172862199993" lon="10.956416091991732"><ele>475.85714285714283</ele><time>2026-04-19T10:10:33Z</time></trkpt><trkpt lat="43.81724757975435" lon="10.956336080561265"><ele>474.57142857142856</ele><time>2026-04-19T10:10:36Z</time></trkpt><trkpt lat="43.81718381872484" lon="10.956260303690348"><ele>473.2857142857143</ele><time>2026-04-19T10:10:40Z</time></trkpt><trkpt lat="43.81712593597083" lon="10.956185659280708"><ele>472.0</ele><time>2026-04-19T10:10:44Z</time></trkpt><trkpt lat="43.81707629671432" lon="10.956126783211692"><ele>472.0</ele><time>2026-04-19T10:10:47Z</time></trkpt><trkpt lat="43.817031456725594" lon="10.956063806327224"><ele>472.0</ele><time>2026-04-19T10:10:50Z</time></trkpt><trkpt lat="43.816964299976334" lon="10.956024039917429"><ele>472.0</ele><time>2026-04-19T10:10:54Z</time></trkpt><trkpt lat="43.816911115098165" lon="10.955967556657095"><ele>472.0</ele><time>2026-04-19T10:10:57Z</time></trkpt><trkpt lat="43.81686382934863" lon="10.955908942661582"><ele>472.0</ele><time>2026-04-19T10:11:00Z</time></trkpt><trkpt lat="43.81680741268868" lon="10.955818307096024"><ele>472.0</ele><time>2026-04-19T10:11:04Z</time></trkpt><trkpt lat="43.81674798831918" lon="10.955758235596868"><ele>472.0</ele><time>2026-04-19T10:11:07Z</time></trkpt><trkpt lat="43.81668450821562" lon="10.955697693890098"><ele>470.42857142857144</ele><time>2026-04-19T10:11:10.999Z</time></trkpt><trkpt lat="43.81662705805512" lon="10.955643667439068"><ele>468.8571428571429</ele><time>2026-04-19T10:11:13.999Z</time></trkpt><trkpt lat="43.81657636101791" lon="10.955589244018743"><ele>467.28571428571433</ele><time>2026-04-19T10:11:16.999Z</time></trkpt><trkpt lat="43.8165116567636" lon="10.955552144537542"><ele>465.7142857142857</ele><time>2026-04-19T10:11:19.999Z</time></trkpt><trkpt lat="43.81644829507642" lon="10.955519479281435"><ele>464.1428571428572</ele><time>2026-04-19T10:11:22.999Z</time></trkpt><trkpt lat="43.81636341669876" lon="10.955534510844627"><ele>462.5714285714286</ele><time>2026-04-19T10:11:25.999Z</time></trkpt><trkpt lat="43.81632988715628" lon="10.955646674578432"><ele>461.0</ele><time>2026-04-19T10:11:28.999Z</time></trkpt><trkpt lat="43.81632118665783" lon="10.95573379817996"><ele>461.0</ele><time>2026-04-19T10:11:32.999Z</time></trkpt><trkpt lat="43.81633662524973" lon="10.955840901319887"><ele>461.00000000000006</ele><time>2026-04-19T10:11:36.999Z</time></trkpt><trkpt lat="43.81634234635471" lon="10.955949482722914"><ele>461.0</ele><time>2026-04-19T10:11:40.999Z</time></trkpt><trkpt lat="43.81634081295121" lon="10.956063091157441"><ele>461.0</ele><time>2026-04-19T10:11:44.999Z</time></trkpt><trkpt lat="43.816292585182175" lon="10.956126013102947"><ele>461.00000000000006</ele><time>2026-04-19T10:11:47.999Z</time></trkpt><trkpt lat="43.81623675923908" lon="10.956176960332854"><ele>461.0</ele><time>2026-04-19T10:11:50.999Z</time></trkpt><trkpt lat="43.81616789154327" lon="10.956199514590638"><ele>461.0</ele><time>2026-04-19T10:11:53.999Z</time></trkpt><trkpt lat="43.816100596348456" lon="10.956191293626455"><ele>462.0</ele><time>2026-04-19T10:11:56.999Z</time></trkpt><trkpt lat="43.81602204658874" lon="10.956166016745858"><ele>463.00000000000006</ele><time>2026-04-19T10:11:59.999Z</time></trkpt><trkpt lat="43.815961513904426" lon="10.956132501690748"><ele>464.0</ele><time>2026-04-19T10:12:02.999Z</time></trkpt><trkpt lat="43.81589655101022" lon="10.956102880931999"><ele>465.0</ele><time>2026-04-19T10:12:06.999Z</time></trkpt><trkpt lat="43.815824726815904" lon="10.956087359899177"><ele>466.00000000000006</ele><time>2026-04-19T10:12:10.999Z</time></trkpt><trkpt lat="43.815751166" lon="10.956079854003507"><ele>467.0</ele><time>2026-04-19T10:12:13.999Z</time></trkpt><trkpt lat="43.81567244120728" lon="10.956104902795799"><ele>468.0</ele><time>2026-04-19T10:12:16.999Z</time></trkpt><trkpt lat="43.81559370280876" lon="10.956121071814668"><ele>468.0</ele><time>2026-04-19T10:12:19.999Z</time></trkpt><trkpt lat="43.81550944504545" lon="10.956129862304648"><ele>468.0</ele><time>2026-04-19T10:12:23.999Z</time></trkpt><trkpt lat="43.81543057173404" lon="10.95613547490943"><ele>468.0</ele><time>2026-04-19T10:12:26.999Z</time></trkpt><trkpt lat="43.81533654777171" lon="10.956142522375252"><ele>468.0</ele><time>2026-04-19T10:12:30.999Z</time></trkpt><trkpt lat="43.81526524474576" lon="10.956154133321208"><ele>468.0</ele><time>2026-04-19T10:12:34Z</time></trkpt><trkpt lat="43.81519475540132" lon="10.956146573602375"><ele>468.0</ele><time>2026-04-19T10:12:37Z</time></trkpt><trkpt lat="43.81512859029666" lon="10.956198363344175"><ele>467.8571428571429</ele><time>2026-04-19T10:12:40Z</time></trkpt><trkpt lat="43.8150745842611" lon="10.956288286317065"><ele>467.7142857142858</ele><time>2026-04-19T10:12:44Z</time></trkpt><trkpt lat="43.815013736748554" lon="10.956329487005902"><ele>467.57142857142856</ele><time>2026-04-19T10:12:47Z</time></trkpt><trkpt lat="43.814928940631994" lon="10.95633884144872"><ele>467.42857142857144</ele><time>2026-04-19T10:12:51Z</time></trkpt><trkpt lat="43.814866370598615" lon="10.956370564058757"><ele>467.2857142857143</ele><time>2026-04-19T10:12:55Z</time></trkpt><trkpt lat="43.81479598407565" lon="10.95637322160052"><ele>467.1428571428571</ele><time>2026-04-19T10:13:00Z</time></trkpt><trkpt lat="43.814730948579864" lon="10.95636734734198"><ele>466.99999999999994</ele><time>2026-04-19T10:13:05Z</time></trkpt><trkpt lat="43.814665385154086" lon="10.956388193597917"><ele>466.99999999999994</ele><time>2026-04-19T10:13:09Z</time></trkpt><trkpt lat="43.8145898504176" lon="10.956359901191481"><ele>467.0</ele><time>2026-04-19T10:13:15Z</time></trkpt><trkpt lat="43.8145189157897" lon="10.956386916825908"><ele>466.99999999999994</ele><time>2026-04-19T10:13:19.999Z</time></trkpt><trkpt lat="43.81445666128458" lon="10.956415006768642"><ele>466.99999999999994</ele><time>2026-04-19T10:13:24.999Z</time></trkpt><trkpt lat="43.81439889099637" lon="10.9564971287886"><ele>467.0</ele><time>2026-04-19T10:13:29.999Z</time></trkpt><trkpt lat="43.81436912270789" lon="10.956584094118059"><ele>466.99999999999994</ele><time>2026-04-19T10:13:35.999Z</time></trkpt><trkpt lat="43.81434347301542" lon="10.956666338945379"><ele>466.99999999999994</ele><time>2026-04-19T10:13:40.999Z</time></trkpt><trkpt lat="43.81434195316512" lon="10.95676091038554"><ele>468.16666666666663</ele><time>2026-04-19T10:13:43.999Z</time></trkpt><trkpt lat="43.81430834676171" lon="10.956852205058174"><ele>469.3333333333333</ele><time>2026-04-19T10:13:47.999Z</time></trkpt><trkpt lat="43.81429054844462" lon="10.956957489353615"><ele>470.5</ele><time>2026-04-19T10:13:51.999Z</time></trkpt><trkpt lat="43.81425283258666" lon="10.957040856495485"><ele>471.66666666666663</ele><time>2026-04-19T10:13:55.999Z</time></trkpt><trkpt lat="43.81423477250362" lon="10.95713983867743"><ele>472.8333333333333</ele><time>2026-04-19T10:13:59.999Z</time></trkpt><trkpt lat="43.814212226674506" lon="10.957243817651435"><ele>474.0</ele><time>2026-04-19T10:14:03.999Z</time></trkpt><trkpt lat="43.81418546716093" lon="10.957347503609034"><ele>474.0</ele><time>2026-04-19T10:14:07.999Z</time></trkpt><trkpt lat="43.814185103759485" lon="10.95745852464818"><ele>474.0</ele><time>2026-04-19T10:14:11.999Z</time></trkpt><trkpt lat="43.814158226175564" lon="10.957564263644938"><ele>474.0</ele><time>2026-04-19T10:14:15.999Z</time></trkpt><trkpt lat="43.814171990422125" lon="10.957657565270795"><ele>474.0</ele><time>2026-04-19T10:14:18.999Z</time></trkpt><trkpt lat="43.81413667951859" lon="10.957734107347468"><ele>474.0</ele><time>2026-04-19T10:14:22.999Z</time></trkpt><trkpt lat="43.814063192964475" lon="10.957775065754943"><ele>474.0</ele><time>2026-04-19T10:14:25.999Z</time></trkpt><trkpt lat="43.8139965510842" lon="10.957727239142399"><ele>474.0</ele><time>2026-04-19T10:14:29.999Z</time></trkpt><trkpt lat="43.81392711242479" lon="10.957672945148978"><ele>474.0</ele><time>2026-04-19T10:14:33.999Z</time></trkpt><trkpt lat="43.81386931180535" lon="10.957621910598457"><ele>474.0</ele><time>2026-04-19T10:14:38Z</time></trkpt><trkpt lat="43.81380695093243" lon="10.957558915766487"><ele>474.0</ele><time>2026-04-19T10:14:42Z</time></trkpt><trkpt lat="43.81375664183603" lon="10.957478212213369"><ele>474.0</ele><time>2026-04-19T10:14:46Z</time></trkpt><trkpt lat="43.81368417441577" lon="10.957416491606267"><ele>474.0</ele><time>2026-04-19T10:14:50Z</time></trkpt><trkpt lat="43.813611829614366" lon="10.95737548412775"><ele>474.0</ele><time>2026-04-19T10:14:54Z</time></trkpt><trkpt lat="43.81354882752373" lon="10.957305480302653"><ele>474.0</ele><time>2026-04-19T10:14:58Z</time></trkpt><trkpt lat="43.813488595555725" lon="10.957247703870157"><ele>474.0</ele><time>2026-04-19T10:15:02Z</time></trkpt><trkpt lat="43.813425960388834" lon="10.957201411162236"><ele>474.0</ele><time>2026-04-19T10:15:06Z</time></trkpt><trkpt lat="43.81335660798155" lon="10.957167828757772"><ele>474.0</ele><time>2026-04-19T10:15:10Z</time></trkpt><trkpt lat="43.81329439237415" lon="10.957119930232993"><ele>474.0</ele><time>2026-04-19T10:15:13Z</time></trkpt><trkpt lat="43.81322264023346" lon="10.95704795445077"><ele>474.1428571428571</ele><time>2026-04-19T10:15:17Z</time></trkpt><trkpt lat="43.813178158351825" lon="10.956980571990206"><ele>474.2857142857143</ele><time>2026-04-19T10:15:20Z</time></trkpt><trkpt lat="43.81315730059442" lon="10.956887810141987"><ele>474.42857142857144</ele><time>2026-04-19T10:15:23Z</time></trkpt><trkpt lat="43.813120257474" lon="10.956808616255216"><ele>474.57142857142856</ele><time>2026-04-19T10:15:27Z</time></trkpt><trkpt lat="43.813153036712855" lon="10.956717171179392"><ele>474.7142857142858</ele><time>2026-04-19T10:15:30.999Z</time></trkpt><trkpt lat="43.81313206248522" lon="10.956630836631218"><ele>474.8571428571429</ele><time>2026-04-19T10:15:34.999Z</time></trkpt><trkpt lat="43.813121005495" lon="10.956516145971282"><ele>475.0</ele><time>2026-04-19T10:15:38.999Z</time></trkpt><trkpt lat="43.813092650330944" lon="10.956400508718383"><ele>472.42857142857144</ele><time>2026-04-19T10:15:42.999Z</time></trkpt><trkpt lat="43.81308844801007" lon="10.956305327048378"><ele>469.8571428571429</ele><time>2026-04-19T10:15:45.999Z</time></trkpt><trkpt lat="43.81306764571567" lon="10.956222870201008"><ele>467.28571428571433</ele><time>2026-04-19T10:15:48.999Z</time></trkpt><trkpt lat="43.813045900140715" lon="10.956120011289528"><ele>464.7142857142858</ele><time>2026-04-19T10:15:51.999Z</time></trkpt><trkpt lat="43.81301687957121" lon="10.956019497588319"><ele>462.14285714285717</ele><time>2026-04-19T10:15:54.999Z</time></trkpt><trkpt lat="43.81297959256036" lon="10.955943536412494"><ele>459.57142857142867</ele><time>2026-04-19T10:15:57.999Z</time></trkpt><trkpt lat="43.81295949839468" lon="10.95584313319807"><ele>457.00000000000006</ele><time>2026-04-19T10:16:00.999Z</time></trkpt><trkpt lat="43.81293164726742" lon="10.955739851186145"><ele>454.85714285714295</ele><time>2026-04-19T10:16:03.999Z</time></trkpt><trkpt lat="43.81292157261918" lon="10.955645961248058"><ele>452.7142857142857</ele><time>2026-04-19T10:16:07.999Z</time></trkpt><trkpt lat="43.81290907984174" lon="10.955539798738368"><ele>450.5714285714286</ele><time>2026-04-19T10:16:10.999Z</time></trkpt><trkpt lat="43.812876437453646" lon="10.955439138213931"><ele>448.42857142857144</ele><time>2026-04-19T10:16:14.999Z</time></trkpt><trkpt lat="43.812854109729216" lon="10.955348169474558"><ele>446.28571428571433</ele><time>2026-04-19T10:16:18.999Z</time></trkpt><trkpt lat="43.812819996895634" lon="10.955252176976954"><ele>444.14285714285717</ele><time>2026-04-19T10:16:22.999Z</time></trkpt><trkpt lat="43.81278033235818" lon="10.955175721916486"><ele>442.0</ele><time>2026-04-19T10:16:25.999Z</time></trkpt><trkpt lat="43.81275379696761" lon="10.955085755851536"><ele>440.8571428571429</ele><time>2026-04-19T10:16:29.999Z</time></trkpt><trkpt lat="43.81276695093718" lon="10.954986265355119"><ele>439.7142857142857</ele><time>2026-04-19T10:16:33.999Z</time></trkpt><trkpt lat="43.81275812846478" lon="10.95489418128928"><ele>438.57142857142856</ele><time>2026-04-19T10:16:37.999Z</time></trkpt><trkpt lat="43.81272878008831" lon="10.954799955219801"><ele>437.42857142857144</ele><time>2026-04-19T10:16:42.999Z</time></trkpt><trkpt lat="43.81267326575944" lon="10.954735708391313"><ele>436.2857142857143</ele><time>2026-04-19T10:16:46Z</time></trkpt><trkpt lat="43.81261950181091" lon="10.954680602269567"><ele>435.14285714285717</ele><time>2026-04-19T10:16:49Z</time></trkpt><trkpt lat="43.81257199376635" lon="10.954610712087549"><ele>434.0</ele><time>2026-04-19T10:16:52Z</time></trkpt><trkpt lat="43.81251533745627" lon="10.954546306530299"><ele>434.0</ele><time>2026-04-19T10:16:55Z</time></trkpt><trkpt lat="43.81246354792937" lon="10.954476619124272"><ele>434.0</ele><time>2026-04-19T10:16:58Z</time></trkpt><trkpt lat="43.81242381483996" lon="10.954384233330854"><ele>434.0</ele><time>2026-04-19T10:17:02Z</time></trkpt><trkpt lat="43.8123913406041" lon="10.954301951386926"><ele>434.0</ele><time>2026-04-19T10:17:06Z</time></trkpt><trkpt lat="43.8123414536313" lon="10.954247048516159"><ele>434.0</ele><time>2026-04-19T10:17:11Z</time></trkpt><trkpt lat="43.81225754714934" lon="10.95426933245749"><ele>434.0</ele><time>2026-04-19T10:17:13Z</time></trkpt><trkpt lat="43.812224138590956" lon="10.954348192738019"><ele>434.0</ele><time>2026-04-19T10:17:15Z</time></trkpt><trkpt lat="43.81219676264637" lon="10.954448140345393"><ele>433.99999999999994</ele><time>2026-04-19T10:17:18Z</time></trkpt><trkpt lat="43.812127880334636" lon="10.954517269703045"><ele>434.0</ele><time>2026-04-19T10:17:22Z</time></trkpt><trkpt lat="43.81208923460229" lon="10.954588248375009"><ele>434.0</ele><time>2026-04-19T10:17:25Z</time></trkpt><trkpt lat="43.81205615390186" lon="10.954679927053318"><ele>434.0</ele><time>2026-04-19T10:17:29Z</time></trkpt><trkpt lat="43.81203748065902" lon="10.954782720591986"><ele>433.99999999999994</ele><time>2026-04-19T10:17:33Z</time></trkpt><trkpt lat="43.81202594968173" lon="10.954872318653797"><ele>434.0</ele><time>2026-04-19T10:17:35.999Z</time></trkpt><trkpt lat="43.812062254970755" lon="10.955003432911797"><ele>434.0</ele><time>2026-04-19T10:17:38.999Z</time></trkpt><trkpt lat="43.81212132672026" lon="10.955035336846429"><ele>434.0</ele><time>2026-04-19T10:17:41.999Z</time></trkpt><trkpt lat="43.81218223604876" lon="10.955072394594822"><ele>434.0</ele><time>2026-04-19T10:17:45.999Z</time></trkpt><trkpt lat="43.81223478588336" lon="10.955125413618367"><ele>434.0</ele><time>2026-04-19T10:17:49.999Z</time></trkpt><trkpt lat="43.812261239170624" lon="10.955225487439836"><ele>434.0</ele><time>2026-04-19T10:17:53.999Z</time></trkpt><trkpt lat="43.812276182535754" lon="10.955337328094423"><ele>434.0</ele><time>2026-04-19T10:17:56.999Z</time></trkpt><trkpt lat="43.81224595678553" lon="10.955437679440099"><ele>434.0</ele><time>2026-04-19T10:18:00.999Z</time></trkpt><trkpt lat="43.81221842522603" lon="10.95555093185035"><ele>434.16666666666663</ele><time>2026-04-19T10:18:03.999Z</time></trkpt><trkpt lat="43.812217151325214" lon="10.955640307814416"><ele>434.3333333333333</ele><time>2026-04-19T10:18:06.999Z</time></trkpt><trkpt lat="43.81219225327011" lon="10.955728628680596"><ele>434.5</ele><time>2026-04-19T10:18:09.999Z</time></trkpt><trkpt lat="43.81218118235015" lon="10.955828135294263"><ele>434.66666666666663</ele><time>2026-04-19T10:18:12.999Z</time></trkpt><trkpt lat="43.81217692211232" lon="10.955928777360112"><ele>434.8333333333333</ele><time>2026-04-19T10:18:15.999Z</time></trkpt><trkpt lat="43.81217406029094" lon="10.956055773226995"><ele>435.0</ele><time>2026-04-19T10:18:18.999Z</time></trkpt><trkpt lat="43.81218921125237" lon="10.956166727537797"><ele>436.1666666666667</ele><time>2026-04-19T10:18:21.999Z</time></trkpt><trkpt lat="43.812217411645385" lon="10.956260068143788"><ele>437.33333333333337</ele><time>2026-04-19T10:18:24.999Z</time></trkpt><trkpt lat="43.81225041919231" lon="10.956369319833607"><ele>438.5</ele><time>2026-04-19T10:18:27.999Z</time></trkpt><trkpt lat="43.81227659756234" lon="10.956466314060245"><ele>439.6666666666667</ele><time>2026-04-19T10:18:30.999Z</time></trkpt><trkpt lat="43.81223904482719" lon="10.956543444014983"><ele>440.83333333333337</ele><time>2026-04-19T10:18:33.999Z</time></trkpt><trkpt lat="43.81217839220835" lon="10.956624881217438"><ele>442.0</ele><time>2026-04-19T10:18:37.999Z</time></trkpt><trkpt lat="43.812105695851955" lon="10.956656401120217"><ele>442.00000000000006</ele><time>2026-04-19T10:18:41.999Z</time></trkpt><trkpt lat="43.81204241542644" lon="10.956669483965962"><ele>442.0</ele><time>2026-04-19T10:18:44.999Z</time></trkpt><trkpt lat="43.811973796066596" lon="10.956677553814691"><ele>442.0</ele><time>2026-04-19T10:18:48.999Z</time></trkpt><trkpt lat="43.81190211760835" lon="10.956679970332031"><ele>442.0</ele><time>2026-04-19T10:18:53Z</time></trkpt><trkpt lat="43.81182253234795" lon="10.95668985246119"><ele>442.0</ele><time>2026-04-19T10:18:59Z</time></trkpt><trkpt lat="43.811749787556536" lon="10.956681880799053"><ele>442.00000000000006</ele><time>2026-04-19T10:19:03Z</time></trkpt><trkpt lat="43.81167045634399" lon="10.956692702552708"><ele>442.0</ele><time>2026-04-19T10:19:07Z</time></trkpt><trkpt lat="43.81160307291187" lon="10.95669484694331"><ele>442.00000000000006</ele><time>2026-04-19T10:19:10Z</time></trkpt><trkpt lat="43.81153056523721" lon="10.956694039917915"><ele>442.0</ele><time>2026-04-19T10:19:14Z</time></trkpt><trkpt lat="43.811458489974264" lon="10.956708845910125"><ele>442.0</ele><time>2026-04-19T10:19:18Z</time></trkpt><trkpt lat="43.81140268034274" lon="10.956762485847879"><ele>442.0</ele><time>2026-04-19T10:19:22Z</time></trkpt><trkpt lat="43.81140021423148" lon="10.956861154193124"><ele>442.0</ele><time>2026-04-19T10:19:26Z</time></trkpt><trkpt lat="43.81138935025062" lon="10.956949197964478"><ele>442.00000000000006</ele><time>2026-04-19T10:19:30Z</time></trkpt><trkpt lat="43.81138744839434" lon="10.957054187243065"><ele>442.0</ele><time>2026-04-19T10:19:34Z</time></trkpt><trkpt lat="43.81140901293607" lon="10.9571522921715"><ele>442.00000000000006</ele><time>2026-04-19T10:19:38Z</time></trkpt><trkpt lat="43.811426293647344" lon="10.957256900946577"><ele>442.0</ele><time>2026-04-19T10:19:42Z</time></trkpt><trkpt lat="43.811403581719496" lon="10.95734852268373"><ele>442.0</ele><time>2026-04-19T10:19:44.999Z</time></trkpt><trkpt lat="43.81139983919135" lon="10.95744257483317"><ele>442.0</ele><time>2026-04-19T10:19:47.999Z</time></trkpt><trkpt lat="43.81135101561865" lon="10.95751337026103"><ele>442.0</ele><time>2026-04-19T10:19:50.999Z</time></trkpt><trkpt lat="43.81129243070477" lon="10.957579154330977"><ele>442.00000000000006</ele><time>2026-04-19T10:19:53.999Z</time></trkpt><trkpt lat="43.811218477072316" lon="10.957605154418884"><ele>442.0</ele><time>2026-04-19T10:19:56.999Z</time></trkpt><trkpt lat="43.81114232999377" lon="10.95762489017816"><ele>444.33333333333337</ele><time>2026-04-19T10:19:59.999Z</time></trkpt><trkpt lat="43.811070946829346" lon="10.957639549235324"><ele>446.6666666666667</ele><time>2026-04-19T10:20:02.999Z</time></trkpt><trkpt lat="43.810983920439284" lon="10.957661325010243"><ele>449.0</ele><time>2026-04-19T10:20:06.999Z</time></trkpt><trkpt lat="43.81090772067955" lon="10.957697100255727"><ele>451.33333333333337</ele><time>2026-04-19T10:20:09.999Z</time></trkpt><trkpt lat="43.81084330230645" lon="10.95777992702456"><ele>453.6666666666667</ele><time>2026-04-19T10:20:13.999Z</time></trkpt><trkpt lat="43.81081786261248" lon="10.957885443416433"><ele>456.0</ele><time>2026-04-19T10:20:17.999Z</time></trkpt><trkpt lat="43.81079476375134" lon="10.957971210979903"><ele>452.0</ele><time>2026-04-19T10:20:20.999Z</time></trkpt><trkpt lat="43.810780182521235" lon="10.958057193319663"><ele>448.0</ele><time>2026-04-19T10:20:23.999Z</time></trkpt><trkpt lat="43.810765823592284" lon="10.95816009913175"><ele>444.0</ele><time>2026-04-19T10:20:26.999Z</time></trkpt><trkpt lat="43.81075241120326" lon="10.958262293374395"><ele>440.0</ele><time>2026-04-19T10:20:29.999Z</time></trkpt><trkpt lat="43.81074290776202" lon="10.958350961601079"><ele>436.0</ele><time>2026-04-19T10:20:32.999Z</time></trkpt><trkpt lat="43.81073016333775" lon="10.958475966429766"><ele>432.0</ele><time>2026-04-19T10:20:35.999Z</time></trkpt><trkpt lat="43.81074102454531" lon="10.95858604521106"><ele>432.0</ele><time>2026-04-19T10:20:38.999Z</time></trkpt><trkpt lat="43.8107620661933" lon="10.958673384845728"><ele>432.0</ele><time>2026-04-19T10:20:41.999Z</time></trkpt><trkpt lat="43.81078483138552" lon="10.958762922194348"><ele>432.0</ele><time>2026-04-19T10:20:44.999Z</time></trkpt><trkpt lat="43.810773762584056" lon="10.958860265265459"><ele>432.0</ele><time>2026-04-19T10:20:47.999Z</time></trkpt><trkpt lat="43.81076512504119" lon="10.958966794898943"><ele>432.0</ele><time>2026-04-19T10:20:50.999Z</time></trkpt><trkpt lat="43.81076870981798" lon="10.959063527649642"><ele>432.0</ele><time>2026-04-19T10:20:53.999Z</time></trkpt><trkpt lat="43.81078993549917" lon="10.959160567324364"><ele>432.0</ele><time>2026-04-19T10:20:57Z</time></trkpt><trkpt lat="43.81080259686242" lon="10.959253665534211"><ele>433.3333333333333</ele><time>2026-04-19T10:21:00Z</time></trkpt><trkpt lat="43.810792876215444" lon="10.959360484503767"><ele>434.66666666666663</ele><time>2026-04-19T10:21:03Z</time></trkpt><trkpt lat="43.81078210129831" lon="10.959449047009972"><ele>436.0</ele><time>2026-04-19T10:21:06Z</time></trkpt><trkpt lat="43.81078227387918" lon="10.95954982878828"><ele>437.3333333333333</ele><time>2026-04-19T10:21:09Z</time></trkpt><trkpt lat="43.81075927240466" lon="10.959714154192435"><ele>438.66666666666663</ele><time>2026-04-19T10:21:33Z</time></trkpt><trkpt lat="43.81068388842826" lon="10.959746320589597"><ele>440.0</ele><time>2026-04-19T10:21:53Z</time></trkpt><trkpt lat="43.81062042104698" lon="10.959733114935572"><ele>439.99999999999994</ele><time>2026-04-19T10:22:53.999Z</time></trkpt><trkpt lat="43.8106225163553" lon="10.959644006128604"><ele>440.0</ele><time>2026-04-19T10:23:12.999Z</time></trkpt><trkpt lat="43.81065358975632" lon="10.959528043366156"><ele>440.0</ele><time>2026-04-19T10:23:21.998Z</time></trkpt><trkpt lat="43.81069999282036" lon="10.95945983419268"><ele>440.0</ele><time>2026-04-19T10:23:37.998Z</time></trkpt><trkpt lat="43.81072709852712" lon="10.959376169173849"><ele>440.0</ele><time>2026-04-19T10:23:46.998Z</time></trkpt><trkpt lat="43.81068297464632" lon="10.959289683607562"><ele>439.99999999999994</ele><time>2026-04-19T10:23:53.998Z</time></trkpt><trkpt lat="43.810628300966854" lon="10.959220009923957"><ele>440.0</ele><time>2026-04-19T10:23:59.998Z</time></trkpt><trkpt lat="43.81057138845045" lon="10.959142941739396"><ele>438.85714285714283</ele><time>2026-04-19T10:24:04.998Z</time></trkpt><trkpt lat="43.8105363498845" lon="10.959067610883006"><ele>437.7142857142857</ele><time>2026-04-19T10:24:08.998Z</time></trkpt><trkpt lat="43.81050337497458" lon="10.95898578435626"><ele>436.57142857142856</ele><time>2026-04-19T10:24:12.998Z</time></trkpt><trkpt lat="43.810464861483986" lon="10.958914735508664"><ele>435.42857142857144</ele><time>2026-04-19T10:24:16.998Z</time></trkpt><trkpt lat="43.81042290807372" lon="10.958846030954792"><ele>434.2857142857143</ele><time>2026-04-19T10:24:21.998Z</time></trkpt><trkpt lat="43.810399897619" lon="10.958751989284528"><ele>433.1428571428571</ele><time>2026-04-19T10:24:25.998Z</time></trkpt><trkpt lat="43.810379457815415" lon="10.958657905012332"><ele>432.0</ele><time>2026-04-19T10:24:29.998Z</time></trkpt><trkpt lat="43.810346801665844" lon="10.958577901347345"><ele>432.0</ele><time>2026-04-19T10:24:33.998Z</time></trkpt><trkpt lat="43.81031444448445" lon="10.958492375999873"><ele>432.0</ele><time>2026-04-19T10:24:37.997Z</time></trkpt><trkpt lat="43.810272078919" lon="10.95841793666659"><ele>432.0</ele><time>2026-04-19T10:24:41.997Z</time></trkpt><trkpt lat="43.81026895063942" lon="10.958313596327775"><ele>432.0</ele><time>2026-04-19T10:24:45.997Z</time></trkpt><trkpt lat="43.81023877458391" lon="10.958227646280168"><ele>432.0</ele><time>2026-04-19T10:24:49.997Z</time></trkpt><trkpt lat="43.810205649631364" lon="10.958139655950493"><ele>432.0</ele><time>2026-04-19T10:24:53.997Z</time></trkpt><trkpt lat="43.8101609689778" lon="10.958060345976213"><ele>432.0</ele><time>2026-04-19T10:24:58.997Z</time></trkpt><trkpt lat="43.8101168960614" lon="10.957986934112212"><ele>429.0</ele><time>2026-04-19T10:25:02.997Z</time></trkpt><trkpt lat="43.81010263710829" lon="10.957892158465935"><ele>426.0</ele><time>2026-04-19T10:25:07.997Z</time></trkpt><trkpt lat="43.810051771240474" lon="10.957827071073996"><ele>423.0</ele><time>2026-04-19T10:25:11.997Z</time></trkpt><trkpt lat="43.81002587105977" lon="10.957735909964091"><ele>420.0</ele><time>2026-04-19T10:25:15.997Z</time></trkpt><trkpt lat="43.81000827697952" lon="10.957646748761245"><ele>417.0</ele><time>2026-04-19T10:25:19.997Z</time></trkpt><trkpt lat="43.80998923929446" lon="10.957552216989678"><ele>414.0</ele><time>2026-04-19T10:25:23.997Z</time></trkpt><trkpt lat="43.80997408166958" lon="10.957434803215213"><ele>411.0</ele><time>2026-04-19T10:25:27.997Z</time></trkpt><trkpt lat="43.8099770278668" lon="10.95732353237909"><ele>408.85714285714283</ele><time>2026-04-19T10:25:31.997Z</time></trkpt><trkpt lat="43.81002127226827" lon="10.957237129064334"><ele>406.71428571428567</ele><time>2026-04-19T10:25:35.997Z</time></trkpt><trkpt lat="43.8100478646427" lon="10.95715012228247"><ele>404.57142857142856</ele><time>2026-04-19T10:25:38.997Z</time></trkpt><trkpt lat="43.81007736875126" lon="10.957064444904328"><ele>402.42857142857144</ele><time>2026-04-19T10:25:41.997Z</time></trkpt><trkpt lat="43.81010763143711" lon="10.956978043223348"><ele>400.2857142857143</ele><time>2026-04-19T10:25:44.997Z</time></trkpt><trkpt lat="43.81010496159618" lon="10.956877434983431"><ele>398.14285714285717</ele><time>2026-04-19T10:25:48.997Z</time></trkpt><trkpt lat="43.81010535964876" lon="10.956767679763695"><ele>396.0</ele><time>2026-04-19T10:25:52.997Z</time></trkpt><trkpt lat="43.81009848615524" lon="10.956680187724384"><ele>394.7142857142857</ele><time>2026-04-19T10:25:55.997Z</time></trkpt><trkpt lat="43.81010637350966" lon="10.956575865229244"><ele>393.4285714285714</ele><time>2026-04-19T10:25:59.996Z</time></trkpt><trkpt lat="43.81008443791463" lon="10.95647183163804"><ele>392.1428571428571</ele><time>2026-04-19T10:26:03.996Z</time></trkpt><trkpt lat="43.81009128630699" lon="10.956370399997986"><ele>390.8571428571429</ele><time>2026-04-19T10:26:08.996Z</time></trkpt><trkpt lat="43.81006705331808" lon="10.956288288575475"><ele>389.57142857142856</ele><time>2026-04-19T10:26:12.996Z</time></trkpt><trkpt lat="43.8100525358972" lon="10.956198344521411"><ele>388.2857142857143</ele><time>2026-04-19T10:26:16.996Z</time></trkpt><trkpt lat="43.81005306548938" lon="10.956082456407445"><ele>387.0</ele><time>2026-04-19T10:26:20.996Z</time></trkpt><trkpt lat="43.81001305481754" lon="10.955999814787782"><ele>387.0</ele><time>2026-04-19T10:26:24.996Z</time></trkpt><trkpt lat="43.80999976049593" lon="10.9559010791618"><ele>387.0</ele><time>2026-04-19T10:26:28.996Z</time></trkpt><trkpt lat="43.81001258740343" lon="10.955797852128244"><ele>387.0</ele><time>2026-04-19T10:26:32.996Z</time></trkpt><trkpt lat="43.81003106546327" lon="10.955712195943056"><ele>387.0</ele><time>2026-04-19T10:26:36.996Z</time></trkpt><trkpt lat="43.810017821380484" lon="10.955610861487026"><ele>387.0</ele><time>2026-04-19T10:26:40.996Z</time></trkpt><trkpt lat="43.81001799679527" lon="10.955511489530533"><ele>387.0</ele><time>2026-04-19T10:26:44.996Z</time></trkpt><trkpt lat="43.81001420314677" lon="10.955403913162916"><ele>387.0</ele><time>2026-04-19T10:26:48.996Z</time></trkpt><trkpt lat="43.80998511561529" lon="10.955311182259281"><ele>385.14285714285717</ele><time>2026-04-19T10:26:53.996Z</time></trkpt><trkpt lat="43.80991760310545" lon="10.95527193550978"><ele>383.28571428571433</ele><time>2026-04-19T10:26:56.996Z</time></trkpt><trkpt lat="43.80989838816247" lon="10.955166887800278"><ele>381.42857142857144</ele><time>2026-04-19T10:27:00.996Z</time></trkpt><trkpt lat="43.80989136703337" lon="10.955074635952034"><ele>379.57142857142856</ele><time>2026-04-19T10:27:03.996Z</time></trkpt><trkpt lat="43.8098835076556" lon="10.95497372126957"><ele>377.7142857142857</ele><time>2026-04-19T10:27:06.996Z</time></trkpt><trkpt lat="43.809866718553494" lon="10.95487267369019"><ele>375.85714285714283</ele><time>2026-04-19T10:27:09.996Z</time></trkpt><trkpt lat="43.80988292342521" lon="10.954786987827514"><ele>374.0</ele><time>2026-04-19T10:27:12.996Z</time></trkpt><trkpt lat="43.80986861671888" lon="10.95468947230425"><ele>371.85714285714283</ele><time>2026-04-19T10:27:15.996Z</time></trkpt><trkpt lat="43.80984214075761" lon="10.954600557172274"><ele>369.7142857142857</ele><time>2026-04-19T10:27:18.996Z</time></trkpt><trkpt lat="43.809826593379704" lon="10.954502210707167"><ele>367.57142857142856</ele><time>2026-04-19T10:27:21.995Z</time></trkpt><trkpt lat="43.80979352476344" lon="10.954406616942766"><ele>365.42857142857144</ele><time>2026-04-19T10:27:25.995Z</time></trkpt><trkpt lat="43.809754362666084" lon="10.954315778429468"><ele>363.28571428571433</ele><time>2026-04-19T10:27:28.995Z</time></trkpt><trkpt lat="43.80969616968195" lon="10.954237049550045"><ele>361.14285714285717</ele><time>2026-04-19T10:27:31.995Z</time></trkpt><trkpt lat="43.80964413393882" lon="10.954180511869017"><ele>359.0</ele><time>2026-04-19T10:27:34.995Z</time></trkpt><trkpt lat="43.80958720473124" lon="10.954083988318834"><ele>356.83333333333337</ele><time>2026-04-19T10:27:37.995Z</time></trkpt><trkpt lat="43.80953558752154" lon="10.954004277648888"><ele>354.6666666666667</ele><time>2026-04-19T10:27:40.995Z</time></trkpt><trkpt lat="43.80949903685575" lon="10.953910613596717"><ele>352.5</ele><time>2026-04-19T10:27:43.995Z</time></trkpt><trkpt lat="43.809500951751275" lon="10.953786796387252"><ele>350.3333333333333</ele><time>2026-04-19T10:27:46.995Z</time></trkpt><trkpt lat="43.80949297304931" lon="10.953682084027134"><ele>348.16666666666663</ele><time>2026-04-19T10:27:49.995Z</time></trkpt><trkpt lat="43.809450031894826" lon="10.953581945642188"><ele>346.0</ele><time>2026-04-19T10:27:52.995Z</time></trkpt><trkpt lat="43.80941550753417" lon="10.953506636437952"><ele>346.0</ele><time>2026-04-19T10:27:54.995Z</time></trkpt><trkpt lat="43.80937925384875" lon="10.953409055782402"><ele>346.0</ele><time>2026-04-19T10:27:57.995Z</time></trkpt><trkpt lat="43.80932476735245" lon="10.953329568773041"><ele>346.0</ele><time>2026-04-19T10:28:00.995Z</time></trkpt><trkpt lat="43.80929041259304" lon="10.953244240240847"><ele>346.0</ele><time>2026-04-19T10:28:03.995Z</time></trkpt><trkpt lat="43.80925860885509" lon="10.953143950013233"><ele>346.0</ele><time>2026-04-19T10:28:06.995Z</time></trkpt><trkpt lat="43.80923307959735" lon="10.953059915306453"><ele>346.0</ele><time>2026-04-19T10:28:09.995Z</time></trkpt><trkpt lat="43.80920470212657" lon="10.952947576069633"><ele>346.7142857142857</ele><time>2026-04-19T10:28:12.995Z</time></trkpt><trkpt lat="43.809173296873844" lon="10.952858628145494"><ele>347.42857142857144</ele><time>2026-04-19T10:28:15.995Z</time></trkpt><trkpt lat="43.80915103384619" lon="10.952772215197609"><ele>348.14285714285717</ele><time>2026-04-19T10:28:18.995Z</time></trkpt><trkpt lat="43.80912685789941" lon="10.952691661201408"><ele>348.8571428571429</ele><time>2026-04-19T10:28:20.995Z</time></trkpt><trkpt lat="43.809088403321724" lon="10.952606746621376"><ele>349.57142857142856</ele><time>2026-04-19T10:28:23.995Z</time></trkpt><trkpt lat="43.809058682818325" lon="10.952510112477867"><ele>350.28571428571433</ele><time>2026-04-19T10:28:26.995Z</time></trkpt><trkpt lat="43.80902339693092" lon="10.952412886546592"><ele>351.0</ele><time>2026-04-19T10:28:29.995Z</time></trkpt><trkpt lat="43.80900071643447" lon="10.952322995001174"><ele>347.6666666666667</ele><time>2026-04-19T10:28:32.995Z</time></trkpt><trkpt lat="43.80895687196186" lon="10.952226151023984"><ele>344.3333333333333</ele><time>2026-04-19T10:28:35.995Z</time></trkpt><trkpt lat="43.80888327904559" lon="10.952156345019443"><ele>341.0</ele><time>2026-04-19T10:28:38.995Z</time></trkpt><trkpt lat="43.80879904684837" lon="10.95211764733738"><ele>337.66666666666663</ele><time>2026-04-19T10:28:42.994Z</time></trkpt><trkpt lat="43.80875521133535" lon="10.952054135458017"><ele>334.3333333333333</ele><time>2026-04-19T10:28:44.994Z</time></trkpt><trkpt lat="43.80870301836941" lon="10.951972255201909"><ele>331.0</ele><time>2026-04-19T10:28:47.994Z</time></trkpt><trkpt lat="43.80865814796977" lon="10.951893772962453"><ele>331.0</ele><time>2026-04-19T10:28:50.994Z</time></trkpt><trkpt lat="43.808638486146116" lon="10.951797618454886"><ele>331.0</ele><time>2026-04-19T10:28:53.994Z</time></trkpt><trkpt lat="43.80862651540537" lon="10.95169055688962"><ele>331.0</ele><time>2026-04-19T10:28:56.994Z</time></trkpt><trkpt lat="43.808573154576294" lon="10.951610564771796"><ele>331.0</ele><time>2026-04-19T10:28:59.994Z</time></trkpt><trkpt lat="43.808531181072" lon="10.951540085525052"><ele>331.0</ele><time>2026-04-19T10:29:01.994Z</time></trkpt><trkpt lat="43.8084881895922" lon="10.95144734656657"><ele>331.0</ele><time>2026-04-19T10:29:04.994Z</time></trkpt><trkpt lat="43.808432565484345" lon="10.951350484256743"><ele>329.5</ele><time>2026-04-19T10:29:07.994Z</time></trkpt><trkpt lat="43.80839588966075" lon="10.95126610784443"><ele>328.0</ele><time>2026-04-19T10:29:09.994Z</time></trkpt><trkpt lat="43.80835783869617" lon="10.951159248759845"><ele>326.5</ele><time>2026-04-19T10:29:12.994Z</time></trkpt><trkpt lat="43.8083061418408" lon="10.95107141579358"><ele>325.0</ele><time>2026-04-19T10:29:15.994Z</time></trkpt><trkpt lat="43.8082690645151" lon="10.950962054274243"><ele>323.5</ele><time>2026-04-19T10:29:18.994Z</time></trkpt><trkpt lat="43.80822051762112" lon="10.950872559910216"><ele>322.0</ele><time>2026-04-19T10:29:21.994Z</time></trkpt><trkpt lat="43.808173385740275" lon="10.950766692877332"><ele>322.0</ele><time>2026-04-19T10:29:24.994Z</time></trkpt><trkpt lat="43.808107339698864" lon="10.950691728933736"><ele>322.0</ele><time>2026-04-19T10:29:27.994Z</time></trkpt><trkpt lat="43.80804436500907" lon="10.950638642243126"><ele>322.0</ele><time>2026-04-19T10:29:30.994Z</time></trkpt><trkpt lat="43.80797786458761" lon="10.950584874484695"><ele>322.0</ele><time>2026-04-19T10:29:33.994Z</time></trkpt><trkpt lat="43.8078927776029" lon="10.950541979062873"><ele>322.0</ele><time>2026-04-19T10:29:36.994Z</time></trkpt><trkpt lat="43.80781130931917" lon="10.950520464005997"><ele>322.0</ele><time>2026-04-19T10:29:39.994Z</time></trkpt><trkpt lat="43.80774520472102" lon="10.950531634621484"><ele>322.0</ele><time>2026-04-19T10:29:42.994Z</time></trkpt><trkpt lat="43.80767261742522" lon="10.950551527086677"><ele>322.0</ele><time>2026-04-19T10:29:45.994Z</time></trkpt><trkpt lat="43.80760304467163" lon="10.950593957521049"><ele>322.0</ele><time>2026-04-19T10:29:48.994Z</time></trkpt><trkpt lat="43.807561575103044" lon="10.950665315459997"><ele>322.0</ele><time>2026-04-19T10:29:52.994Z</time></trkpt><trkpt lat="43.80749396199252" lon="10.950718070552623"><ele>322.0</ele><time>2026-04-19T10:29:56.994Z</time></trkpt><trkpt lat="43.80742072883615" lon="10.950728486597137"><ele>322.0</ele><time>2026-04-19T10:29:59.994Z</time></trkpt><trkpt lat="43.80737038739105" lon="10.95064680463218"><ele>322.0</ele><time>2026-04-19T10:30:02.993Z</time></trkpt><trkpt lat="43.807312855896605" lon="10.950556070030176"><ele>324.7142857142857</ele><time>2026-04-19T10:30:06.993Z</time></trkpt><trkpt lat="43.8072859492805" lon="10.95046444826105"><ele>327.42857142857144</ele><time>2026-04-19T10:30:10.993Z</time></trkpt><trkpt lat="43.80725841376962" lon="10.95036655732723"><ele>330.1428571428571</ele><time>2026-04-19T10:30:15.993Z</time></trkpt><trkpt lat="43.80722414035687" lon="10.950291853147567"><ele>332.8571428571429</ele><time>2026-04-19T10:30:19.993Z</time></trkpt><trkpt lat="43.807194750832224" lon="10.950196711202361"><ele>335.57142857142856</ele><time>2026-04-19T10:30:23.993Z</time></trkpt><trkpt lat="43.80713137874151" lon="10.950114558889544"><ele>338.2857142857143</ele><time>2026-04-19T10:30:27.993Z</time></trkpt><trkpt lat="43.80706279373431" lon="10.950099638263831"><ele>341.0</ele><time>2026-04-19T10:30:30.993Z</time></trkpt><trkpt lat="43.80699911322163" lon="10.950070825888236"><ele>337.85714285714283</ele><time>2026-04-19T10:30:33.993Z</time></trkpt><trkpt lat="43.80691617495401" lon="10.950037752717074"><ele>334.7142857142857</ele><time>2026-04-19T10:30:37.993Z</time></trkpt><trkpt lat="43.806907670648364" lon="10.949944994525874"><ele>331.57142857142856</ele><time>2026-04-19T10:30:40.993Z</time></trkpt><trkpt lat="43.80694203443335" lon="10.949853962060331"><ele>328.42857142857144</ele><time>2026-04-19T10:30:44.993Z</time></trkpt><trkpt lat="43.806943595782364" lon="10.949756146773334"><ele>325.2857142857143</ele><time>2026-04-19T10:30:47.993Z</time></trkpt><trkpt lat="43.80692073707937" lon="10.949660924044716"><ele>322.14285714285717</ele><time>2026-04-19T10:30:51.993Z</time></trkpt><trkpt lat="43.806896595453416" lon="10.94957772029388"><ele>319.0</ele><time>2026-04-19T10:30:54.993Z</time></trkpt><trkpt lat="43.80684581486808" lon="10.949514805192521"><ele>320.0</ele><time>2026-04-19T10:30:57.993Z</time></trkpt><trkpt lat="43.806782693757974" lon="10.949456273804515"><ele>321.0</ele><time>2026-04-19T10:31:01.993Z</time></trkpt><trkpt lat="43.80672233226973" lon="10.949389536639657"><ele>322.0</ele><time>2026-04-19T10:31:05.993Z</time></trkpt><trkpt lat="43.806665424798474" lon="10.94931908725277"><ele>323.0</ele><time>2026-04-19T10:31:08.993Z</time></trkpt><trkpt lat="43.806595623532495" lon="10.949253376548436"><ele>324.0</ele><time>2026-04-19T10:31:12.993Z</time></trkpt><trkpt lat="43.80653185851143" lon="10.949213492191618"><ele>325.0</ele><time>2026-04-19T10:31:15.993Z</time></trkpt><trkpt lat="43.806463313872484" lon="10.949179748040827"><ele>325.0</ele><time>2026-04-19T10:31:18.993Z</time></trkpt><trkpt lat="43.80639433798131" lon="10.949147710221274"><ele>325.0</ele><time>2026-04-19T10:31:21.993Z</time></trkpt><trkpt lat="43.80631590685529" lon="10.94912031200779"><ele>325.0</ele><time>2026-04-19T10:31:24.993Z</time></trkpt><trkpt lat="43.806249845498705" lon="10.94909166145396"><ele>325.0</ele><time>2026-04-19T10:31:27.992Z</time></trkpt><trkpt lat="43.80617995718261" lon="10.949047983758215"><ele>325.0</ele><time>2026-04-19T10:31:30.992Z</time></trkpt><trkpt lat="43.80610336877058" lon="10.949023917714232"><ele>325.0</ele><time>2026-04-19T10:31:33.992Z</time></trkpt><trkpt lat="43.80602731896004" lon="10.949014794642768"><ele>327.4285714285714</ele><time>2026-04-19T10:31:36.992Z</time></trkpt><trkpt lat="43.80595534972645" lon="10.949021993072764"><ele>329.8571428571429</ele><time>2026-04-19T10:31:39.992Z</time></trkpt><trkpt lat="43.8058815890762" lon="10.94898927975951"><ele>332.2857142857143</ele><time>2026-04-19T10:31:42.992Z</time></trkpt><trkpt lat="43.80580730406814" lon="10.948953960082559"><ele>334.71428571428567</ele><time>2026-04-19T10:31:46.992Z</time></trkpt><trkpt lat="43.80574472308498" lon="10.948910771688245"><ele>337.1428571428571</ele><time>2026-04-19T10:31:49.992Z</time></trkpt><trkpt lat="43.80568451704563" lon="10.948846874123332"><ele>339.57142857142856</ele><time>2026-04-19T10:31:53.992Z</time></trkpt><trkpt lat="43.80561594974892" lon="10.94880676816889"><ele>342.0</ele><time>2026-04-19T10:31:57.992Z</time></trkpt><trkpt lat="43.805570569728445" lon="10.948738680747914"><ele>341.99999999999994</ele><time>2026-04-19T10:32:01.992Z</time></trkpt><trkpt lat="43.80553643868168" lon="10.948659043904168"><ele>342.0</ele><time>2026-04-19T10:32:06.992Z</time></trkpt><trkpt lat="43.80548132631653" lon="10.948600259400255"><ele>342.0</ele><time>2026-04-19T10:32:11.992Z</time></trkpt><trkpt lat="43.805434917528856" lon="10.948533149679873"><ele>342.0</ele><time>2026-04-19T10:32:16.992Z</time></trkpt><trkpt lat="43.805376132411794" lon="10.948476916531963"><ele>342.0</ele><time>2026-04-19T10:32:22.992Z</time></trkpt><trkpt lat="43.805321307871814" lon="10.948431941163506"><ele>341.99999999999994</ele><time>2026-04-19T10:32:27.992Z</time></trkpt><trkpt lat="43.80524909791907" lon="10.948375166895852"><ele>342.0</ele><time>2026-04-19T10:32:33.992Z</time></trkpt><trkpt lat="43.8052004438896" lon="10.948291262769724"><ele>342.2857142857143</ele><time>2026-04-19T10:32:37.992Z</time></trkpt><trkpt lat="43.80514158726115" lon="10.948249949841914"><ele>342.57142857142856</ele><time>2026-04-19T10:32:41.992Z</time></trkpt><trkpt lat="43.805076042907686" lon="10.948197466839943"><ele>342.8571428571429</ele><time>2026-04-19T10:32:45.992Z</time></trkpt><trkpt lat="43.80501223140778" lon="10.948144305317259"><ele>343.1428571428571</ele><time>2026-04-19T10:32:49.991Z</time></trkpt><trkpt lat="43.804938864422866" lon="10.948122037249595"><ele>343.42857142857144</ele><time>2026-04-19T10:32:54.991Z</time></trkpt><trkpt lat="43.804880145912044" lon="10.948084502411213"><ele>343.7142857142857</ele><time>2026-04-19T10:32:59.991Z</time></trkpt><trkpt lat="43.80481091989522" lon="10.948076055494242"><ele>344.0</ele><time>2026-04-19T10:33:04.991Z</time></trkpt><trkpt lat="43.80473565842425" lon="10.948042236949563"><ele>344.00000000000006</ele><time>2026-04-19T10:33:09.991Z</time></trkpt><trkpt lat="43.80468777699938" lon="10.947982426120884"><ele>344.0</ele><time>2026-04-19T10:33:14.991Z</time></trkpt><trkpt lat="43.80462141710727" lon="10.947971845514898"><ele>344.0</ele><time>2026-04-19T10:33:18.991Z</time></trkpt><trkpt lat="43.80455637231518" lon="10.947981135495667"><ele>344.0</ele><time>2026-04-19T10:33:21.991Z</time></trkpt><trkpt lat="43.80449198578087" lon="10.947996910533417"><ele>344.0</ele><time>2026-04-19T10:33:25.991Z</time></trkpt><trkpt lat="43.804418849845796" lon="10.948016450434942"><ele>344.00000000000006</ele><time>2026-04-19T10:33:29.991Z</time></trkpt><trkpt lat="43.80435583877824" lon="10.948013708421042"><ele>344.0</ele><time>2026-04-19T10:33:33.991Z</time></trkpt><trkpt lat="43.80428462040158" lon="10.948025565124784"><ele>346.28571428571433</ele><time>2026-04-19T10:33:38.991Z</time></trkpt><trkpt lat="43.80421405115336" lon="10.948020549037986"><ele>348.57142857142856</ele><time>2026-04-19T10:33:42.991Z</time></trkpt><trkpt lat="43.80414285688154" lon="10.947993789649871"><ele>350.8571428571429</ele><time>2026-04-19T10:33:46.991Z</time></trkpt><trkpt lat="43.80407899760764" lon="10.947971481010804"><ele>353.14285714285717</ele><time>2026-04-19T10:33:50.991Z</time></trkpt><trkpt lat="43.80400825848476" lon="10.947949391803197"><ele>355.42857142857144</ele><time>2026-04-19T10:33:54.991Z</time></trkpt><trkpt lat="43.803930288247834" lon="10.94790169442701"><ele>357.7142857142857</ele><time>2026-04-19T10:33:58.991Z</time></trkpt><trkpt lat="43.803872222273014" lon="10.947860959366713"><ele>360.0</ele><time>2026-04-19T10:34:01.991Z</time></trkpt><trkpt lat="43.80379921525057" lon="10.94780470839285"><ele>360.0</ele><time>2026-04-19T10:34:06.991Z</time></trkpt><trkpt lat="43.8037290036931" lon="10.947746223536997"><ele>360.0</ele><time>2026-04-19T10:34:10.99Z</time></trkpt><trkpt lat="43.80366792020444" lon="10.947695101755127"><ele>360.0</ele><time>2026-04-19T10:34:14.99Z</time></trkpt><trkpt lat="43.803604554014605" lon="10.947627538409526"><ele>360.0</ele><time>2026-04-19T10:34:18.99Z</time></trkpt><trkpt lat="43.803542736076416" lon="10.947577871782254"><ele>360.0</ele><time>2026-04-19T10:34:22.99Z</time></trkpt><trkpt lat="43.80348562806126" lon="10.947531860929429"><ele>360.0</ele><time>2026-04-19T10:34:26.99Z</time></trkpt><trkpt lat="43.803417889554" lon="10.947476183664842"><ele>357.1666666666667</ele><time>2026-04-19T10:34:30.99Z</time></trkpt><trkpt lat="43.80335518436095" lon="10.947423755570332"><ele>354.3333333333333</ele><time>2026-04-19T10:34:34.99Z</time></trkpt><trkpt lat="43.803289384192674" lon="10.947368871651898"><ele>351.5</ele><time>2026-04-19T10:34:37.99Z</time></trkpt><trkpt lat="43.80322280811203" lon="10.947310779410452"><ele>348.66666666666663</ele><time>2026-04-19T10:34:41.99Z</time></trkpt><trkpt lat="43.80315750876609" lon="10.947263542120098"><ele>345.8333333333333</ele><time>2026-04-19T10:34:44.99Z</time></trkpt><trkpt lat="43.803096959678136" lon="10.947211251315814"><ele>343.0</ele><time>2026-04-19T10:34:47.99Z</time></trkpt><trkpt lat="43.80302249967472" lon="10.947150696524616"><ele>343.0</ele><time>2026-04-19T10:34:51.99Z</time></trkpt><trkpt lat="43.80296116451162" lon="10.94709717724483"><ele>343.0</ele><time>2026-04-19T10:34:54.99Z</time></trkpt><trkpt lat="43.802898264014324" lon="10.947050628291143"><ele>343.0</ele><time>2026-04-19T10:34:57.99Z</time></trkpt><trkpt lat="43.802853943090334" lon="10.946982341169646"><ele>343.0</ele><time>2026-04-19T10:35:00.99Z</time></trkpt><trkpt lat="43.80279579612442" lon="10.946931682601273"><ele>343.0</ele><time>2026-04-19T10:35:03.99Z</time></trkpt><trkpt lat="43.80273577695946" lon="10.94690336893168"><ele>343.0</ele><time>2026-04-19T10:35:06.99Z</time></trkpt><trkpt lat="43.80267437030471" lon="10.946857471521774"><ele>343.0</ele><time>2026-04-19T10:35:09.99Z</time></trkpt><trkpt lat="43.802602967743375" lon="10.946813743198996"><ele>342.42857142857144</ele><time>2026-04-19T10:35:13.99Z</time></trkpt><trkpt lat="43.8025479523649" lon="10.946766671724358"><ele>341.8571428571429</ele><time>2026-04-19T10:35:16.99Z</time></trkpt><trkpt lat="43.80248372807129" lon="10.94673189042045"><ele>341.2857142857143</ele><time>2026-04-19T10:35:19.99Z</time></trkpt><trkpt lat="43.80242377544772" lon="10.946667951303283"><ele>340.7142857142857</ele><time>2026-04-19T10:35:23.99Z</time></trkpt><trkpt lat="43.802357455378775" lon="10.946629483700825"><ele>340.14285714285717</ele><time>2026-04-19T10:35:27.99Z</time></trkpt><trkpt lat="43.802291508336154" lon="10.946573074063913"><ele>339.57142857142856</ele><time>2026-04-19T10:35:30.989Z</time></trkpt><trkpt lat="43.802244939093654" lon="10.946502656167546"><ele>339.0</ele><time>2026-04-19T10:35:33.989Z</time></trkpt><trkpt lat="43.802194095922026" lon="10.94644975017244"><ele>336.85714285714283</ele><time>2026-04-19T10:35:36.989Z</time></trkpt><trkpt lat="43.802177437075315" lon="10.946345799518415"><ele>334.7142857142857</ele><time>2026-04-19T10:35:40.989Z</time></trkpt><trkpt lat="43.80215751178463" lon="10.946233145044753"><ele>332.57142857142856</ele><time>2026-04-19T10:35:44.989Z</time></trkpt><trkpt lat="43.80218160429892" lon="10.946141239546606"><ele>330.42857142857144</ele><time>2026-04-19T10:35:48.989Z</time></trkpt><trkpt lat="43.80222988312988" lon="10.94605557945328"><ele>328.2857142857143</ele><time>2026-04-19T10:35:53.989Z</time></trkpt><trkpt lat="43.80226871557356" lon="10.9459682726316"><ele>326.14285714285717</ele><time>2026-04-19T10:35:58.989Z</time></trkpt><trkpt lat="43.80229091569456" lon="10.94588304470485"><ele>324.0</ele><time>2026-04-19T10:36:02.989Z</time></trkpt><trkpt lat="43.80231022354253" lon="10.945789700404692"><ele>321.7142857142857</ele><time>2026-04-19T10:36:06.989Z</time></trkpt><trkpt lat="43.802319552148994" lon="10.945694911606937"><ele>319.42857142857144</ele><time>2026-04-19T10:36:10.989Z</time></trkpt><trkpt lat="43.80231120602794" lon="10.945599307935948"><ele>317.1428571428571</ele><time>2026-04-19T10:36:14.989Z</time></trkpt><trkpt lat="43.802296997581664" lon="10.945507282711286"><ele>314.8571428571429</ele><time>2026-04-19T10:36:18.989Z</time></trkpt><trkpt lat="43.80227845797513" lon="10.945417299692162"><ele>312.57142857142856</ele><time>2026-04-19T10:36:22.989Z</time></trkpt><trkpt lat="43.80225275396065" lon="10.945310209293089"><ele>310.2857142857143</ele><time>2026-04-19T10:36:27.989Z</time></trkpt><trkpt lat="43.802228046766096" lon="10.945209429480904"><ele>308.0</ele><time>2026-04-19T10:36:31.989Z</time></trkpt><trkpt lat="43.802224230432515" lon="10.945105730760877"><ele>306.2857142857143</ele><time>2026-04-19T10:36:34.989Z</time></trkpt><trkpt lat="43.80221179323321" lon="10.945010300476454"><ele>304.57142857142856</ele><time>2026-04-19T10:36:37.989Z</time></trkpt><trkpt lat="43.8022108734906" lon="10.94489626869649"><ele>302.8571428571429</ele><time>2026-04-19T10:36:41.989Z</time></trkpt><trkpt lat="43.80221255310441" lon="10.944808529730814"><ele>301.1428571428571</ele><time>2026-04-19T10:36:44.989Z</time></trkpt><trkpt lat="43.80220988689446" lon="10.944719015263045"><ele>299.42857142857144</ele><time>2026-04-19T10:36:47.989Z</time></trkpt><trkpt lat="43.80221346796225" lon="10.944625530808972"><ele>297.7142857142857</ele><time>2026-04-19T10:36:50.989Z</time></trkpt><trkpt lat="43.80222217492306" lon="10.944525048678262"><ele>296.0</ele><time>2026-04-19T10:36:53.988Z</time></trkpt><trkpt lat="43.80224088971564" lon="10.944408474876392"><ele>296.0</ele><time>2026-04-19T10:36:57.988Z</time></trkpt><trkpt lat="43.80225442872169" lon="10.944304499881431"><ele>296.0</ele><time>2026-04-19T10:37:01.988Z</time></trkpt><trkpt lat="43.80227307158125" lon="10.944199866815357"><ele>296.0</ele><time>2026-04-19T10:37:05.988Z</time></trkpt><trkpt lat="43.80226146707296" lon="10.944087302629104"><ele>296.0</ele><time>2026-04-19T10:37:08.988Z</time></trkpt><trkpt lat="43.8022514878787" lon="10.943979671883543"><ele>296.0</ele><time>2026-04-19T10:37:11.988Z</time></trkpt><trkpt lat="43.80223099192355" lon="10.943861843117595"><ele>296.0</ele><time>2026-04-19T10:37:14.988Z</time></trkpt><trkpt lat="43.80219297447297" lon="10.943756997465501"><ele>293.6666666666667</ele><time>2026-04-19T10:37:17.988Z</time></trkpt><trkpt lat="43.80215414726743" lon="10.943687342899883"><ele>291.33333333333337</ele><time>2026-04-19T10:37:19.988Z</time></trkpt><trkpt lat="43.802135806419614" lon="10.9435624653097"><ele>289.0</ele><time>2026-04-19T10:37:22.988Z</time></trkpt><trkpt lat="43.80211825684671" lon="10.943449603688965"><ele>286.6666666666667</ele><time>2026-04-19T10:37:25.988Z</time></trkpt><trkpt lat="43.80208689260052" lon="10.943334407121418"><ele>284.3333333333333</ele><time>2026-04-19T10:37:28.988Z</time></trkpt><trkpt lat="43.80205502232986" lon="10.943232268927526"><ele>282.0</ele><time>2026-04-19T10:37:31.988Z</time></trkpt><trkpt lat="43.80202982306218" lon="10.943130703412589"><ele>279.1666666666667</ele><time>2026-04-19T10:37:34.988Z</time></trkpt><trkpt lat="43.80200234447929" lon="10.943023038236355"><ele>276.3333333333333</ele><time>2026-04-19T10:37:37.988Z</time></trkpt><trkpt lat="43.80198154398741" lon="10.942920042843356"><ele>273.5</ele><time>2026-04-19T10:37:40.988Z</time></trkpt><trkpt lat="43.801939413396305" lon="10.942807825759731"><ele>270.66666666666663</ele><time>2026-04-19T10:37:43.988Z</time></trkpt><trkpt lat="43.80189464450333" lon="10.94271822027571"><ele>267.8333333333333</ele><time>2026-04-19T10:37:46.988Z</time></trkpt><trkpt lat="43.801872705840154" lon="10.942621003723293"><ele>265.0</ele><time>2026-04-19T10:37:49.988Z</time></trkpt><trkpt lat="43.80186131598466" lon="10.94252861727077"><ele>266.3333333333333</ele><time>2026-04-19T10:37:52.988Z</time></trkpt><trkpt lat="43.801830371842726" lon="10.942447897392494"><ele>267.66666666666663</ele><time>2026-04-19T10:37:54.988Z</time></trkpt><trkpt lat="43.80182470951936" lon="10.942335041267132"><ele>269.0</ele><time>2026-04-19T10:37:57.988Z</time></trkpt><trkpt lat="43.8018194710877" lon="10.942240148606627"><ele>270.3333333333333</ele><time>2026-04-19T10:38:00.988Z</time></trkpt><trkpt lat="43.80177286997816" lon="10.942140424252948"><ele>271.6666666666667</ele><time>2026-04-19T10:38:03.988Z</time></trkpt><trkpt lat="43.801720654088605" lon="10.942047740611795"><ele>273.0</ele><time>2026-04-19T10:38:06.988Z</time></trkpt><trkpt lat="43.801677023646285" lon="10.941963643618463"><ele>273.0</ele><time>2026-04-19T10:38:09.988Z</time></trkpt><trkpt lat="43.8016450607986" lon="10.94186020047832"><ele>273.0</ele><time>2026-04-19T10:38:12.988Z</time></trkpt><trkpt lat="43.801603721848146" lon="10.941767336326377"><ele>273.0</ele><time>2026-04-19T10:38:15.987Z</time></trkpt><trkpt lat="43.8015723461987" lon="10.941649879772166"><ele>273.0</ele><time>2026-04-19T10:38:18.987Z</time></trkpt><trkpt lat="43.80152835923463" lon="10.94154477095855"><ele>273.0</ele><time>2026-04-19T10:38:22.987Z</time></trkpt><trkpt lat="43.80149751580956" lon="10.941450367467594"><ele>273.0</ele><time>2026-04-19T10:38:25.987Z</time></trkpt><trkpt lat="43.80142993609015" lon="10.941369785517757"><ele>270.3333333333333</ele><time>2026-04-19T10:38:28.987Z</time></trkpt><trkpt lat="43.80138027671358" lon="10.941294448498567"><ele>267.6666666666667</ele><time>2026-04-19T10:38:31.987Z</time></trkpt><trkpt lat="43.80132068904739" lon="10.941223060415421"><ele>265.0</ele><time>2026-04-19T10:38:34.987Z</time></trkpt><trkpt lat="43.80127136396854" lon="10.94113852154952"><ele>262.33333333333337</ele><time>2026-04-19T10:38:37.987Z</time></trkpt><trkpt lat="43.801223265121095" lon="10.941041375409121"><ele>259.6666666666667</ele><time>2026-04-19T10:38:40.987Z</time></trkpt><trkpt lat="43.801188245869724" lon="10.940946193095323"><ele>257.0</ele><time>2026-04-19T10:38:43.987Z</time></trkpt><trkpt lat="43.80112028781033" lon="10.94088529766303"><ele>253.85714285714283</ele><time>2026-04-19T10:38:46.987Z</time></trkpt><trkpt lat="43.801056312000526" lon="10.940823520761459"><ele>250.71428571428572</ele><time>2026-04-19T10:38:49.987Z</time></trkpt><trkpt lat="43.80100697553033" lon="10.94073932096754"><ele>247.57142857142856</ele><time>2026-04-19T10:38:52.987Z</time></trkpt><trkpt lat="43.80104446777902" lon="10.940657553450194"><ele>244.42857142857142</ele><time>2026-04-19T10:38:55.987Z</time></trkpt><trkpt lat="43.801118042550506" lon="10.940648734044837"><ele>241.28571428571428</ele><time>2026-04-19T10:38:58.987Z</time></trkpt><trkpt lat="43.80119147557801" lon="10.940652843101216"><ele>238.14285714285714</ele><time>2026-04-19T10:39:01.987Z</time></trkpt><trkpt lat="43.801258983788564" lon="10.940626111115671"><ele>235.0</ele><time>2026-04-19T10:39:04.987Z</time></trkpt><trkpt lat="43.801263648492" lon="10.940521016002641"><ele>234.99999999999997</ele><time>2026-04-19T10:39:07.987Z</time></trkpt><trkpt lat="43.801247240936426" lon="10.940426452914382"><ele>235.0</ele><time>2026-04-19T10:39:10.987Z</time></trkpt><trkpt lat="43.801202797832616" lon="10.940348526316344"><ele>235.0</ele><time>2026-04-19T10:39:13.987Z</time></trkpt><trkpt lat="43.80115049076791" lon="10.94027354079484"><ele>235.0</ele><time>2026-04-19T10:39:16.987Z</time></trkpt><trkpt lat="43.80109836793707" lon="10.94018611487314"><ele>234.99999999999997</ele><time>2026-04-19T10:39:19.987Z</time></trkpt><trkpt lat="43.80102717495802" lon="10.940119007141965"><ele>235.0</ele><time>2026-04-19T10:39:22.987Z</time></trkpt><trkpt lat="43.80096967320693" lon="10.94004996018519"><ele>233.83333333333331</ele><time>2026-04-19T10:39:25.987Z</time></trkpt><trkpt lat="43.80090022139011" lon="10.939985121564726"><ele>232.66666666666666</ele><time>2026-04-19T10:39:28.987Z</time></trkpt><trkpt lat="43.80084463547187" lon="10.939936853131144"><ele>231.5</ele><time>2026-04-19T10:39:30.987Z</time></trkpt><trkpt lat="43.80077322769385" lon="10.939905697495565"><ele>230.33333333333331</ele><time>2026-04-19T10:39:33.987Z</time></trkpt><trkpt lat="43.80069640539266" lon="10.939847276934191"><ele>229.16666666666666</ele><time>2026-04-19T10:39:36.986Z</time></trkpt><trkpt lat="43.80062150088382" lon="10.939783888612048"><ele>228.0</ele><time>2026-04-19T10:39:39.986Z</time></trkpt><trkpt lat="43.80054882813395" lon="10.939735775417086"><ele>228.0</ele><time>2026-04-19T10:39:42.986Z</time></trkpt><trkpt lat="43.80048977601712" lon="10.939667118251277"><ele>228.0</ele><time>2026-04-19T10:39:45.986Z</time></trkpt><trkpt lat="43.80041616211518" lon="10.939597265191576"><ele>228.0</ele><time>2026-04-19T10:39:48.986Z</time></trkpt><trkpt lat="43.80034387443451" lon="10.939574868933462"><ele>228.0</ele><time>2026-04-19T10:39:51.986Z</time></trkpt><trkpt lat="43.800269603348" lon="10.939545409826863"><ele>228.0</ele><time>2026-04-19T10:39:54.986Z</time></trkpt><trkpt lat="43.80020047035245" lon="10.939511752783252"><ele>228.0</ele><time>2026-04-19T10:39:57.986Z</time></trkpt><trkpt lat="43.80011024854742" lon="10.939494064668214"><ele>226.66666666666666</ele><time>2026-04-19T10:40:00.986Z</time></trkpt><trkpt lat="43.800043422528226" lon="10.939462916258815"><ele>225.33333333333331</ele><time>2026-04-19T10:40:03.986Z</time></trkpt><trkpt lat="43.799983317444344" lon="10.939408788824522"><ele>224.0</ele><time>2026-04-19T10:40:06.986Z</time></trkpt><trkpt lat="43.799923675659464" lon="10.939352056685937"><ele>222.66666666666666</ele><time>2026-04-19T10:40:08.986Z</time></trkpt><trkpt lat="43.79985752442837" lon="10.939303183170352"><ele>221.33333333333331</ele><time>2026-04-19T10:40:11.986Z</time></trkpt><trkpt lat="43.79979412502646" lon="10.939238205676977"><ele>220.0</ele><time>2026-04-19T10:40:14.986Z</time></trkpt><trkpt lat="43.79974335204102" lon="10.939146902630092"><ele>218.7142857142857</ele><time>2026-04-19T10:40:17.986Z</time></trkpt><trkpt lat="43.79970940849557" lon="10.939058948320673"><ele>217.42857142857142</ele><time>2026-04-19T10:40:20.986Z</time></trkpt><trkpt lat="43.79966857206602" lon="10.938967258546128"><ele>216.14285714285714</ele><time>2026-04-19T10:40:23.986Z</time></trkpt><trkpt lat="43.79962804924474" lon="10.93887791445529"><ele>214.85714285714283</ele><time>2026-04-19T10:40:26.986Z</time></trkpt><trkpt lat="43.79957303091521" lon="10.938802208577746"><ele>213.57142857142858</ele><time>2026-04-19T10:40:29.986Z</time></trkpt><trkpt lat="43.7995445709903" lon="10.93872358290879"><ele>212.28571428571428</ele><time>2026-04-19T10:40:31.986Z</time></trkpt><trkpt lat="43.79950246232722" lon="10.938627632502175"><ele>211.0</ele><time>2026-04-19T10:40:34.986Z</time></trkpt><trkpt lat="43.799480798227364" lon="10.938513305416592"><ele>210.99999999999997</ele><time>2026-04-19T10:40:37.986Z</time></trkpt><trkpt lat="43.79944612805074" lon="10.93842835081584"><ele>211.0</ele><time>2026-04-19T10:40:40.986Z</time></trkpt><trkpt lat="43.79941241998474" lon="10.938334037710266"><ele>211.0</ele><time>2026-04-19T10:40:43.986Z</time></trkpt><trkpt lat="43.799399363523854" lon="10.938240095713327"><ele>211.0</ele><time>2026-04-19T10:40:46.986Z</time></trkpt><trkpt lat="43.799376336931815" lon="10.93813471436872"><ele>210.99999999999997</ele><time>2026-04-19T10:40:49.986Z</time></trkpt><trkpt lat="43.799361041174045" lon="10.938029150388006"><ele>211.0</ele><time>2026-04-19T10:40:52.986Z</time></trkpt><trkpt lat="43.79935208280464" lon="10.93791611353911"><ele>210.99999999999997</ele><time>2026-04-19T10:40:55.986Z</time></trkpt><trkpt lat="43.79933234637986" lon="10.937812863543833"><ele>211.0</ele><time>2026-04-19T10:40:58.985Z</time></trkpt><trkpt lat="43.79930640507295" lon="10.937715143016291"><ele>211.0</ele><time>2026-04-19T10:41:01.985Z</time></trkpt><trkpt lat="43.79928965536234" lon="10.937605102704005"><ele>211.0</ele><time>2026-04-19T10:41:04.985Z</time></trkpt><trkpt lat="43.79926156214232" lon="10.937503883146109"><ele>210.99999999999997</ele><time>2026-04-19T10:41:07.985Z</time></trkpt><trkpt lat="43.799231593698835" lon="10.937401302992962"><ele>211.0</ele><time>2026-04-19T10:41:10.998Z</time></trkpt><trkpt lat="43.79920761697215" lon="10.937294668421211"><ele>211.16666666666666</ele><time>2026-04-19T10:41:13.997Z</time></trkpt><trkpt lat="43.799177783334876" lon="10.93719719967734"><ele>211.33333333333331</ele><time>2026-04-19T10:41:16.997Z</time></trkpt><trkpt lat="43.79914159663755" lon="10.937104963125222"><ele>211.5</ele><time>2026-04-19T10:41:19.997Z</time></trkpt><trkpt lat="43.799108917827084" lon="10.936997830865922"><ele>211.66666666666669</ele><time>2026-04-19T10:41:22.997Z</time></trkpt><trkpt lat="43.79906243858716" lon="10.936913210541015"><ele>211.83333333333334</ele><time>2026-04-19T10:41:25.997Z</time></trkpt><trkpt lat="43.799013709399325" lon="10.93683388619173"><ele>212.0</ele><time>2026-04-19T10:41:28.997Z</time></trkpt><trkpt lat="43.798969216559875" lon="10.936739779555984"><ele>211.00000000000003</ele><time>2026-04-19T10:41:31.997Z</time></trkpt><trkpt lat="43.798911249607805" lon="10.93667182361173"><ele>210.0</ele><time>2026-04-19T10:41:34.997Z</time></trkpt><trkpt lat="43.798874270342296" lon="10.936569902366008"><ele>209.0</ele><time>2026-04-19T10:41:37.997Z</time></trkpt><trkpt lat="43.79885049390644" lon="10.936460366525605"><ele>208.0</ele><time>2026-04-19T10:41:40.997Z</time></trkpt><trkpt lat="43.7988166488946" lon="10.936363421501872"><ele>207.00000000000003</ele><time>2026-04-19T10:41:43.997Z</time></trkpt><trkpt lat="43.79879248237289" lon="10.936256903538968"><ele>206.0</ele><time>2026-04-19T10:41:46.997Z</time></trkpt><trkpt lat="43.79877609158982" lon="10.936160071429585"><ele>206.00000000000003</ele><time>2026-04-19T10:41:49.997Z</time></trkpt><trkpt lat="43.79874994737536" lon="10.93606435450628"><ele>206.0</ele><time>2026-04-19T10:41:52.997Z</time></trkpt><trkpt lat="43.79873454286564" lon="10.935961521714141"><ele>206.0</ele><time>2026-04-19T10:41:55.998Z</time></trkpt><trkpt lat="43.79870022684455" lon="10.935865113937925"><ele>206.0</ele><time>2026-04-19T10:41:59.998Z</time></trkpt><trkpt lat="43.798629714934336" lon="10.935810892229009"><ele>206.00000000000003</ele><time>2026-04-19T10:42:03.998Z</time></trkpt><trkpt lat="43.79854915578102" lon="10.935830735776044"><ele>206.0</ele><time>2026-04-19T10:42:07.997Z</time></trkpt><trkpt lat="43.79848850343161" lon="10.935855054661978"><ele>205.66666666666669</ele><time>2026-04-19T10:42:10.998Z</time></trkpt><trkpt lat="43.79842510000262" lon="10.935896448494226"><ele>205.33333333333334</ele><time>2026-04-19T10:42:13.997Z</time></trkpt><trkpt lat="43.79834521541599" lon="10.935925836043562"><ele>205.0</ele><time>2026-04-19T10:42:16.997Z</time></trkpt><trkpt lat="43.79827671112084" lon="10.935972415514506"><ele>204.66666666666669</ele><time>2026-04-19T10:42:19.997Z</time></trkpt><trkpt lat="43.79820114955864" lon="10.936003473873981"><ele>204.33333333333334</ele><time>2026-04-19T10:42:22.997Z</time></trkpt><trkpt lat="43.798127996471244" lon="10.936035969789911"><ele>204.0</ele><time>2026-04-19T10:42:25.997Z</time></trkpt><trkpt lat="43.79805074681332" lon="10.93604073448404"><ele>204.0</ele><time>2026-04-19T10:42:28.997Z</time></trkpt><trkpt lat="43.7979742661796" lon="10.936051700563535"><ele>204.0</ele><time>2026-04-19T10:42:31.997Z</time></trkpt><trkpt lat="43.797900743178914" lon="10.93603679692115"><ele>204.0</ele><time>2026-04-19T10:42:34.997Z</time></trkpt><trkpt lat="43.79782449560252" lon="10.936019239530367"><ele>204.0</ele><time>2026-04-19T10:42:37.997Z</time></trkpt><trkpt lat="43.79775326034959" lon="10.93600974612619"><ele>204.0</ele><time>2026-04-19T10:42:40.997Z</time></trkpt><trkpt lat="43.79768168941606" lon="10.93599400564251"><ele>204.0</ele><time>2026-04-19T10:42:43.997Z</time></trkpt><trkpt lat="43.79761193124393" lon="10.935965743665474"><ele>204.0</ele><time>2026-04-19T10:42:46.997Z</time></trkpt><trkpt lat="43.7975730260408" lon="10.935882212556766"><ele>202.14285714285714</ele><time>2026-04-19T10:42:49.997Z</time></trkpt><trkpt lat="43.797534102583555" lon="10.93580559613566"><ele>200.28571428571428</ele><time>2026-04-19T10:42:52.997Z</time></trkpt><trkpt lat="43.79746881273085" lon="10.935724830275053"><ele>198.42857142857144</ele><time>2026-04-19T10:42:56.997Z</time></trkpt><trkpt lat="43.79743193174294" lon="10.935650781826249"><ele>196.57142857142856</ele><time>2026-04-19T10:42:59.997Z</time></trkpt><trkpt lat="43.79739563387466" lon="10.93557335769106"><ele>194.7142857142857</ele><time>2026-04-19T10:43:02.997Z</time></trkpt><trkpt lat="43.79735994676609" lon="10.935484503249885"><ele>192.85714285714286</ele><time>2026-04-19T10:43:06.997Z</time></trkpt><trkpt lat="43.797304382938385" lon="10.935421581224974"><ele>191.0</ele><time>2026-04-19T10:43:09.997Z</time></trkpt><trkpt lat="43.79724559441545" lon="10.935375805340227"><ele>191.0</ele><time>2026-04-19T10:43:12.997Z</time></trkpt><trkpt lat="43.79718183227494" lon="10.935346366290284"><ele>191.0</ele><time>2026-04-19T10:43:15.997Z</time></trkpt><trkpt lat="43.797119978422295" lon="10.93529774565392"><ele>191.0</ele><time>2026-04-19T10:43:18.997Z</time></trkpt><trkpt lat="43.797074237843475" lon="10.93521165130045"><ele>191.0</ele><time>2026-04-19T10:43:21.997Z</time></trkpt><trkpt lat="43.797022249972194" lon="10.935142454140951"><ele>191.0</ele><time>2026-04-19T10:43:24.997Z</time></trkpt><trkpt lat="43.79698826723365" lon="10.93506382907368"><ele>191.0</ele><time>2026-04-19T10:43:27.997Z</time></trkpt><trkpt lat="43.796947174180715" lon="10.934991698879708"><ele>191.0</ele><time>2026-04-19T10:43:30.997Z</time></trkpt><trkpt lat="43.79690650349971" lon="10.934918110500194"><ele>189.85714285714286</ele><time>2026-04-19T10:43:33.997Z</time></trkpt><trkpt lat="43.79685734619048" lon="10.934852893116686"><ele>188.7142857142857</ele><time>2026-04-19T10:43:36.996Z</time></trkpt><trkpt lat="43.796797395699286" lon="10.934801522149398"><ele>187.57142857142856</ele><time>2026-04-19T10:43:39.996Z</time></trkpt><trkpt lat="43.79674090338836" lon="10.934732589052631"><ele>186.42857142857144</ele><time>2026-04-19T10:43:42.996Z</time></trkpt><trkpt lat="43.79668310773299" lon="10.93467523225235"><ele>185.28571428571428</ele><time>2026-04-19T10:43:45.996Z</time></trkpt><trkpt lat="43.79662876316477" lon="10.934620316972195"><ele>184.14285714285714</ele><time>2026-04-19T10:43:48.996Z</time></trkpt><trkpt lat="43.796578709911984" lon="10.934555231777045"><ele>183.0</ele><time>2026-04-19T10:43:51.996Z</time></trkpt><trkpt lat="43.79651457614004" lon="10.934486015613908"><ele>181.14285714285714</ele><time>2026-04-19T10:43:55.996Z</time></trkpt><trkpt lat="43.79646272601159" lon="10.934421862642402"><ele>179.28571428571428</ele><time>2026-04-19T10:43:58.996Z</time></trkpt><trkpt lat="43.79641565357932" lon="10.934355311378539"><ele>177.42857142857144</ele><time>2026-04-19T10:44:01.998Z</time></trkpt><trkpt lat="43.79636008576729" lon="10.934311430421051"><ele>175.57142857142856</ele><time>2026-04-19T10:44:04.998Z</time></trkpt><trkpt lat="43.79631653089172" lon="10.93422110780205"><ele>173.7142857142857</ele><time>2026-04-19T10:44:07.997Z</time></trkpt><trkpt lat="43.79627489877039" lon="10.934145354470122"><ele>171.85714285714286</ele><time>2026-04-19T10:44:10.998Z</time></trkpt><trkpt lat="43.79621842141389" lon="10.934075752609798"><ele>170.0</ele><time>2026-04-19T10:44:13.997Z</time></trkpt><trkpt lat="43.796164539717566" lon="10.934006664817908"><ele>169.66666666666666</ele><time>2026-04-19T10:44:16.998Z</time></trkpt><trkpt lat="43.79611309886372" lon="10.933918336028068"><ele>169.33333333333331</ele><time>2026-04-19T10:44:19.998Z</time></trkpt><trkpt lat="43.79608337227975" lon="10.933815540839474"><ele>169.0</ele><time>2026-04-19T10:44:22.998Z</time></trkpt><trkpt lat="43.79603012850253" lon="10.933738140252784"><ele>168.66666666666666</ele><time>2026-04-19T10:44:25.998Z</time></trkpt><trkpt lat="43.79596488639016" lon="10.93366293136012"><ele>168.33333333333334</ele><time>2026-04-19T10:44:28.997Z</time></trkpt><trkpt lat="43.795892210444045" lon="10.933617770560435"><ele>168.0</ele><time>2026-04-19T10:44:31.997Z</time></trkpt><trkpt lat="43.79582292655195" lon="10.933545481506536"><ele>166.66666666666666</ele><time>2026-04-19T10:44:34.997Z</time></trkpt><trkpt lat="43.79576252430801" lon="10.933464331273543"><ele>165.33333333333334</ele><time>2026-04-19T10:44:37.997Z</time></trkpt><trkpt lat="43.79568480694482" lon="10.93341836564653"><ele>164.0</ele><time>2026-04-19T10:44:40.997Z</time></trkpt><trkpt lat="43.79561907723399" lon="10.933360407562665"><ele>162.66666666666669</ele><time>2026-04-19T10:44:43.997Z</time></trkpt><trkpt lat="43.795544174848516" lon="10.933293676046807"><ele>161.33333333333334</ele><time>2026-04-19T10:44:46.997Z</time></trkpt><trkpt lat="43.79547731250215" lon="10.933218165577541"><ele>160.0</ele><time>2026-04-19T10:44:49.997Z</time></trkpt><trkpt lat="43.795405793771934" lon="10.933147132631928"><ele>160.0</ele><time>2026-04-19T10:44:52.997Z</time></trkpt><trkpt lat="43.79534136423462" lon="10.933076595756868"><ele>160.0</ele><time>2026-04-19T10:44:55.997Z</time></trkpt><trkpt lat="43.79527124565347" lon="10.93301348113336"><ele>160.0</ele><time>2026-04-19T10:44:58.997Z</time></trkpt><trkpt lat="43.795196188692564" lon="10.932963262320788"><ele>160.0</ele><time>2026-04-19T10:45:01.997Z</time></trkpt><trkpt lat="43.795124741302146" lon="10.932898453418078"><ele>160.0</ele><time>2026-04-19T10:45:04.997Z</time></trkpt><trkpt lat="43.79505544275049" lon="10.932842024599942"><ele>160.0</ele><time>2026-04-19T10:45:07.997Z</time></trkpt><trkpt lat="43.794987549245995" lon="10.932773907370962"><ele>159.66666666666669</ele><time>2026-04-19T10:45:10.997Z</time></trkpt><trkpt lat="43.79492341148034" lon="10.932692597054618"><ele>159.33333333333334</ele><time>2026-04-19T10:45:13.997Z</time></trkpt><trkpt lat="43.79484716422381" lon="10.932644534519882"><ele>159.0</ele><time>2026-04-19T10:45:16.997Z</time></trkpt><trkpt lat="43.79477120457861" lon="10.9325914507473"><ele>158.66666666666666</ele><time>2026-04-19T10:45:19.997Z</time></trkpt><trkpt lat="43.79470723252082" lon="10.932514674089068"><ele>158.33333333333331</ele><time>2026-04-19T10:45:22.997Z</time></trkpt><trkpt lat="43.79464109221023" lon="10.932466438134956"><ele>158.0</ele><time>2026-04-19T10:45:25.997Z</time></trkpt><trkpt lat="43.794572103493444" lon="10.932388757217112"><ele>158.0</ele><time>2026-04-19T10:45:28.997Z</time></trkpt><trkpt lat="43.794499293753205" lon="10.932323938053052"><ele>158.0</ele><time>2026-04-19T10:45:31.997Z</time></trkpt><trkpt lat="43.794425436289835" lon="10.932262574397024"><ele>158.0</ele><time>2026-04-19T10:45:34.997Z</time></trkpt><trkpt lat="43.794356999798325" lon="10.932197777519036"><ele>158.0</ele><time>2026-04-19T10:45:37.997Z</time></trkpt><trkpt lat="43.79428879839734" lon="10.93213050994103"><ele>158.0</ele><time>2026-04-19T10:45:40.997Z</time></trkpt><trkpt lat="43.7942084987578" lon="10.932103014172869"><ele>158.0</ele><time>2026-04-19T10:45:43.997Z</time></trkpt><trkpt lat="43.794127419518944" lon="10.932108484548195"><ele>156.0</ele><time>2026-04-19T10:45:46.997Z</time></trkpt><trkpt lat="43.79404496169158" lon="10.932107610555684"><ele>154.0</ele><time>2026-04-19T10:45:49.996Z</time></trkpt><trkpt lat="43.793967386867656" lon="10.932099969477928"><ele>152.0</ele><time>2026-04-19T10:45:52.996Z</time></trkpt><trkpt lat="43.793888563991494" lon="10.932112993969596"><ele>150.0</ele><time>2026-04-19T10:45:55.996Z</time></trkpt><trkpt lat="43.793808229200884" lon="10.93208644688842"><ele>148.0</ele><time>2026-04-19T10:45:58.996Z</time></trkpt><trkpt lat="43.7937300629721" lon="10.932089221801027"><ele>146.0</ele><time>2026-04-19T10:46:01.996Z</time></trkpt><trkpt lat="43.79366451625806" lon="10.932020903722135"><ele>146.0</ele><time>2026-04-19T10:46:04.996Z</time></trkpt><trkpt lat="43.793637602918174" lon="10.931906953099412"><ele>146.0</ele><time>2026-04-19T10:46:07.997Z</time></trkpt><trkpt lat="43.79363043838395" lon="10.931809497590132"><ele>146.0</ele><time>2026-04-19T10:46:10.997Z</time></trkpt><trkpt lat="43.79358874463165" lon="10.931720386195797"><ele>146.0</ele><time>2026-04-19T10:46:13.997Z</time></trkpt><trkpt lat="43.79354794742023" lon="10.93163019493693"><ele>146.0</ele><time>2026-04-19T10:46:16.997Z</time></trkpt><trkpt lat="43.79351642009732" lon="10.93155009077668"><ele>146.0</ele><time>2026-04-19T10:46:19.997Z</time></trkpt><trkpt lat="43.793523267347986" lon="10.931428770001755"><ele>146.0</ele><time>2026-04-19T10:46:23.997Z</time></trkpt><trkpt lat="43.793580881620365" lon="10.931379288566006"><ele>146.0</ele><time>2026-04-19T10:46:25.997Z</time></trkpt><trkpt lat="43.793622931174475" lon="10.931295952082833"><ele>146.0</ele><time>2026-04-19T10:46:28.997Z</time></trkpt><trkpt lat="43.79364484637896" lon="10.931194436273923"><ele>146.0</ele><time>2026-04-19T10:46:31.997Z</time></trkpt><trkpt lat="43.79369098649304" lon="10.93110558672752"><ele>146.0</ele><time>2026-04-19T10:46:34.997Z</time></trkpt><trkpt lat="43.79375288101624" lon="10.931034236563649"><ele>146.0</ele><time>2026-04-19T10:46:37.996Z</time></trkpt><trkpt lat="43.79381213308442" lon="10.93096347993721"><ele>146.0</ele><time>2026-04-19T10:46:40.996Z</time></trkpt><trkpt lat="43.79389780569675" lon="10.930937110436014"><ele>146.0</ele><time>2026-04-19T10:46:43.996Z</time></trkpt><trkpt lat="43.79398325847818" lon="10.930932997977093"><ele>146.0</ele><time>2026-04-19T10:46:46.996Z</time></trkpt><trkpt lat="43.794067461352576" lon="10.93092960309916"><ele>146.0</ele><time>2026-04-19T10:46:49.996Z</time></trkpt><trkpt lat="43.79414903353531" lon="10.930929346359465"><ele>146.0</ele><time>2026-04-19T10:46:52.996Z</time></trkpt><trkpt lat="43.79423428106143" lon="10.930923293872173"><ele>146.0</ele><time>2026-04-19T10:46:55.996Z</time></trkpt><trkpt lat="43.79430604238608" lon="10.930887213066894"><ele>143.33333333333331</ele><time>2026-04-19T10:46:58.996Z</time></trkpt><trkpt lat="43.7943769646029" lon="10.930882331517857"><ele>140.66666666666666</ele><time>2026-04-19T10:47:01.996Z</time></trkpt><trkpt lat="43.79445296557162" lon="10.930875155292316"><ele>138.0</ele><time>2026-04-19T10:47:04.996Z</time></trkpt><trkpt lat="43.79453094246119" lon="10.930853728952584"><ele>135.33333333333334</ele><time>2026-04-19T10:47:07.996Z</time></trkpt><trkpt lat="43.79461902808568" lon="10.930834508887948"><ele>132.66666666666669</ele><time>2026-04-19T10:47:10.996Z</time></trkpt><trkpt lat="43.79470188465104" lon="10.93083039602945"><ele>130.0</ele><time>2026-04-19T10:47:13.996Z</time></trkpt><trkpt lat="43.794785475687284" lon="10.930817236101305"><ele>130.0</ele><time>2026-04-19T10:47:16.996Z</time></trkpt><trkpt lat="43.79486308637768" lon="10.930801376143098"><ele>130.0</ele><time>2026-04-19T10:47:19.996Z</time></trkpt><trkpt lat="43.79494856549072" lon="10.93081393358011"><ele>130.0</ele><time>2026-04-19T10:47:22.996Z</time></trkpt><trkpt lat="43.795034898287646" lon="10.93080049939218"><ele>130.0</ele><time>2026-04-19T10:47:25.996Z</time></trkpt><trkpt lat="43.79511942934045" lon="10.93079914122288"><ele>130.0</ele><time>2026-04-19T10:47:28.996Z</time></trkpt><trkpt lat="43.795201255130856" lon="10.930788149361655"><ele>130.0</ele><time>2026-04-19T10:47:31.996Z</time></trkpt><trkpt lat="43.79529234072436" lon="10.930770406148932"><ele>131.33333333333334</ele><time>2026-04-19T10:47:34.996Z</time></trkpt><trkpt lat="43.795354988750894" lon="10.930702149095803"><ele>132.66666666666669</ele><time>2026-04-19T10:47:37.996Z</time></trkpt><trkpt lat="43.795382547559576" lon="10.930600821048897"><ele>134.0</ele><time>2026-04-19T10:47:40.996Z</time></trkpt><trkpt lat="43.795401264255425" lon="10.930503605834822"><ele>135.33333333333334</ele><time>2026-04-19T10:47:43.996Z</time></trkpt><trkpt lat="43.79540519628425" lon="10.93040012211373"><ele>136.66666666666666</ele><time>2026-04-19T10:47:46.996Z</time></trkpt><trkpt lat="43.79542488220161" lon="10.930301700301419"><ele>138.0</ele><time>2026-04-19T10:47:49.996Z</time></trkpt><trkpt lat="43.79544687191998" lon="10.930199263016517"><ele>138.0</ele><time>2026-04-19T10:47:52.996Z</time></trkpt><trkpt lat="43.795457590014564" lon="10.930101105606546"><ele>138.0</ele><time>2026-04-19T10:47:55.996Z</time></trkpt><trkpt lat="43.79547279292407" lon="10.930015035112545"><ele>138.0</ele><time>2026-04-19T10:47:58.995Z</time></trkpt><trkpt lat="43.79549004942744" lon="10.929908472832452"><ele>138.0</ele><time>2026-04-19T10:48:01.995Z</time></trkpt><trkpt lat="43.795507518508785" lon="10.929801345544012"><ele>138.0</ele><time>2026-04-19T10:48:04.995Z</time></trkpt><trkpt lat="43.79551008409549" lon="10.929700979576197"><ele>138.0</ele><time>2026-04-19T10:48:07.995Z</time></trkpt><trkpt lat="43.79547840696339" lon="10.929610217411977"><ele>138.0</ele><time>2026-04-19T10:48:10.995Z</time></trkpt><trkpt lat="43.79541756356211" lon="10.92953841964116"><ele>137.0</ele><time>2026-04-19T10:48:13.996Z</time></trkpt><trkpt lat="43.79536588279758" lon="10.929458802114267"><ele>136.0</ele><time>2026-04-19T10:48:16.996Z</time></trkpt><trkpt lat="43.79531205895937" lon="10.92938064376049"><ele>135.0</ele><time>2026-04-19T10:48:19.997Z</time></trkpt><trkpt lat="43.795257003152734" lon="10.92930948233133"><ele>134.0</ele><time>2026-04-19T10:48:22.997Z</time></trkpt><trkpt lat="43.79520594219495" lon="10.929233351004553"><ele>133.0</ele><time>2026-04-19T10:48:25.996Z</time></trkpt><trkpt lat="43.79515832085502" lon="10.929144053902133"><ele>132.0</ele><time>2026-04-19T10:48:28.997Z</time></trkpt><trkpt lat="43.795103318149984" lon="10.92906972871881"><ele>130.57142857142856</ele><time>2026-04-19T10:48:31.997Z</time></trkpt><trkpt lat="43.795046150227094" lon="10.928993328851679"><ele>129.14285714285714</ele><time>2026-04-19T10:48:34.997Z</time></trkpt><trkpt lat="43.7949880919886" lon="10.928934494850362"><ele>127.71428571428571</ele><time>2026-04-19T10:48:37.997Z</time></trkpt><trkpt lat="43.79491630419565" lon="10.928896090647903"><ele>126.28571428571428</ele><time>2026-04-19T10:48:40.997Z</time></trkpt><trkpt lat="43.79485340803194" lon="10.928860807097657"><ele>124.85714285714286</ele><time>2026-04-19T10:48:43.997Z</time></trkpt><trkpt lat="43.794791351664934" lon="10.92882113120618"><ele>123.42857142857142</ele><time>2026-04-19T10:48:46.996Z</time></trkpt><trkpt lat="43.79473103861477" lon="10.928769924527312"><ele>121.99999999999999</ele><time>2026-04-19T10:48:49.996Z</time></trkpt><trkpt lat="43.79467463256658" lon="10.928715379545725"><ele>121.99999999999999</ele><time>2026-04-19T10:48:52.996Z</time></trkpt><trkpt lat="43.7946067429537" lon="10.928673087738009"><ele>122.0</ele><time>2026-04-19T10:48:55.996Z</time></trkpt><trkpt lat="43.794540179107926" lon="10.928624042036445"><ele>122.0</ele><time>2026-04-19T10:48:58.996Z</time></trkpt><trkpt lat="43.79447624691825" lon="10.928564198658426"><ele>122.0</ele><time>2026-04-19T10:49:01.996Z</time></trkpt><trkpt lat="43.794406402433246" lon="10.928524673926013"><ele>121.99999999999999</ele><time>2026-04-19T10:49:04.996Z</time></trkpt><trkpt lat="43.794346625328956" lon="10.928441070805972"><ele>122.0</ele><time>2026-04-19T10:49:07.996Z</time></trkpt><trkpt lat="43.79428089989599" lon="10.928378170969097"><ele>120.99999999999999</ele><time>2026-04-19T10:49:10.996Z</time></trkpt><trkpt lat="43.79421965629668" lon="10.92832806739724"><ele>120.0</ele><time>2026-04-19T10:49:13.996Z</time></trkpt><trkpt lat="43.79416225703141" lon="10.928253911592394"><ele>118.99999999999999</ele><time>2026-04-19T10:49:16.996Z</time></trkpt><trkpt lat="43.79411204118472" lon="10.928177912826936"><ele>117.99999999999999</ele><time>2026-04-19T10:49:19.996Z</time></trkpt><trkpt lat="43.794055825785996" lon="10.928118553714578"><ele>117.0</ele><time>2026-04-19T10:49:22.996Z</time></trkpt><trkpt lat="43.7939970918519" lon="10.928050335593836"><ele>115.99999999999999</ele><time>2026-04-19T10:49:25.996Z</time></trkpt><trkpt lat="43.793954879296095" lon="10.927966251380008"><ele>114.99999999999999</ele><time>2026-04-19T10:49:28.996Z</time></trkpt><trkpt lat="43.79390316725191" lon="10.927894325150595"><ele>115.00000000000001</ele><time>2026-04-19T10:49:31.996Z</time></trkpt><trkpt lat="43.79384456072405" lon="10.927813253892484"><ele>115.0</ele><time>2026-04-19T10:49:34.996Z</time></trkpt><trkpt lat="43.79379459043446" lon="10.927724121680214"><ele>115.0</ele><time>2026-04-19T10:49:37.996Z</time></trkpt><trkpt lat="43.793731024413844" lon="10.927654255165146"><ele>115.0</ele><time>2026-04-19T10:49:40.996Z</time></trkpt><trkpt lat="43.79366723455902" lon="10.927594580207066"><ele>115.00000000000001</ele><time>2026-04-19T10:49:43.996Z</time></trkpt><trkpt lat="43.79360717613185" lon="10.927535726463345"><ele>115.0</ele><time>2026-04-19T10:49:46.996Z</time></trkpt><trkpt lat="43.793550467825135" lon="10.92747794856627"><ele>115.7142857142857</ele><time>2026-04-19T10:49:49.996Z</time></trkpt><trkpt lat="43.793492712118265" lon="10.927426052449642"><ele>116.42857142857142</ele><time>2026-04-19T10:49:52.996Z</time></trkpt><trkpt lat="43.7934267109755" lon="10.927368141948854"><ele>117.14285714285714</ele><time>2026-04-19T10:49:55.996Z</time></trkpt><trkpt lat="43.79337224947245" lon="10.92730796668648"><ele>117.85714285714285</ele><time>2026-04-19T10:49:58.996Z</time></trkpt><trkpt lat="43.793319735648446" lon="10.927255297447513"><ele>118.57142857142856</ele><time>2026-04-19T10:50:01.996Z</time></trkpt><trkpt lat="43.79326259357403" lon="10.927188488178267"><ele>119.28571428571429</ele><time>2026-04-19T10:50:04.996Z</time></trkpt><trkpt lat="43.79321068951086" lon="10.927126764788522"><ele>120.0</ele><time>2026-04-19T10:50:07.995Z</time></trkpt><trkpt lat="43.793157201963645" lon="10.927074767863116"><ele>120.0</ele><time>2026-04-19T10:50:10.995Z</time></trkpt><trkpt lat="43.79310859714213" lon="10.927007338111565"><ele>120.0</ele><time>2026-04-19T10:50:13.995Z</time></trkpt><trkpt lat="43.793061304280535" lon="10.926930549414774"><ele>120.0</ele><time>2026-04-19T10:50:16.995Z</time></trkpt><trkpt lat="43.793000141144795" lon="10.926855402857916"><ele>120.0</ele><time>2026-04-19T10:50:20.996Z</time></trkpt><trkpt lat="43.79293504944691" lon="10.926785261254615"><ele>120.0</ele><time>2026-04-19T10:50:24.996Z</time></trkpt><trkpt lat="43.792884800555015" lon="10.926727336935347"><ele>120.0</ele><time>2026-04-19T10:50:27.996Z</time></trkpt><trkpt lat="43.79282637612173" lon="10.92665256171505"><ele>120.0</ele><time>2026-04-19T10:50:31.996Z</time></trkpt><trkpt lat="43.792756848860435" lon="10.926589106260444"><ele>120.0</ele><time>2026-04-19T10:50:35.996Z</time></trkpt><trkpt lat="43.792696029673934" lon="10.926529768672495"><ele>120.0</ele><time>2026-04-19T10:50:39.996Z</time></trkpt><trkpt lat="43.792638142036544" lon="10.9264650384559"><ele>120.0</ele><time>2026-04-19T10:50:43.996Z</time></trkpt><trkpt lat="43.792576521999784" lon="10.926397010652952"><ele>120.0</ele><time>2026-04-19T10:50:47.996Z</time></trkpt><trkpt lat="43.79251538492471" lon="10.926316433785356"><ele>120.0</ele><time>2026-04-19T10:50:51.996Z</time></trkpt><trkpt lat="43.792470913249474" lon="10.926254609448492"><ele>120.0</ele><time>2026-04-19T10:50:54.996Z</time></trkpt><trkpt lat="43.7924164111288" lon="10.926208980084924"><ele>120.0</ele><time>2026-04-19T10:50:57.996Z</time></trkpt><trkpt lat="43.79236732708668" lon="10.926153772789263"><ele>120.0</ele><time>2026-04-19T10:51:00.996Z</time></trkpt><trkpt lat="43.792320389634064" lon="10.92608893216737"><ele>120.0</ele><time>2026-04-19T10:51:03.996Z</time></trkpt><trkpt lat="43.79225444310339" lon="10.92601451053816"><ele>120.0</ele><time>2026-04-19T10:51:07.996Z</time></trkpt><trkpt lat="43.792211600535346" lon="10.925943587158699"><ele>120.0</ele><time>2026-04-19T10:51:10.995Z</time></trkpt><trkpt lat="43.79217229256967" lon="10.925864233772158"><ele>120.0</ele><time>2026-04-19T10:51:13.995Z</time></trkpt><trkpt lat="43.79213164136011" lon="10.925785933489722"><ele>119.28571428571429</ele><time>2026-04-19T10:51:16.995Z</time></trkpt><trkpt lat="43.79208510228812" lon="10.925702657062413"><ele>118.57142857142856</ele><time>2026-04-19T10:51:19.995Z</time></trkpt><trkpt lat="43.79203748754155" lon="10.925620214979705"><ele>117.85714285714285</ele><time>2026-04-19T10:51:22.995Z</time></trkpt><trkpt lat="43.791997342792826" lon="10.925540033637546"><ele>117.14285714285714</ele><time>2026-04-19T10:51:25.995Z</time></trkpt><trkpt lat="43.791974097457626" lon="10.925448687687089"><ele>116.42857142857142</ele><time>2026-04-19T10:51:28.995Z</time></trkpt><trkpt lat="43.79193080634014" lon="10.925373920002318"><ele>115.7142857142857</ele><time>2026-04-19T10:51:31.995Z</time></trkpt><trkpt lat="43.79189467142535" lon="10.925276812951871"><ele>114.99999999999999</ele><time>2026-04-19T10:51:34.995Z</time></trkpt><trkpt lat="43.791853445862245" lon="10.925195949344285"><ele>114.99999999999999</ele><time>2026-04-19T10:51:37.995Z</time></trkpt><trkpt lat="43.791809908092446" lon="10.925118618055134"><ele>115.0</ele><time>2026-04-19T10:51:40.995Z</time></trkpt><trkpt lat="43.79177321343832" lon="10.925040220641941"><ele>114.99999999999999</ele><time>2026-04-19T10:51:43.995Z</time></trkpt><trkpt lat="43.79173900832751" lon="10.924945615958025"><ele>114.99999999999999</ele><time>2026-04-19T10:51:46.995Z</time></trkpt><trkpt lat="43.791680040603616" lon="10.92487943381257"><ele>115.0</ele><time>2026-04-19T10:51:49.995Z</time></trkpt><trkpt lat="43.79161092400173" lon="10.924867075751095"><ele>114.99999999999999</ele><time>2026-04-19T10:51:52.995Z</time></trkpt><trkpt lat="43.79154272192463" lon="10.924916201492952"><ele>114.99999999999999</ele><time>2026-04-19T10:51:56.995Z</time></trkpt><trkpt lat="43.7914633427905" lon="10.924972098950978"><ele>115.00000000000001</ele><time>2026-04-19T10:52:00.995Z</time></trkpt><trkpt lat="43.791416334723316" lon="10.925030859283073"><ele>115.0</ele><time>2026-04-19T10:52:03.995Z</time></trkpt><trkpt lat="43.79134498555977" lon="10.92509980495577"><ele>115.0</ele><time>2026-04-19T10:52:07.995Z</time></trkpt><trkpt lat="43.79126767392654" lon="10.925132740739464"><ele>115.0</ele><time>2026-04-19T10:52:10.995Z</time></trkpt><trkpt lat="43.79118560376472" lon="10.925108358618575"><ele>115.00000000000001</ele><time>2026-04-19T10:52:13.995Z</time></trkpt><trkpt lat="43.79111074897698" lon="10.925077962880465"><ele>115.0</ele><time>2026-04-19T10:52:16.995Z</time></trkpt><trkpt lat="43.791045475618674" lon="10.925054504516392"><ele>112.83333333333334</ele><time>2026-04-19T10:52:19.995Z</time></trkpt><trkpt lat="43.79096495295795" lon="10.925031552331365"><ele>110.66666666666667</ele><time>2026-04-19T10:52:22.995Z</time></trkpt><trkpt lat="43.790886455531655" lon="10.92501890928088"><ele>108.5</ele><time>2026-04-19T10:52:25.995Z</time></trkpt><trkpt lat="43.79080782263318" lon="10.925024089312458"><ele>106.33333333333334</ele><time>2026-04-19T10:52:28.995Z</time></trkpt><trkpt lat="43.79072925676588" lon="10.9250019719078"><ele>104.16666666666667</ele><time>2026-04-19T10:52:31.996Z</time></trkpt><trkpt lat="43.790645970627246" lon="10.924990022459234"><ele>102.0</ele><time>2026-04-19T10:52:34.995Z</time></trkpt><trkpt lat="43.79056291138949" lon="10.924994906692788"><ele>102.0</ele><time>2026-04-19T10:52:37.995Z</time></trkpt><trkpt lat="43.790488202356364" lon="10.924994264837762"><ele>102.0</ele><time>2026-04-19T10:52:40.995Z</time></trkpt><trkpt lat="43.79041617279884" lon="10.925000663561681"><ele>102.0</ele><time>2026-04-19T10:52:43.995Z</time></trkpt><trkpt lat="43.790346794276836" lon="10.924979269224275"><ele>102.0</ele><time>2026-04-19T10:52:46.995Z</time></trkpt><trkpt lat="43.79027795739806" lon="10.924969544867023"><ele>102.0</ele><time>2026-04-19T10:52:49.995Z</time></trkpt><trkpt lat="43.79020346427129" lon="10.924931434714445"><ele>102.0</ele><time>2026-04-19T10:52:54.995Z</time></trkpt><trkpt lat="43.790130124132624" lon="10.92491629011787"><ele>102.0</ele><time>2026-04-19T10:52:58.995Z</time></trkpt><trkpt lat="43.79005920735457" lon="10.92489031820651"><ele>101.42857142857143</ele><time>2026-04-19T10:53:03.995Z</time></trkpt><trkpt lat="43.78999880971732" lon="10.924863777511437"><ele>100.85714285714286</ele><time>2026-04-19T10:53:06.995Z</time></trkpt><trkpt lat="43.789934703491895" lon="10.924831791704447"><ele>100.28571428571428</ele><time>2026-04-19T10:53:09.995Z</time></trkpt><trkpt lat="43.78986554271347" lon="10.924771699070817"><ele>99.71428571428572</ele><time>2026-04-19T10:53:13.995Z</time></trkpt><trkpt lat="43.7897936466187" lon="10.924737081711042"><ele>99.14285714285714</ele><time>2026-04-19T10:53:17.995Z</time></trkpt><trkpt lat="43.78972563126634" lon="10.924679661204285"><ele>98.57142857142857</ele><time>2026-04-19T10:53:21.995Z</time></trkpt><trkpt lat="43.78968830445033" lon="10.924603053306626"><ele>98.0</ele><time>2026-04-19T10:53:24.995Z</time></trkpt><trkpt lat="43.789640691079185" lon="10.92451448473739"><ele>97.99999999999999</ele><time>2026-04-19T10:53:27.995Z</time></trkpt><trkpt lat="43.789618037080935" lon="10.924416006637376"><ele>98.0</ele><time>2026-04-19T10:53:30.995Z</time></trkpt><trkpt lat="43.78961240103636" lon="10.924300926853112"><ele>98.0</ele><time>2026-04-19T10:53:33.995Z</time></trkpt><trkpt lat="43.78960494657221" lon="10.924204480910277"><ele>98.0</ele><time>2026-04-19T10:53:36.995Z</time></trkpt><trkpt lat="43.78959861743089" lon="10.924095295037592"><ele>97.99999999999999</ele><time>2026-04-19T10:53:39.995Z</time></trkpt><trkpt lat="43.78956775865897" lon="10.924003297985854"><ele>98.0</ele><time>2026-04-19T10:53:42.995Z</time></trkpt><trkpt lat="43.78950177931328" lon="10.923932326025277"><ele>97.16666666666666</ele><time>2026-04-19T10:53:45.994Z</time></trkpt><trkpt lat="43.78943061006673" lon="10.92387480006739"><ele>96.33333333333333</ele><time>2026-04-19T10:53:48.994Z</time></trkpt><trkpt lat="43.789349462544436" lon="10.923837439541149"><ele>95.5</ele><time>2026-04-19T10:53:51.994Z</time></trkpt><trkpt lat="43.78927271883249" lon="10.923823267755996"><ele>94.66666666666666</ele><time>2026-04-19T10:53:54.994Z</time></trkpt><trkpt lat="43.789196731210716" lon="10.923795338135449"><ele>93.83333333333333</ele><time>2026-04-19T10:53:57.994Z</time></trkpt><trkpt lat="43.78911825779086" lon="10.923762002346649"><ele>93.0</ele><time>2026-04-19T10:54:00.994Z</time></trkpt><trkpt lat="43.78903384359353" lon="10.92375487168561"><ele>93.0</ele><time>2026-04-19T10:54:03.994Z</time></trkpt><trkpt lat="43.788952568464275" lon="10.923745412959814"><ele>93.0</ele><time>2026-04-19T10:54:06.994Z</time></trkpt><trkpt lat="43.78887262671395" lon="10.923721879713465"><ele>93.0</ele><time>2026-04-19T10:54:09.994Z</time></trkpt><trkpt lat="43.788791593818004" lon="10.923688051451181"><ele>93.0</ele><time>2026-04-19T10:54:12.994Z</time></trkpt><trkpt lat="43.78870712534235" lon="10.923675390451734"><ele>93.0</ele><time>2026-04-19T10:54:15.994Z</time></trkpt><trkpt lat="43.78861831033407" lon="10.923671477374356"><ele>93.0</ele><time>2026-04-19T10:54:18.994Z</time></trkpt><trkpt lat="43.78853298891854" lon="10.92367326410886"><ele>91.66666666666667</ele><time>2026-04-19T10:54:21.994Z</time></trkpt><trkpt lat="43.78844834313198" lon="10.923666737368317"><ele>90.33333333333333</ele><time>2026-04-19T10:54:24.994Z</time></trkpt><trkpt lat="43.78836030034518" lon="10.923672625208797"><ele>89.0</ele><time>2026-04-19T10:54:27.994Z</time></trkpt><trkpt lat="43.78827642021782" lon="10.923677621050327"><ele>87.66666666666666</ele><time>2026-04-19T10:54:30.994Z</time></trkpt><trkpt lat="43.78821022311389" lon="10.9236027101313"><ele>86.33333333333333</ele><time>2026-04-19T10:54:33.995Z</time></trkpt><trkpt lat="43.78817800361986" lon="10.923500113031263"><ele>85.0</ele><time>2026-04-19T10:54:36.995Z</time></trkpt><trkpt lat="43.78813963029846" lon="10.92340340386539"><ele>84.0</ele><time>2026-04-19T10:54:39.994Z</time></trkpt><trkpt lat="43.78810984785104" lon="10.923304113402272"><ele>83.0</ele><time>2026-04-19T10:54:42.994Z</time></trkpt><trkpt lat="43.78806758887441" lon="10.923207240329958"><ele>82.0</ele><time>2026-04-19T10:54:45.994Z</time></trkpt><trkpt lat="43.78802082937452" lon="10.923107246486452"><ele>81.0</ele><time>2026-04-19T10:54:48.994Z</time></trkpt><trkpt lat="43.78795962642858" lon="10.923017974221686"><ele>80.0</ele><time>2026-04-19T10:54:51.994Z</time></trkpt><trkpt lat="43.78789698311668" lon="10.922938191071328"><ele>79.0</ele><time>2026-04-19T10:54:54.994Z</time></trkpt><trkpt lat="43.78783974715577" lon="10.922854169119482"><ele>79.0</ele><time>2026-04-19T10:54:57.994Z</time></trkpt><trkpt lat="43.78778478646622" lon="10.922750989588087"><ele>79.0</ele><time>2026-04-19T10:55:00.994Z</time></trkpt><trkpt lat="43.78774445797903" lon="10.922650701132408"><ele>79.0</ele><time>2026-04-19T10:55:03.994Z</time></trkpt><trkpt lat="43.7877011972554" lon="10.922546094595258"><ele>79.0</ele><time>2026-04-19T10:55:06.994Z</time></trkpt><trkpt lat="43.78766939359986" lon="10.922435368580713"><ele>79.0</ele><time>2026-04-19T10:55:09.994Z</time></trkpt><trkpt lat="43.787651114748925" lon="10.922321427845567"><ele>79.0</ele><time>2026-04-19T10:55:12.994Z</time></trkpt><trkpt lat="43.787629367125135" lon="10.9221994065074"><ele>78.16666666666666</ele><time>2026-04-19T10:55:15.994Z</time></trkpt><trkpt lat="43.78758427408304" lon="10.922087729352295"><ele>77.33333333333333</ele><time>2026-04-19T10:55:18.994Z</time></trkpt><trkpt lat="43.787516279372575" lon="10.922011688967599"><ele>76.5</ele><time>2026-04-19T10:55:21.994Z</time></trkpt><trkpt lat="43.78743942512469" lon="10.92201786898189"><ele>75.66666666666667</ele><time>2026-04-19T10:55:24.994Z</time></trkpt><trkpt lat="43.78737676366033" lon="10.922079929812423"><ele>74.83333333333334</ele><time>2026-04-19T10:55:27.994Z</time></trkpt><trkpt lat="43.78730600013855" lon="10.922106435427596"><ele>74.0</ele><time>2026-04-19T10:55:30.994Z</time></trkpt><trkpt lat="43.78724321933378" lon="10.922131648420141"><ele>74.0</ele><time>2026-04-19T10:55:32.994Z</time></trkpt><trkpt lat="43.78720351066616" lon="10.922221586949432"><ele>74.0</ele><time>2026-04-19T10:55:35.994Z</time></trkpt><trkpt lat="43.78718425749485" lon="10.922317683199305"><ele>74.0</ele><time>2026-04-19T10:55:38.994Z</time></trkpt><trkpt lat="43.78717987335698" lon="10.922418337732083"><ele>74.0</ele><time>2026-04-19T10:55:41.994Z</time></trkpt><trkpt lat="43.787184507063635" lon="10.922519160589786"><ele>74.0</ele><time>2026-04-19T10:55:44.994Z</time></trkpt><trkpt lat="43.787185587245126" lon="10.922607054537885"><ele>74.0</ele><time>2026-04-19T10:55:47.994Z</time></trkpt><trkpt lat="43.787181796898565" lon="10.922706415625052"><ele>74.0</ele><time>2026-04-19T10:55:50.994Z</time></trkpt><trkpt lat="43.78717353244441" lon="10.922817742145508"><ele>73.85714285714286</ele><time>2026-04-19T10:55:54.994Z</time></trkpt><trkpt lat="43.78717214933606" lon="10.922921579208081"><ele>73.71428571428571</ele><time>2026-04-19T10:55:57.994Z</time></trkpt><trkpt lat="43.78717257357489" lon="10.923008864303085"><ele>73.57142857142857</ele><time>2026-04-19T10:56:00.994Z</time></trkpt><trkpt lat="43.78716808713003" lon="10.923102084741931"><ele>73.42857142857143</ele><time>2026-04-19T10:56:03.994Z</time></trkpt><trkpt lat="43.7871912999545" lon="10.923188042878504"><ele>73.28571428571429</ele><time>2026-04-19T10:56:06.993Z</time></trkpt><trkpt lat="43.78720675053029" lon="10.923275171352266"><ele>73.14285714285714</ele><time>2026-04-19T10:56:09.993Z</time></trkpt><trkpt lat="43.78722015304393" lon="10.923381085389236"><ele>73.0</ele><time>2026-04-19T10:56:13.993Z</time></trkpt><trkpt lat="43.787228710273396" lon="10.92349221225432"><ele>72.71428571428571</ele><time>2026-04-19T10:56:17.993Z</time></trkpt><trkpt lat="43.78724413978925" lon="10.923577294038067"><ele>72.42857142857143</ele><time>2026-04-19T10:56:20.993Z</time></trkpt><trkpt lat="43.787267457645996" lon="10.923665812091574"><ele>72.14285714285714</ele><time>2026-04-19T10:56:23.993Z</time></trkpt><trkpt lat="43.78727708726801" lon="10.9237585289104"><ele>71.85714285714286</ele><time>2026-04-19T10:56:26.993Z</time></trkpt><trkpt lat="43.787301178054676" lon="10.923860333427674"><ele>71.57142857142857</ele><time>2026-04-19T10:56:29.993Z</time></trkpt><trkpt lat="43.78732739840573" lon="10.92395221245436"><ele>71.28571428571428</ele><time>2026-04-19T10:56:32.993Z</time></trkpt><trkpt lat="43.78733894587799" lon="10.924043960092963"><ele>71.0</ele><time>2026-04-19T10:56:35.993Z</time></trkpt><trkpt lat="43.78737432855355" lon="10.924130230703414"><ele>71.0</ele><time>2026-04-19T10:56:38.993Z</time></trkpt><trkpt lat="43.78740237201925" lon="10.924225585094996"><ele>71.0</ele><time>2026-04-19T10:56:41.994Z</time></trkpt><trkpt lat="43.787449516390936" lon="10.924312925359546"><ele>71.0</ele><time>2026-04-19T10:56:44.994Z</time></trkpt><trkpt lat="43.78749153881026" lon="10.924407622229879"><ele>71.0</ele><time>2026-04-19T10:56:47.993Z</time></trkpt><trkpt lat="43.78753203447803" lon="10.924496950265468"><ele>71.0</ele><time>2026-04-19T10:56:50.993Z</time></trkpt><trkpt lat="43.78757553424787" lon="10.924583702317886"><ele>71.0</ele><time>2026-04-19T10:56:53.993Z</time></trkpt><trkpt lat="43.787591916288186" lon="10.92467569009644"><ele>70.85714285714286</ele><time>2026-04-19T10:56:56.993Z</time></trkpt><trkpt lat="43.78762326933034" lon="10.924755445888081"><ele>70.71428571428571</ele><time>2026-04-19T10:56:59.993Z</time></trkpt><trkpt lat="43.787639079384526" lon="10.924851209664808"><ele>70.57142857142857</ele><time>2026-04-19T10:57:02.993Z</time></trkpt><trkpt lat="43.78764462777135" lon="10.924951814067445"><ele>70.42857142857143</ele><time>2026-04-19T10:57:05.993Z</time></trkpt><trkpt lat="43.78765330572713" lon="10.925049219955785"><ele>70.28571428571428</ele><time>2026-04-19T10:57:08.993Z</time></trkpt><trkpt lat="43.787639970374876" lon="10.92514126332981"><ele>70.14285714285714</ele><time>2026-04-19T10:57:11.993Z</time></trkpt><trkpt lat="43.78763936499587" lon="10.925246942584453"><ele>70.0</ele><time>2026-04-19T10:57:14.993Z</time></trkpt><trkpt lat="43.78764391262526" lon="10.925341025047594"><ele>71.0</ele><time>2026-04-19T10:57:17.993Z</time></trkpt><trkpt lat="43.78767927031916" lon="10.925428544999669"><ele>72.0</ele><time>2026-04-19T10:57:20.993Z</time></trkpt><trkpt lat="43.78774143066369" lon="10.92550403006647"><ele>73.0</ele><time>2026-04-19T10:57:23.993Z</time></trkpt><trkpt lat="43.78778259532605" lon="10.925605314623587"><ele>74.0</ele><time>2026-04-19T10:57:26.993Z</time></trkpt><trkpt lat="43.78782254508896" lon="10.925695342270755"><ele>75.0</ele><time>2026-04-19T10:57:29.993Z</time></trkpt><trkpt lat="43.787847550504594" lon="10.925775930723004"><ele>76.0</ele><time>2026-04-19T10:57:32.993Z</time></trkpt><trkpt lat="43.78784957807292" lon="10.9258872718434"><ele>76.42857142857143</ele><time>2026-04-19T10:57:35.993Z</time></trkpt><trkpt lat="43.787835457909665" lon="10.926009843901843"><ele>76.85714285714286</ele><time>2026-04-19T10:57:38.993Z</time></trkpt><trkpt lat="43.787808686635614" lon="10.92611535678146"><ele>77.28571428571429</ele><time>2026-04-19T10:57:41.993Z</time></trkpt><trkpt lat="43.787770678996736" lon="10.926203063840399"><ele>77.71428571428572</ele><time>2026-04-19T10:57:45.993Z</time></trkpt><trkpt lat="43.787708599645725" lon="10.92623242657243"><ele>78.14285714285714</ele><time>2026-04-19T10:57:49.993Z</time></trkpt><trkpt lat="43.78764759837569" lon="10.926273528549551"><ele>78.57142857142858</ele><time>2026-04-19T10:57:53.993Z</time></trkpt><trkpt lat="43.78757755630582" lon="10.926263568672288"><ele>79.0</ele><time>2026-04-19T10:57:58.993Z</time></trkpt><trkpt lat="43.787533331457766" lon="10.926189206282459"><ele>80.14285714285715</ele><time>2026-04-19T10:58:02.992Z</time></trkpt><trkpt lat="43.78748669798264" lon="10.926123317380364"><ele>81.28571428571429</ele><time>2026-04-19T10:58:10.992Z</time></trkpt><trkpt lat="43.78742219989548" lon="10.926105548149716"><ele>82.42857142857143</ele><time>2026-04-19T10:58:22.992Z</time></trkpt><trkpt lat="43.78735916097551" lon="10.926081059832942"><ele>83.57142857142858</ele><time>2026-04-19T10:58:31.992Z</time></trkpt><trkpt lat="43.78735038195946" lon="10.926184223717026"><ele>84.71428571428572</ele><time>2026-04-19T10:58:53.993Z</time></trkpt><trkpt lat="43.787379167504234" lon="10.92626317935526"><ele>85.85714285714286</ele><time>2026-04-19T10:59:04.993Z</time></trkpt><trkpt lat="43.78740786390209" lon="10.926353009019875"><ele>87.0</ele><time>2026-04-19T10:59:22.993Z</time></trkpt><trkpt lat="43.78736966934798" lon="10.926476520950695"><ele>87.0</ele><time>2026-04-19T10:59:33.993Z</time></trkpt><trkpt lat="43.78732566592093" lon="10.926565921656627"><ele>87.0</ele><time>2026-04-19T10:59:37.992Z</time></trkpt><trkpt lat="43.78724997973818" lon="10.926548435430089"><ele>87.0</ele><time>2026-04-19T10:59:42.992Z</time></trkpt><trkpt lat="43.78717783965489" lon="10.926536907495302"><ele>87.0</ele><time>2026-04-19T10:59:46.992Z</time></trkpt><trkpt lat="43.7871035721275" lon="10.926551144972569"><ele>87.0</ele><time>2026-04-19T10:59:50.992Z</time></trkpt><trkpt lat="43.78703692791463" lon="10.926538479479746"><ele>87.0</ele><time>2026-04-19T10:59:53.992Z</time></trkpt><trkpt lat="43.78695852001633" lon="10.926532847572494"><ele>87.0</ele><time>2026-04-19T10:59:57.992Z</time></trkpt><trkpt lat="43.78688829379028" lon="10.926517338534158"><ele>87.16666666666667</ele><time>2026-04-19T11:00:00.992Z</time></trkpt><trkpt lat="43.786820056187196" lon="10.926512627839632"><ele>87.33333333333333</ele><time>2026-04-19T11:00:03.992Z</time></trkpt><trkpt lat="43.78673790715136" lon="10.92652276297759"><ele>87.5</ele><time>2026-04-19T11:00:07.992Z</time></trkpt><trkpt lat="43.786662753996474" lon="10.926534465081671"><ele>87.66666666666666</ele><time>2026-04-19T11:00:11.992Z</time></trkpt><trkpt lat="43.78658850285133" lon="10.926542079338326"><ele>87.83333333333333</ele><time>2026-04-19T11:00:15.992Z</time></trkpt><trkpt lat="43.78652713944379" lon="10.926476700755662"><ele>88.0</ele><time>2026-04-19T11:00:21.992Z</time></trkpt><trkpt lat="43.78645431912061" lon="10.926460479622962"><ele>88.0</ele><time>2026-04-19T11:00:23.992Z</time></trkpt><trkpt lat="43.786381216638226" lon="10.926422575652149"><ele>88.0</ele><time>2026-04-19T11:00:26.992Z</time></trkpt><trkpt lat="43.786304169388025" lon="10.926369536989927"><ele>88.0</ele><time>2026-04-19T11:00:30.992Z</time></trkpt><trkpt lat="43.78627512877421" lon="10.92626309078024"><ele>88.0</ele><time>2026-04-19T11:00:33.992Z</time></trkpt><trkpt lat="43.78622399749824" lon="10.926190985211587"><ele>88.0</ele><time>2026-04-19T11:00:36.992Z</time></trkpt><trkpt lat="43.78615067414527" lon="10.926157813149967"><ele>88.0</ele><time>2026-04-19T11:00:39.992Z</time></trkpt><trkpt lat="43.78609083084884" lon="10.926124557597566"><ele>88.0</ele><time>2026-04-19T11:00:42.992Z</time></trkpt><trkpt lat="43.786040866129454" lon="10.926070386351046"><ele>88.0</ele><time>2026-04-19T11:00:45.992Z</time></trkpt><trkpt lat="43.78597992903139" lon="10.926036445411242"><ele>88.0</ele><time>2026-04-19T11:00:48.992Z</time></trkpt><trkpt lat="43.785918350234695" lon="10.92600477001584"><ele>88.0</ele><time>2026-04-19T11:00:51.993Z</time></trkpt><trkpt lat="43.785871632993725" lon="10.925944080018596"><ele>88.0</ele><time>2026-04-19T11:00:54.993Z</time></trkpt><trkpt lat="43.78580763277482" lon="10.925871132867934"><ele>88.0</ele><time>2026-04-19T11:00:58.993Z</time></trkpt><trkpt lat="43.78575521455462" lon="10.925802171201136"><ele>88.0</ele><time>2026-04-19T11:01:01.993Z</time></trkpt><trkpt lat="43.785699871966884" lon="10.925754431246805"><ele>86.5</ele><time>2026-04-19T11:01:04.993Z</time></trkpt><trkpt lat="43.785639209071284" lon="10.92570341268006"><ele>85.0</ele><time>2026-04-19T11:01:07.993Z</time></trkpt><trkpt lat="43.785581709086095" lon="10.925644730780697"><ele>83.5</ele><time>2026-04-19T11:01:10.993Z</time></trkpt><trkpt lat="43.78552980478836" lon="10.925579728316729"><ele>82.0</ele><time>2026-04-19T11:01:13.993Z</time></trkpt><trkpt lat="43.78546861299466" lon="10.925511070866564"><ele>80.5</ele><time>2026-04-19T11:01:16.993Z</time></trkpt><trkpt lat="43.78540626421471" lon="10.925431278043598"><ele>79.0</ele><time>2026-04-19T11:01:19.993Z</time></trkpt><trkpt lat="43.785343638279535" lon="10.92536623429383"><ele>79.0</ele><time>2026-04-19T11:01:22.993Z</time></trkpt><trkpt lat="43.78527738560443" lon="10.925307831159877"><ele>79.0</ele><time>2026-04-19T11:01:25.993Z</time></trkpt><trkpt lat="43.785209750604714" lon="10.925252208985812"><ele>79.0</ele><time>2026-04-19T11:01:28.993Z</time></trkpt><trkpt lat="43.78520721367413" lon="10.925156006503371"><ele>79.0</ele><time>2026-04-19T11:01:31.993Z</time></trkpt><trkpt lat="43.785255567765404" lon="10.925087575522522"><ele>79.0</ele><time>2026-04-19T11:01:34.993Z</time></trkpt><trkpt lat="43.78530660435352" lon="10.924994994241946"><ele>79.0</ele><time>2026-04-19T11:01:38.993Z</time></trkpt><trkpt lat="43.78535815690865" lon="10.924902944612125"><ele>78.14285714285715</ele><time>2026-04-19T11:01:42.993Z</time></trkpt><trkpt lat="43.7853455825268" lon="10.924810615898824"><ele>77.28571428571429</ele><time>2026-04-19T11:01:45.993Z</time></trkpt><trkpt lat="43.78529578039977" lon="10.924743163055217"><ele>76.42857142857143</ele><time>2026-04-19T11:01:48.992Z</time></trkpt><trkpt lat="43.78523279087448" lon="10.924684036581475"><ele>75.57142857142858</ele><time>2026-04-19T11:01:51.992Z</time></trkpt><trkpt lat="43.78517438077665" lon="10.924642624521612"><ele>74.71428571428572</ele><time>2026-04-19T11:01:54.992Z</time></trkpt><trkpt lat="43.78511405340235" lon="10.924596932763023"><ele>73.85714285714286</ele><time>2026-04-19T11:01:57.992Z</time></trkpt><trkpt lat="43.78506006124368" lon="10.92454978361741"><ele>73.0</ele><time>2026-04-19T11:02:00.992Z</time></trkpt><trkpt lat="43.78499796766959" lon="10.924524771673715"><ele>72.83333333333333</ele><time>2026-04-19T11:02:03.992Z</time></trkpt><trkpt lat="43.784916374707834" lon="10.924569852744488"><ele>72.66666666666666</ele><time>2026-04-19T11:02:06.992Z</time></trkpt><trkpt lat="43.78485224658955" lon="10.924521985581903"><ele>72.5</ele><time>2026-04-19T11:02:09.992Z</time></trkpt><trkpt lat="43.78477494724046" lon="10.924476468748718"><ele>72.33333333333333</ele><time>2026-04-19T11:02:12.992Z</time></trkpt><trkpt lat="43.784715675478004" lon="10.924437472698484"><ele>72.16666666666667</ele><time>2026-04-19T11:02:15.992Z</time></trkpt><trkpt lat="43.78467471548994" lon="10.924370735666297"><ele>72.0</ele><time>2026-04-19T11:02:18.992Z</time></trkpt><trkpt lat="43.78461538803894" lon="10.924289501055071"><ele>72.00000000000001</ele><time>2026-04-19T11:02:22.992Z</time></trkpt><trkpt lat="43.78456380456896" lon="10.924239134408051"><ele>72.0</ele><time>2026-04-19T11:02:25.992Z</time></trkpt><trkpt lat="43.784593465106134" lon="10.92415628074635"><ele>72.0</ele><time>2026-04-19T11:02:29.992Z</time></trkpt><trkpt lat="43.78464133885579" lon="10.924072965272437"><ele>72.0</ele><time>2026-04-19T11:02:33.992Z</time></trkpt><trkpt lat="43.784697308922425" lon="10.923992494919615"><ele>72.0</ele><time>2026-04-19T11:02:37.992Z</time></trkpt><trkpt lat="43.78475616515232" lon="10.92392193239378"><ele>72.00000000000001</ele><time>2026-04-19T11:02:40.992Z</time></trkpt><trkpt lat="43.78482277753507" lon="10.923871725333017"><ele>72.0</ele><time>2026-04-19T11:02:43.992Z</time></trkpt><trkpt lat="43.78488197147286" lon="10.92381024900403"><ele>71.16666666666667</ele><time>2026-04-19T11:02:46.992Z</time></trkpt><trkpt lat="43.784947879160285" lon="10.923746520952054"><ele>70.33333333333333</ele><time>2026-04-19T11:02:49.992Z</time></trkpt><trkpt lat="43.78501123444688" lon="10.923670685566739"><ele>69.5</ele><time>2026-04-19T11:02:52.992Z</time></trkpt><trkpt lat="43.78508223306598" lon="10.923617183198822"><ele>68.66666666666666</ele><time>2026-04-19T11:02:55.992Z</time></trkpt><trkpt lat="43.78515571043381" lon="10.923567578751735"><ele>67.83333333333333</ele><time>2026-04-19T11:02:58.992Z</time></trkpt><trkpt lat="43.78522850471438" lon="10.923507119342029"><ele>67.0</ele><time>2026-04-19T11:03:01.992Z</time></trkpt><trkpt lat="43.785300042326035" lon="10.92345799706106"><ele>64.83333333333333</ele><time>2026-04-19T11:03:04.993Z</time></trkpt><trkpt lat="43.785356591258164" lon="10.923388233750225"><ele>62.666666666666664</ele><time>2026-04-19T11:03:07.992Z</time></trkpt><trkpt lat="43.785410682352904" lon="10.923305217247343"><ele>60.5</ele><time>2026-04-19T11:03:10.993Z</time></trkpt><trkpt lat="43.7854828633133" lon="10.923256847343048"><ele>58.33333333333333</ele><time>2026-04-19T11:03:13.993Z</time></trkpt><trkpt lat="43.78555344344141" lon="10.923200323626553"><ele>56.166666666666664</ele><time>2026-04-19T11:03:16.993Z</time></trkpt><trkpt lat="43.78561522033295" lon="10.923140658462803"><ele>54.0</ele><time>2026-04-19T11:03:19.993Z</time></trkpt><trkpt lat="43.785673973709855" lon="10.923079828856475"><ele>54.0</ele><time>2026-04-19T11:03:22.993Z</time></trkpt><trkpt lat="43.7857349170994" lon="10.92303713296694"><ele>54.0</ele><time>2026-04-19T11:03:25.992Z</time></trkpt><trkpt lat="43.78579303171016" lon="10.922978868841977"><ele>54.0</ele><time>2026-04-19T11:03:28.992Z</time></trkpt><trkpt lat="43.7858521836299" lon="10.92291685430466"><ele>54.0</ele><time>2026-04-19T11:03:31.992Z</time></trkpt><trkpt lat="43.78590153047971" lon="10.922846359663485"><ele>54.0</ele><time>2026-04-19T11:03:34.992Z</time></trkpt><trkpt lat="43.78596734235168" lon="10.922782113183839"><ele>54.0</ele><time>2026-04-19T11:03:38.992Z</time></trkpt><trkpt lat="43.78601622193248" lon="10.922722218509982"><ele>54.0</ele><time>2026-04-19T11:03:41.992Z</time></trkpt><trkpt lat="43.78607255942279" lon="10.922631819568451"><ele>55.42857142857143</ele><time>2026-04-19T11:03:45.992Z</time></trkpt><trkpt lat="43.78613960187601" lon="10.922557391228517"><ele>56.857142857142854</ele><time>2026-04-19T11:03:49.992Z</time></trkpt><trkpt lat="43.78618977419531" lon="10.922500871823463"><ele>58.285714285714285</ele><time>2026-04-19T11:03:52.992Z</time></trkpt><trkpt lat="43.78624266320834" lon="10.922443970734436"><ele>59.71428571428571</ele><time>2026-04-19T11:03:55.992Z</time></trkpt><trkpt lat="43.78629358229468" lon="10.92238651552196"><ele>61.14285714285714</ele><time>2026-04-19T11:03:58.992Z</time></trkpt><trkpt lat="43.786335021814615" lon="10.922320711136713"><ele>62.57142857142857</ele><time>2026-04-19T11:04:01.992Z</time></trkpt><trkpt lat="43.786380559665844" lon="10.922256911351445"><ele>64.0</ele><time>2026-04-19T11:04:04.992Z</time></trkpt><trkpt lat="43.786379048291174" lon="10.92216573330124"><ele>64.0</ele><time>2026-04-19T11:04:07.992Z</time></trkpt><trkpt lat="43.78631444885781" lon="10.922088598180812"><ele>63.99999999999999</ele><time>2026-04-19T11:04:10.992Z</time></trkpt><trkpt lat="43.78626771309802" lon="10.92202113040449"><ele>64.0</ele><time>2026-04-19T11:04:13.992Z</time></trkpt><trkpt lat="43.786211874736196" lon="10.921977339946453"><ele>64.0</ele><time>2026-04-19T11:04:16.992Z</time></trkpt><trkpt lat="43.786149165437884" lon="10.922015132671106"><ele>63.99999999999999</ele><time>2026-04-19T11:04:19.992Z</time></trkpt><trkpt lat="43.78609924724707" lon="10.922083326675674"><ele>64.0</ele><time>2026-04-19T11:04:23.992Z</time></trkpt><trkpt lat="43.786033488439585" lon="10.922085419028502"><ele>64.0</ele><time>2026-04-19T11:04:26.992Z</time></trkpt><trkpt lat="43.785961189854994" lon="10.922123957552197"><ele>62.71428571428571</ele><time>2026-04-19T11:04:30.992Z</time></trkpt><trkpt lat="43.78590405432638" lon="10.922166750658972"><ele>61.42857142857142</ele><time>2026-04-19T11:04:33.992Z</time></trkpt><trkpt lat="43.785841906215914" lon="10.922192852818027"><ele>60.14285714285714</ele><time>2026-04-19T11:04:36.992Z</time></trkpt><trkpt lat="43.785765887058986" lon="10.9222300722676"><ele>58.857142857142854</ele><time>2026-04-19T11:04:40.992Z</time></trkpt><trkpt lat="43.7856967342136" lon="10.922236655001326"><ele>57.57142857142857</ele><time>2026-04-19T11:04:43.992Z</time></trkpt><trkpt lat="43.78563260068574" lon="10.92226148322839"><ele>56.28571428571428</ele><time>2026-04-19T11:04:46.992Z</time></trkpt><trkpt lat="43.785568175298856" lon="10.92228776805989"><ele>55.0</ele><time>2026-04-19T11:04:49.991Z</time></trkpt><trkpt lat="43.785506703970015" lon="10.92233405471783"><ele>54.99999999999999</ele><time>2026-04-19T11:04:52.991Z</time></trkpt><trkpt lat="43.78543974599191" lon="10.92238107979187"><ele>55.0</ele><time>2026-04-19T11:04:55.991Z</time></trkpt><trkpt lat="43.78537222754568" lon="10.922432218867929"><ele>55.0</ele><time>2026-04-19T11:04:58.991Z</time></trkpt><trkpt lat="43.78529486954486" lon="10.922411888645863"><ele>55.0</ele><time>2026-04-19T11:05:01.993Z</time></trkpt><trkpt lat="43.785239507838654" lon="10.922353606710995"><ele>55.0</ele><time>2026-04-19T11:05:04.992Z</time></trkpt><trkpt lat="43.7851806941265" lon="10.922283993645207"><ele>54.99999999999999</ele><time>2026-04-19T11:05:08.992Z</time></trkpt><trkpt lat="43.78513417790349" lon="10.922221873760042"><ele>55.0</ele><time>2026-04-19T11:05:11.992Z</time></trkpt><trkpt lat="43.78506995150745" lon="10.922154925770316"><ele>55.166666666666664</ele><time>2026-04-19T11:05:15.993Z</time></trkpt><trkpt lat="43.7850177674514" lon="10.9220743501451"><ele>55.33333333333333</ele><time>2026-04-19T11:05:19.992Z</time></trkpt><trkpt lat="43.78496839412293" lon="10.921990885969663"><ele>55.5</ele><time>2026-04-19T11:05:23.992Z</time></trkpt><trkpt lat="43.78492078807028" lon="10.921901443037042"><ele>55.66666666666667</ele><time>2026-04-19T11:05:27.992Z</time></trkpt><trkpt lat="43.784863657289904" lon="10.921818720950748"><ele>55.833333333333336</ele><time>2026-04-19T11:05:31.992Z</time></trkpt><trkpt lat="43.78481693958001" lon="10.92175540100111"><ele>56.0</ele><time>2026-04-19T11:05:34.992Z</time></trkpt><trkpt lat="43.784761558968874" lon="10.921699769139941"><ele>56.00000000000001</ele><time>2026-04-19T11:05:37.992Z</time></trkpt><trkpt lat="43.78469584979684" lon="10.921672555480672"><ele>56.0</ele><time>2026-04-19T11:05:40.992Z</time></trkpt><trkpt lat="43.784617259169956" lon="10.921696260719045"><ele>56.0</ele><time>2026-04-19T11:05:43.992Z</time></trkpt><trkpt lat="43.784535444195264" lon="10.921679151089698"><ele>56.0</ele><time>2026-04-19T11:05:47.992Z</time></trkpt><trkpt lat="43.78447314510012" lon="10.921609814506969"><ele>56.00000000000001</ele><time>2026-04-19T11:05:50.992Z</time></trkpt><trkpt lat="43.78441549597719" lon="10.921531611937166"><ele>56.0</ele><time>2026-04-19T11:05:53.992Z</time></trkpt><trkpt lat="43.78435803229414" lon="10.921473090181982"><ele>55.142857142857146</ele><time>2026-04-19T11:05:56.992Z</time></trkpt><trkpt lat="43.78430401965971" lon="10.921395298395732"><ele>54.285714285714285</ele><time>2026-04-19T11:05:59.992Z</time></trkpt><trkpt lat="43.78427403714255" lon="10.921306379893705"><ele>53.42857142857143</ele><time>2026-04-19T11:06:02.992Z</time></trkpt><trkpt lat="43.78425111458033" lon="10.921209163475659"><ele>52.57142857142857</ele><time>2026-04-19T11:06:05.992Z</time></trkpt><trkpt lat="43.78423937827232" lon="10.921121608432435"><ele>51.714285714285715</ele><time>2026-04-19T11:06:08.992Z</time></trkpt><trkpt lat="43.78420431268478" lon="10.921028569964209"><ele>50.85714285714286</ele><time>2026-04-19T11:06:11.992Z</time></trkpt><trkpt lat="43.78417400436532" lon="10.920932861774231"><ele>50.0</ele><time>2026-04-19T11:06:14.992Z</time></trkpt><trkpt lat="43.78413895984172" lon="10.920840506722678"><ele>49.66666666666667</ele><time>2026-04-19T11:06:17.992Z</time></trkpt><trkpt lat="43.78411727599919" lon="10.92074745747796"><ele>49.333333333333336</ele><time>2026-04-19T11:06:20.992Z</time></trkpt><trkpt lat="43.784091890786996" lon="10.92064959439736"><ele>49.0</ele><time>2026-04-19T11:06:23.992Z</time></trkpt><trkpt lat="43.784065247804" lon="10.920551440962871"><ele>48.66666666666667</ele><time>2026-04-19T11:06:26.992Z</time></trkpt><trkpt lat="43.78398461900816" lon="10.920528259256447"><ele>48.333333333333336</ele><time>2026-04-19T11:06:29.992Z</time></trkpt><trkpt lat="43.7839227711277" lon="10.920585898572828"><ele>48.0</ele><time>2026-04-19T11:06:32.992Z</time></trkpt><trkpt lat="43.78385959394936" lon="10.92063438094004"><ele>47.99999999999999</ele><time>2026-04-19T11:06:35.992Z</time></trkpt><trkpt lat="43.78379792668729" lon="10.92067890525824"><ele>48.0</ele><time>2026-04-19T11:06:38.991Z</time></trkpt><trkpt lat="43.7837393980965" lon="10.920725204748427"><ele>48.0</ele><time>2026-04-19T11:06:41.991Z</time></trkpt><trkpt lat="43.783680172789815" lon="10.92076728434926"><ele>48.0</ele><time>2026-04-19T11:06:44.991Z</time></trkpt><trkpt lat="43.78361897524214" lon="10.920833989273651"><ele>48.0</ele><time>2026-04-19T11:06:47.991Z</time></trkpt><trkpt lat="43.7835549700855" lon="10.920890350423589"><ele>47.99999999999999</ele><time>2026-04-19T11:06:50.991Z</time></trkpt><trkpt lat="43.7834998555302" lon="10.920946664044056"><ele>48.0</ele><time>2026-04-19T11:06:53.991Z</time></trkpt><trkpt lat="43.783421124949804" lon="10.920990778252333"><ele>49.42857142857142</ele><time>2026-04-19T11:06:57.991Z</time></trkpt><trkpt lat="43.78335196439541" lon="10.92104123626881"><ele>50.85714285714286</ele><time>2026-04-19T11:07:01.991Z</time></trkpt><trkpt lat="43.7832894882878" lon="10.921101101962432"><ele>52.28571428571429</ele><time>2026-04-19T11:07:05.991Z</time></trkpt><trkpt lat="43.78322728505622" lon="10.921122303639466"><ele>53.714285714285715</ele><time>2026-04-19T11:07:08.992Z</time></trkpt><trkpt lat="43.783162707464136" lon="10.921163725651356"><ele>55.142857142857146</ele><time>2026-04-19T11:07:11.992Z</time></trkpt><trkpt lat="43.78309158476857" lon="10.921148593166972"><ele>56.57142857142858</ele><time>2026-04-19T11:07:15.992Z</time></trkpt><trkpt lat="43.783044852593584" lon="10.9212232989567"><ele>58.00000000000001</ele><time>2026-04-19T11:07:21.992Z</time></trkpt><trkpt lat="43.78299310598346" lon="10.921299246448598"><ele>58.00000000000001</ele><time>2026-04-19T11:07:29.992Z</time></trkpt><trkpt lat="43.78294131479805" lon="10.92136482938623"><ele>58.0</ele><time>2026-04-19T11:07:36.992Z</time></trkpt><trkpt lat="43.78288356740655" lon="10.921402645773847"><ele>58.00000000000001</ele><time>2026-04-19T11:07:43.992Z</time></trkpt><trkpt lat="43.782818797079464" lon="10.921448735829491"><ele>58.00000000000001</ele><time>2026-04-19T11:07:50.992Z</time></trkpt><trkpt lat="43.782757750861045" lon="10.921502590189782"><ele>58.0</ele><time>2026-04-19T11:07:58.991Z</time></trkpt><trkpt lat="43.782707597556914" lon="10.921577359649628"><ele>58.00000000000001</ele><time>2026-04-19T11:08:05.991Z</time></trkpt><trkpt lat="43.782662046133616" lon="10.92164522794906"><ele>58.00000000000001</ele><time>2026-04-19T11:08:12.991Z</time></trkpt><trkpt lat="43.782603766621236" lon="10.921691269628326"><ele>59.0</ele><time>2026-04-19T11:08:18.991Z</time></trkpt><trkpt lat="43.782537231241385" lon="10.921723740210306"><ele>59.0</ele><time>2026-04-19T11:08:25.991Z</time></trkpt><trkpt lat="43.782489188060815" lon="10.921802823004347"><ele>66.0</ele><time>2026-04-19T11:08:32.991Z</time></trkpt><trkpt lat="43.78248387257199" lon="10.921895812810517"><ele>66.0</ele><time>2026-04-19T11:08:39.991Z</time></trkpt><trkpt lat="43.78252956882795" lon="10.921957539275127"><ele>66.0</ele><time>2026-04-19T11:08:44.991Z</time></trkpt><trkpt lat="43.78258991088972" lon="10.922007165507194"><ele>66.0</ele><time>2026-04-19T11:08:50.991Z</time></trkpt></trkseg></trk></gpx>